     2              OBSERVATION DATA    GPS                 RINEX VERSION / TYPE
ASHTORIN MIT 11                                             PGM / RUN BY / DATE
                                                            COMMENT
Original Marker Name: lach                                  COMMENT
Campaign Name: STRC/NBC 1997                                COMMENT
4-Character Station Name: LACH                              COMMENT
6-Character Antenna Code: DMRCHT                            COMMENT
Vertical Measurement Point: BCR                             COMMENT
Vertical Offset to Rinex Ref. Point: 0.0349                 COMMENT
Radial Measurement Point: ECF                               COMMENT
Radial Offset to Rinex Ref. Point: 0.1896                   COMMENT
Antenna Height from Field Measurement: 1.4380 m             COMMENT
Additional Antenna Identification Info.:                    COMMENT
Turborogue and Ashtech Choke Ring                           COMMENT
Original XYZ: 0.0000 0.0000 0.0000                          COMMENT
New XYZ position is based on association with SCEC monument COMMENT
E1C9E0L8+0011. Position of that monument is believed to be  COMMENT
valid to within 1 m horizontally; vertical accuracy         COMMENT
should be no worse than 3-times this value.                 COMMENT
                                                            COMMENT
Revised Rinex header created by UCSD GPS archive for        COMMENT
GSAC on 02-Jun-1999 (1999:153) 00:20:11 GMT                 COMMENT
For assistance contact dagnew@ucsd.edu or hjohnson@ucsd.edu COMMENT
                                                            COMMENT
LACH                                                        MARKER NAME
lach CICESElevel20                                          MARKER NUMBER
FFS CICESE (ENSENADA)                                       OBSERVER / AGENCY
134 ASHTECH Z12-XII3 1E951D0                                REC # / TYPE / VERS
758 DORNE-MARGOL. TYPE T                                    ANT # / TYPE
 -2288479.0000 -4873362.0000  3408124.0000                  APPROX POSITION XYZ
        1.3905        0.0000        0.0000                  ANTENNA: DELTA H/E/N
     1     1     0                                          WAVELENGTH FACT L1/2
     7    L1    L2    C1    P1    P2    D1    D2            # / TYPES OF OBSERV
    30                                                      INTERVAL
  1997     3     8     0     0   30.000000                  TIME OF FIRST OBS
  1997     3     8    16    59   60.000000                  TIME OF LAST OBS
     0                                                      # OF SATELLITES
                                                            END OF HEADER
 97  3  8  0  0 30.0000000  0  7  7  2  4  9 24  5 16                0.000000000
  -1266462.742 9   -727242.19146  22995595.064    22995594.5814   22995599.9464
        -0.000          -0.000
   8014360.702 9   6250171.80545  24005072.829    24005072.1644   24005078.3774
        -0.000          -0.000
 -24412907.461 9 -18987540.28049  20679808.220    20679808.6064   20679812.5274
        -0.000          -0.000
 -22458873.944 9 -17220745.93148  21389692.094    21389692.0644   21389696.4944
        -0.000          -0.000
 -22841712.010 9 -17779406.92748  20704197.051    20704197.1034   20704202.2574
        -0.000          -0.000
 -17473931.042 9 -13169264.99847  22334807.675    22334807.4154   22334812.0534
        -0.000          -0.000
  -5460242.847 8  -3391512.00845  24614776.759    24614776.8254   24614783.1824
        -0.000          -0.000
 97  3  8  0  1  0.0000000  0  7  7  2  4  9 24  5 16                0.000117769
  -1211423.698 9   -684354.64346  23006068.826    23006068.2804   23006073.5344
        -0.000          -0.000
   8090836.061 9   6309762.95245  24019625.532    24019624.9004   24019631.2544
        -0.000          -0.000
 -24389744.966 9 -18969491.58049  20684215.907    20684216.2954   20684220.2214
        -0.000          -0.000
 -22452929.170 9 -17216113.65348  21390823.338    21390823.3714   21390827.8094
        -0.000          -0.000
 -22895849.380 9 -17821591.87448  20693895.035    20693895.0944   20693900.2234
        -0.000          -0.000
 -17562533.837 9 -13238306.12447  22317947.271    22317946.9174   22317951.4464
        -0.000          -0.000
  -5464249.999 8  -3394634.45745  24614014.408    24614014.4524   24614020.3284
        -0.000          -0.000
 97  3  8  0  1 30.0000000  0  7  7  2  4  9 24  5 16                0.000111761
  -1156358.213 9   -641446.48946  23016547.673    23016547.0174   23016552.1344
        -0.000          -0.000
   8167583.366 9   6369565.97845  24034229.839    24034229.3894   24034235.8104
        -0.000          -0.000
 -24366065.280 9 -18951039.87649  20688721.992    20688722.3754   20688726.2634
        -0.000          -0.000
 -22446418.143 9 -17211040.14148  21392062.345    21392062.3434   21392066.8114
        -0.000          -0.000
 -22949453.943 9 -17863361.64248  20683694.439    20683694.4264   20683699.6254
        -0.000          -0.000
 -17651000.150 9 -13307240.89247  22301112.561    22301112.2214   22301116.8864
        -0.000          -0.000
  -5467770.826 8  -3397377.90845  24613344.678    24613344.5564   24613350.5074
        -0.000          -0.000
 97  3  8  0  2  0.0000000  0  7  7  2  4  9 24  5 16                0.000105774
  -1101264.229 9   -598516.11346  23027031.738    23027031.0984   23027036.1554
        -0.000          -0.000
   8244601.898 9   6429580.39646  24048885.944    24048885.6834   24048892.0554
        -0.000          -0.000
 -24341848.719 9 -18932169.82449  20693330.283    20693330.6754   20693334.5524
        -0.000          -0.000
 -22439331.446 9 -17205518.04948  21393410.974    21393410.9704   21393415.3764
        -0.000          -0.000
 -23002533.927 9 -17904722.65348  20673593.625    20673593.6494   20673598.9014
        -0.000          -0.000
 -17739323.700 9 -13376064.40247  22284304.958    22284304.7174   22284309.5124
        -0.000          -0.000
  -5470795.787 8  -3399735.04145  24612769.225    24612768.9054   24612774.9674
        -0.000          -0.000
 97  3  8  0  2 30.0000000  0  7  7  2  4  9 24  5 16                0.000099790
  -1046157.912 9   -555576.13446  23037518.123    23037517.5284   23037522.5124
        -0.000          -0.000
   8321872.886 8   6489791.51645  24063590.220    24063589.9644   24063596.2984
        -0.000          -0.000
 -24317083.225 9 -18912872.04149  20698043.065    20698043.4134   20698047.3114
        -0.000          -0.000
 -22431679.934 9 -17199555.85648  21394867.042    21394867.0424   21394871.4214
        -0.000          -0.000
 -23055101.924 9 -17945684.71348  20663590.263    20663590.3044   20663595.4934
        -0.000          -0.000
 -17827511.775 9 -13444782.35547  22267523.422    22267523.1354   22267527.8434
        -0.000          -0.000
  -5473322.099 8  -3401703.56445  24612288.651    24612288.0584   24612294.3244
        -0.000          -0.000
 97  3  8  0  3  0.0000000  0  7  7  2  4  9 24  5 16                0.000093792
   -991052.405 9   -512636.79746  23048004.517    23048003.8684   23048008.7724
        -0.000          -0.000
   8399360.043 8   6550171.05845  24078335.576    24078335.2564   24078341.7324
        -0.000          -0.000
 -24291775.942 9 -18893152.07849  20702858.846    20702859.2194   20702863.1224
        -0.000          -0.000
 -22423471.341 9 -17193159.56248  21396429.153    21396429.1004   21396433.4344
        -0.000          -0.000
 -23107170.038 9 -17986257.24948  20653682.039    20653682.0344   20653687.1954
        -0.000          -0.000
 -17915578.477 9 -13513405.75247  22250765.073    22250764.6464   22250769.0554
        -0.000          -0.000
  -5475354.135 8  -3403286.96445  24611901.861    24611901.1664   24611907.5194
        -0.000          -0.000
 97  3  8  0  3 30.0000000  0  7  7  2  4  9 24  5 16                0.000087782
   -935922.657 9   -469678.57446  23058495.277    23058494.6364   23058499.6294
        -0.000          -0.000
   8477073.913 8   6610727.24545  24093124.092    24093123.6474   24093130.2994
        -0.000          -0.000
 -24265900.903 9 -18872989.70949  20707782.699    20707783.0504   20707786.9374
        -0.000          -0.000
 -22414692.934 9 -17186319.25548  21398099.644    21398099.6044   21398103.9394
        -0.000          -0.000
 -23158715.063 9 -18026422.19248  20643873.318    20643873.3244   20643878.4544
        -0.000          -0.000
 -18003506.903 9 -13581921.40047  22234032.738    22234032.3804   22234036.7904
        -0.000          -0.000
  -5476860.622 8  -3404460.84845  24611615.551    24611614.8034   24611620.8344
        -0.000          -0.000
 97  3  8  0  4  0.0000000  0  7  7  2  4  9 24  5 16                0.000081742
   -880770.558 9   -426702.93946  23068990.382    23068989.8004   23068994.7804
        -0.000          -0.000
   8554985.328 8   6671437.37945  24107950.136    24107949.7044   24107956.3674
        -0.000          -0.000
 -24239475.705 9 -18852398.64349  20712811.230    20712811.6194   20712815.4704
        -0.000          -0.000
 -22405375.663 9 -17179059.06248  21399872.581    21399872.5574   21399876.9494
        -0.000          -0.000
 -23209753.653 9 -18066192.50048  20634160.921    20634160.9784   20634166.1104
        -0.000          -0.000
 -18091305.247 9 -13650335.65647  22217325.173    22217324.8564   22217329.4004
        -0.000          -0.000
  -5477860.765 9  -3405240.15545  24611425.264    24611424.3564   24611430.4734
        -0.000          -0.000
 97  3  8  0  4 30.0000000  0  7  7  2  4  9 24  5 16                0.000075689
   -825594.944 9   -383708.97046  23079489.851    23079489.3424   23079494.5184
        -0.000          -0.000
   8633091.828 8   6732299.50145  24122813.339    24122812.9444   24122819.7654
        -0.000          -0.000
 -24212536.554 9 -18831407.09549  20717937.643    20717937.9704   20717941.8174
        -0.000          -0.000
 -22395521.097 9 -17171380.19148  21401747.869    21401747.8484   21401752.2374
        -0.000          -0.000
 -23260288.902 9 -18105570.59948  20624544.424    20624544.4454   20624549.5204
        -0.000          -0.000
 -18178969.269 9 -13718645.26447  22200643.376    22200642.9954   22200647.5334
        -0.000          -0.000
  -5478359.242 8  -3405628.53845  24611330.503    24611329.6014   24611335.6534
        -0.000          -0.000
 97  3  8  0  5  0.0000000  0  7  7  2  4  9 24  5 16                0.000069648
   -770395.057 9   -340696.11446  23089994.111    23089993.5904   23089998.8224
        -0.000          -0.000
   8711417.434 8   6793332.36845  24137718.451    24137718.0154   24137724.4474
        -0.000          -0.000
 -24185111.014 9 -18810036.54549  20723156.472    20723156.8274   20723160.6914
        -0.000          -0.000
 -22385124.238 9 -17163278.75948  21403726.368    21403726.3484   21403730.6794
        -0.000          -0.000
 -23310306.097 9 -18144545.01949  20615026.467    20615026.4844   20615031.5504
        -0.000          -0.000
 -18266488.299 9 -13786841.88747  22183988.998    22183988.6354   22183993.1444
        -0.000          -0.000
  -5478351.506 8  -3405622.52245  24611331.591    24611330.9114   24611337.0414
        -0.000          -0.000
 97  3  8  0  5 30.0000000  0  7  7  2  4  9 24  5 16                0.000063624
   -715191.250 9   -297680.19346  23100499.086    23100498.5484   23100503.8594
        -0.000          -0.000
   8789971.826 8   6854543.54345  24152667.112    24152666.5984   24152672.7934
        -0.000          -0.000
 -24157207.360 9 -18788293.44149  20728466.372    20728466.7414   20728470.6014
        -0.000          -0.000
 -22374196.688 9 -17154763.80448  21405805.856    21405805.8194   21405810.1644
        -0.000          -0.000
 -23359809.086 9 -18183118.75849  20605606.320    20605606.3364   20605611.4454
        -0.000          -0.000
 -18353863.269 9 -13854926.26247  22167361.998    22167361.6554   22167366.1824
        -0.000          -0.000
  -5477840.742 9  -3405224.47045  24611428.458    24611428.0634   24611433.9954
        -0.000          -0.000
 97  3  8  0  6  0.0000000  0  7  7  2  4  9 24  5 16                0.000057621
   -659983.924 9   -254661.52646  23111004.648    23111004.1854   23111009.4954
        -0.000          -0.000
   8868759.010 8   6915936.08845  24167659.523    24167659.1484   24167665.5284
        -0.000          -0.000
 -24128830.030 9 -18766181.23449  20733866.405    20733866.7634   20733870.5944
        -0.000          -0.000
 -22362735.411 9 -17145832.95548  21407986.860    21407986.8494   21407991.1744
        -0.000          -0.000
 -23408791.637 9 -18221286.96049  20596285.262    20596285.2884   20596290.3844
        -0.000          -0.000
 -18441089.835 9 -13922894.99847  22150763.238    22150762.9264   22150767.4034
        -0.000          -0.000
  -5476817.366 8  -3404427.04245  24611623.194    24611622.8584   24611628.9584
        -0.000          -0.000
 97  3  8  0  6 30.0000000  0  7  7  2  4  9 24  5 16                0.000051644
   -604777.030 9   -211643.18246  23121510.190    23121509.7024   23121514.9524
        -0.000          -0.000
   8947801.032 8   6977527.22345  24182700.647    24182700.3864   24182706.8884
        -0.000          -0.000
 -24099970.435 9 -18743693.23649  20739358.205    20739358.5514   20739362.4054
        -0.000          -0.000
 -22350729.078 9 -17136477.38948  21410271.566    21410271.5674   21410275.8644
        -0.000          -0.000
 -23457245.858 9 -18259043.47649  20587064.720    20587064.7324   20587069.8394
        -0.000          -0.000
 -18528182.739 9 -13990759.58247  22134189.997    22134189.7204   22134194.1734
        -0.000          -0.000
  -5475273.096 9  -3403223.67745  24611917.066    24611916.8444   24611922.9214
        -0.000          -0.000
 97  3  8  0  7  0.0000000  0  7  7  2  4  9 24  5 16                0.000045675
   -549564.980 9   -168620.82946  23132016.805    23132016.2284   23132021.4744
        -0.000          -0.000
   9027101.676 8   7039319.86745  24197790.682    24197790.5394   24197797.2724
        -0.000          -0.000
 -24070597.146 9 -18720804.96249  20744947.709    20744948.0614   20744951.9684
        -0.000          -0.000
 -22338186.429 9 -17126703.90748  21412658.431    21412658.3954   21412662.6704
        -0.000          -0.000
 -23505165.230 9 -18296383.22849  20577945.966    20577945.9654   20577951.0594
        -0.000          -0.000
 -18615140.923 9 -14058519.18347  22117642.498    22117642.1454   22117646.6614
        -0.000          -0.000
  -5473208.262 9  -3401614.67745  24612310.075    24612309.6634   24612315.7244
        -0.000          -0.000
 97  3  8  0  7 30.0000000  0  7  7  2  4  9 24  5 16                0.000039702
   -494331.912 9   -125582.08646  23142527.215    23142526.6724   23142531.9144
        -0.000          -0.000
   9106643.300 8   7101300.25845  24212926.749    24212926.9984   24212933.6354
        -0.000          -0.000
 -24040692.439 9 -18697502.59649  20750638.394    20750638.7324   20750642.6624
        -0.000          -0.000
 -22325102.065 9 -17116508.31548  21415148.277    21415148.2614   21415152.5984
        -0.000          -0.000
 -23552558.236 9 -18333312.83049  20568927.327    20568927.3484   20568932.3974
        -0.000          -0.000
 -18701951.104 9 -14126163.45547  22101123.098    22101122.7314   22101127.3334
        -0.000          -0.000
  -5470636.988 9  -3399611.08445  24612799.579    24612798.9544   24612805.1214
        -0.000          -0.000
 97  3  8  0  8  0.0000000  0  7  7  2  4  9 24  5 16                0.000033723
   -439071.823 9    -82522.29146  23153042.701    23153042.2534   23153047.5354
        -0.000          -0.000
   9186418.739 8   7163462.87645  24228107.760    24228107.8204   24228114.4644
        -0.000          -0.000
 -24010266.699 9 -18673794.22149  20756428.203    20756428.5634   20756432.4614
        -0.000          -0.000
 -22311478.497 9 -17105892.56548  21417740.817    21417740.7674   21417745.1304
        -0.000          -0.000
 -23599438.352 9 -18369842.77149  20560006.326    20560006.3344   20560011.3764
        -0.000          -0.000
 -18788610.843 9 -14193690.51447  22084632.294    22084631.9874   22084636.5614
        -0.000          -0.000
  -5467583.159 8  -3397231.45845  24613380.646    24613379.8124   24613386.4114
        -0.000          -0.000
 97  3  8  0  8 30.0000000  0  7  7  2  4  9 24  5 16                0.000027738
   -383788.597 9    -39444.46446  23163562.795    23163562.2694   23163567.6924
        -0.000          -0.000
   9266418.567 9   7225800.37345  24243331.545    24243331.3404   24243338.2764
        -0.000          -0.000
 -23979332.438 9 -18649689.60049  20762314.851    20762315.2084   20762319.0594
        -0.000          -0.000
 -22297308.459 9 -17094850.98848  21420437.257    21420437.2504   21420441.5824
        -0.000          -0.000
 -23645822.263 9 -18405986.06349  20551179.797    20551179.7844   20551184.8124
        -0.000          -0.000
 -18875114.854 9 -14261096.21647  22068171.078    22068170.7834   22068175.3534
        -0.000          -0.000
  -5464069.454 9  -3394493.49545  24614049.078    24614048.3884   24614054.8944
        -0.000          -0.000
 97  3  8  0  9  0.0000000  0  7  7  2  4  9 24  5 16                0.000021754
   -328456.981 9      3671.07446  23174092.084    23174091.5204   23174096.8844
        -0.000          -0.000
   9346643.076 8   7288312.92245  24258598.125    24258597.5534   24258604.6024
        -0.000          -0.000
 -23947873.085 9 -18625175.82049  20768301.380    20768301.7144   20768305.6014
        -0.000          -0.000
 -22282587.319 9 -17083379.98548  21423238.652    21423238.6304   21423242.9534
        -0.000          -0.000
 -23691691.655 9 -18441728.42949  20542451.055    20542451.0874   20542456.1714
        -0.000          -0.000
 -18961428.479 9 -14328353.57747  22051746.187    22051745.8944   22051750.3644
        -0.000          -0.000
  -5460085.344 8  -3391388.98045  24614807.500    24614806.6944   24614812.9674
        -0.000          -0.000
 97  3  8  0  9 30.0000000  0  7  7  2  4  9 24  5 16                0.000015760
   -273090.819 9     46813.50546  23184628.052    23184627.4964   23184632.7654
        -0.000          -0.000
   9427075.263 8   7350987.28245  24273903.751    24273902.9574   24273910.3454
        -0.000          -0.000
 -23915909.549 9 -18600269.17249  20774383.830    20774384.1734   20774388.0444
        -0.000          -0.000
 -22267326.060 9 -17071488.11248  21426142.744    21426142.7504   21426147.1144
        -0.000          -0.000
 -23737064.449 9 -18477083.83949  20533816.879    20533816.9244   20533821.9594
        -0.000          -0.000
 -19047584.106 9 -14395487.81647  22035351.313    22035351.0144   22035355.4014
        -0.000          -0.000
  -5455629.542 8  -3387916.95145  24615655.327    24615654.5664   24615661.1584
        -0.000          -0.000
 97  3  8  0 10  0.0000000  0  8  7  2  4  9 24 30  5 16             0.000009714
   -217688.480 9     89984.13646  23195170.910    23195170.3184   23195175.4814
        -0.000          -0.000
   9507725.290 9   7413831.43645  24289251.007    24289250.5514   24289257.4344
        -0.000          -0.000
 -23883441.395 9 -18574969.31049  20780562.318    20780562.6664   20780566.5024
        -0.000          -0.000
 -22251526.796 9 -17059177.01248  21429149.264    21429149.2094   21429153.5594
        -0.000          -0.000
 -23781939.632 9 -18512051.49949  20525277.445    20525277.4564   20525282.4824
        -0.000          -0.000
  -4309460.90518  -3080610.07955  24592948.392    24592948.6375   24592954.0255
        -0.000          -0.000
 -19133603.902 9 -14462516.21447  22018982.367    22018981.9664   22018986.3414
        -0.000          -0.000
  -5450678.327 8  -3384058.85245  24616597.444    24616596.7844   24616603.1554
        -0.000          -0.000
 97  3  8  0 10 30.0000000  0  8  7  2  4  9 24 30  5 16             0.000003702
   -162239.358 9    133191.22446  23205722.461    23205721.9924   23205727.0854
        -0.000          -0.000
   9588598.786 9   7476849.70845  24304640.857    24304640.3874   24304647.1014
        -0.000          -0.000
 -23850451.604 9 -18549262.97949  20786840.113    20786840.4604   20786844.2374
        -0.000          -0.000
 -22235183.955 9 -17046442.34548  21432259.185    21432259.1464   21432263.5044
        -0.000          -0.000
 -23826300.941 9 -18546618.73849  20516835.767    20516835.8004   20516840.7734
        -0.000          -0.000
  -4417117.329 8  -3164498.14345  24572461.884    24572462.1794   24572467.7924
        -0.000          -0.000
 -19219478.316 9 -14529431.32048  22002641.076    22002640.6394   22002644.9944
        -0.000          -0.000
  -5445212.355 8  -3379799.69645  24617637.357    24617636.9144   24617643.2604
        -0.000          -0.000
 97  3  8  0 11  0.0000000  0  8  7  2  4  9 24 30  5 16            -0.000002310
   -106749.879 9    176429.76346  23216281.820    23216281.3034   23216286.5564
        -0.000          -0.000
   9669691.171 8   7540038.52445  24320072.516    24320071.9644   24320078.5904
        -0.000          -0.000
 -23816939.126 9 -18523149.35949  20793217.296    20793217.6354   20793221.4284
        -0.000          -0.000
 -22218319.188 9 -17033300.98148  21435468.528    21435468.4544   21435472.8004
        -0.000          -0.000
 -23870145.513 9 -18580783.31949  20508492.449    20508492.4564   20508497.4574
        -0.000          -0.000
  -4524785.205 8  -3248395.11145  24551973.229    24551973.5524   24551979.0924
        -0.000          -0.000
 -19305212.115 9 -14596236.86248  21986326.429    21986326.0334   21986330.4254
        -0.000          -0.000
  -5439225.673 8  -3375134.74045  24618776.603    24618776.2564   24618782.3664
        -0.000          -0.000
 97  3  8  0 11 29.9990000  0  8  7  2  4  9 24 30  5 16            -0.000008311
    -51226.654 9    219694.60346  23226847.450    23226846.9784   23226852.3924
        -0.000          -0.000
   9751008.874 8   7603402.90145  24335546.649    24335546.2624   24335553.0734
        -0.000          -0.000
 -23782929.191 9 -18496648.11349  20799689.167    20799689.5154   20799693.3154
        -0.000          -0.000
 -22200925.524 9 -17019747.49248  21438778.452    21438778.3734   21438782.7724
        -0.000          -0.000
 -23913472.894 9 -18614544.90349  20500247.502    20500247.5244   20500252.5134
        -0.000          -0.000
  -4632455.805 8  -3332294.20945  24531484.268    24531484.5364   24531490.0704
        -0.000          -0.000
 -19390786.565 9 -14662918.23248  21970042.174    21970041.7964   21970046.1514
        -0.000          -0.000
  -5432716.921 8  -3370063.00245  24620015.396    24620014.5694   24620020.9744
        -0.000          -0.000
 97  3  8  0 11 59.9990000  0  8  7  2  4  9 24 30  5 16            -0.000014301
      4328.733 9    262984.49446  23237419.330    23237418.8104   23237424.2134
        -0.000          -0.000
   9832559.016 8   7666948.41645  24351064.593    24351064.7884   24351071.4304
        -0.000          -0.000
 -23748428.997 9 -18469764.83849  20806254.352    20806254.7104   20806258.5204
        -0.000          -0.000
 -22182998.168 9 -17005778.14048  21442189.867    21442189.8014   21442194.2844
        -0.000          -0.000
 -23956264.938 9 -18647889.33449  20492104.386    20492104.4414   20492109.4504
        -0.000          -0.000
  -4740130.650 8  -3416196.62945  24510994.404    24510994.7414   24511000.1864
        -0.000          -0.000
 -19476166.552 9 -14729448.07148  21953794.977    21953794.4954   21953798.8914
        -0.000          -0.000
  -5425702.727 9  -3364597.41545  24621350.356    24621349.3544   24621355.7934
        -0.000          -0.000
 97  3  8  0 12 29.9990000  0  9  7  2  4  9 24 30  5 16 10         -0.000020246
     59902.993 9    306289.07946  23247994.689    23247994.1794   23247999.5884
        -0.000          -0.000
   9914332.677 8   7730668.09545  24366625.690    24366625.7064   24366632.4574
        -0.000          -0.000
 -23713446.060 9 -18442505.40949  20812911.448    20812911.7714   20812915.5404
        -0.000          -0.000
 -22164545.949 9 -16991399.81348  21445701.175    21445701.1504   21445705.6794
        -0.000          -0.000
 -23998509.935 9 -18680807.50049  20484065.464    20484065.4874   20484070.5054
        -0.000          -0.000
  -4847802.259 8  -3500096.56645  24490505.067    24490505.4064   24490510.8764
        -0.000          -0.000
 -19561329.583 9 -14795808.85748  21937588.841    21937588.4444   21937592.9304
        -0.000          -0.000
  -5418195.859 8  -3358747.87945  24622778.873    24622778.0954   24622784.1694
        -0.000          -0.000
  -2805693.55619  -1937333.06155  24625356.075    24625354.9325   24625362.5115
        -0.000          -0.000
 97  3  8  0 12 59.9990000  0  9  7  2  4  9 24 30  5 16 10         -0.000026227
    115499.586 9    349611.08546  23258574.479    23258573.9944   23258579.3044
        -0.000          -0.000
   9996327.886 9   7794560.41745  24382229.251    24382228.8354   24382235.8064
        -0.000          -0.000
 -23677993.814 9 -18414880.27749  20819657.853    20819658.1404   20819661.9204
        -0.000          -0.000
 -22145581.875 9 -16976622.61748  21449309.902    21449309.8624   21449314.3424
        -0.000          -0.000
 -24040203.727 9 -18713296.15549  20476131.338    20476131.3894   20476136.3904
        -0.000          -0.000
  -4955493.372 8  -3584011.65345  24470012.115    24470012.3534   24470017.8634
        -0.000          -0.000
 -19646287.689 9 -14862009.95648  21921421.761    21921421.3664   21921425.9534
        -0.000          -0.000
  -5410185.657 8  -3352506.19145  24624302.924    24624302.5104   24624308.4444
        -0.000          -0.000
  -2907539.999 9  -2016693.84245  24605975.357    24605974.2394   24605981.6074
        -0.000          -0.000
 97  3  8  0 13 29.9990000  0  9  7  2  4  9 24 30  5 16 10         -0.000032213
    171104.846 9    392939.82346  23269155.758    23269155.1994   23269160.6324
        -0.000          -0.000
  10078531.659 8   7858615.26745  24397872.180    24397871.8954   24397878.5014
        -0.000          -0.000
 -23642085.998 9 -18386900.16349  20826490.836    20826491.1404   20826494.9534
        -0.000          -0.000
 -22126111.034 9 -16961450.55648  21453015.054    21453015.0474   21453019.5564
        -0.000          -0.000
 -24081365.934 9 -18745370.58549  20468298.418    20468298.4424   20468303.4214
        -0.000          -0.000
  -5063221.206 8  -3667955.34745  24449512.277    24449512.3554   24449517.7684
        -0.000          -0.000
 -19731072.045 9 -14928075.66948  21905287.766    21905287.3954   21905291.9664
        -0.000          -0.000
  -5401684.093 8  -3345881.59245  24625920.535    24625920.4104   24625926.1674
        -0.000          -0.000
  -3009496.117 9  -2096140.08345  24586573.447    24586572.5014   24586579.8524
        -0.000          -0.000
 97  3  8  0 13 59.9990000  0  8  7  4  9 24 30  5 16 10            -0.000038211
    226719.652 9    436276.01946  23279739.017    23279738.3824   23279743.8734
        -0.000          -0.000
 -23605697.516 9 -18358545.50549  20833415.315    20833415.6464   20833419.4344
        -0.000          -0.000
 -22106125.077 9 -16945877.09648  21456818.314    21456818.2644   21456822.7724
        -0.000          -0.000
 -24121991.477 9 -18777026.83649  20460567.657    20460567.6844   20460572.6454
        -0.000          -0.000
  -5170977.563 9  -3751921.27445  24429006.975    24429007.0404   24429012.2804
        -0.000          -0.000
 -19815710.422 9 -14994027.64448  21889181.692    21889181.3154   21889185.6934
        -0.000          -0.000
  -5392673.844 8  -3338860.56645  24627635.184    24627634.8634   24627640.7684
        -0.000          -0.000
  -3111563.048 9  -2175672.66145  24567150.505    24567149.8464   24567156.7094
        -0.000          -0.000
 97  3  8  0 14 29.9990000  0  8  7  4  9 24 30  5 16 10            -0.000044223
    282335.580 9    479613.08946  23290322.423    23290321.8264   23290327.1604
        -0.000          -0.000
 -23568834.102 9 -18329820.76748  20840430.142    20840430.4604   20840434.2724
        -0.000          -0.000
 -22085635.078 9 -16929910.87548  21460717.419    21460717.3844   21460721.8984
        -0.000          -0.000
 -24162104.123 9 -18808283.42649  20452934.498    20452934.5184   20452939.4604
        -0.000          -0.000
  -5278779.802 9  -3835922.97345  24408492.775    24408493.0224   24408498.2054
        -0.000          -0.000
 -19900226.194 9 -15059884.06948  21873098.889    21873098.4894   21873102.9054
        -0.000          -0.000
  -5383148.497 8  -3331438.23145  24629447.848    24629447.3884   24629453.5634
        -0.000          -0.000
  -3213742.245 9  -2255292.76445  24547706.063    24547705.6284   24547712.4034
        -0.000          -0.000
 97  3  8  0 14 59.9990000  0  8  7  4  9 24 30  5 16 10            -0.000050225
    337970.825 9    522965.19146  23300909.680    23300908.9874   23300914.1474
        -0.000          -0.000
 -23531473.698 9 -18300708.75849  20847539.548    20847539.8984   20847543.7194
        -0.000          -0.000
 -22064613.902 9 -16913530.75348  21464717.589    21464717.5754   21464722.0324
        -0.000          -0.000
 -24201681.577 9 -18839122.98549  20445403.157    20445403.1624   20445408.1064
        -0.000          -0.000
  -5386599.105 9  -3919937.97145  24387975.370    24387975.7464   24387980.6614
        -0.000          -0.000
 -19984594.040 9 -15125625.22948  21857044.103    21857043.7834   21857048.2574
        -0.000          -0.000
  -5373078.332 8  -3323591.31545  24631364.199    24631363.8014   24631369.8154
        -0.000          -0.000
  -3315994.842 8  -2334970.01245  24528248.045    24528247.4384   24528254.3164
        -0.000          -0.000
 97  3  8  0 15 29.9990000  0  8  7  4  9 24 30  5 16 10            -0.000056235
    393583.847 9    566299.99046  23311492.656    23311491.9004   23311496.9934
        -0.000          -0.000
 -23493651.938 9 -18271237.26449  20854736.848    20854737.1564   20854740.9974
        -0.000          -0.000
 -22043087.143 9 -16896756.67748  21468814.024    21468814.0094   21468818.4634
        -0.000          -0.000
 -24240759.653 9 -18869573.41649  20437966.782    20437966.8104   20437971.7874
        -0.000          -0.000
  -5494443.918 8  -4003972.82545  24367453.210    24367453.4934   24367458.4014
        -0.000          -0.000
 -20068832.027 9 -15191265.19548  21841014.084    21841013.7614   21841018.3754
        -0.000          -0.000
  -5362512.931 8  -3315358.50445  24633374.598    24633374.3404   24633380.3044
        -0.000          -0.000
  -3418350.672 9  -2414727.70145  24508770.426    24508769.9524   24508776.7274
        -0.000          -0.000
 97  3  8  0 15 59.9990000  0  8  7  4  9 24 30  5 16 10            -0.000062247
    449190.034 9    609629.45846  23322074.145    23322073.4054   23322078.5934
        -0.000          -0.000
 -23455355.080 9 -18241395.56249  20862024.426    20862024.7414   20862028.7054
        -0.000          -0.000
 -22021045.222 9 -16879581.17248  21473008.544    21473008.5164   21473012.9644
        -0.000          -0.000
 -24279308.993 9 -18899611.84549  20430631.026    20430631.0584   20430636.1184
        -0.000          -0.000
  -5602301.584 9  -4088017.66945  24346928.425    24346928.8234   24346933.7834
        -0.000          -0.000
 -20152888.006 9 -15256763.34548  21825018.755    21825018.4344   21825023.0014
        -0.000          -0.000
  -5351442.314 8  -3306732.02945  24635481.300    24635480.9424   24635487.1274
        -0.000          -0.000
  -3520793.805 8  -2494553.41445  24489276.041    24489275.5384   24489282.5164
        -0.000          -0.000
 97  3  8  0 16 29.9990000  0  8  7  4  9 24 30  5 16 10            -0.000068265
    504794.178 9    652957.36046  23332655.060    23332654.4404   23332659.7604
        -0.000          -0.000
 -23416592.138 9 -18211190.67748  20869400.780    20869401.1044   20869405.0534
        -0.000          -0.000
 -21998508.010 9 -16862019.71848  21477297.217    21477297.2064   21477301.6864
        -0.000          -0.000
 -24317329.606 9 -18929238.28049  20423395.962    20423396.0274   20423401.0074
        -0.000          -0.000
  -5710183.629 9  -4172081.57245  24326399.193    24326399.3944   24326404.3704
        -0.000          -0.000
 -20236737.251 9 -15322100.41248  21809062.773    21809062.4204   21809066.8474
        -0.000          -0.000
  -5339885.973 8  -3297727.04245  24637680.266    24637679.9004   24637686.3234
        -0.000          -0.000
  -3623320.763 8  -2574444.45345  24469765.525    24469764.9844   24469772.2344
        -0.000          -0.000
 97  3  8  0 16 59.9990000  0  8  7  4  9 24 30  5 16 10            -0.000074281
    560420.303 9    696302.37746  23343240.276    23343239.7324   23343245.0544
        -0.000          -0.000
 -23377354.808 9 -18180616.12748  20876867.334    20876867.7054   20876871.5894
        -0.000          -0.000
 -21975456.022 9 -16844057.15048  21481683.798    21481683.8304   21481688.3764
        -0.000          -0.000
 -24354817.865 9 -18958449.89449  20416262.219    20416262.2664   20416267.2134
        -0.000          -0.000
  -5818072.187 9  -4256150.52645  24305868.633    24305869.0774   24305873.9364
        -0.000          -0.000
 -20320370.918 9 -15387269.47748  21793147.780    21793147.4584   21793151.9474
        -0.000          -0.000
  -5327842.889 8  -3288342.82245  24639972.106    24639971.6724   24639977.9014
        -0.000          -0.000
  -3725917.618 9  -2654389.97845  24450242.258    24450241.3904   24450248.5924
        -0.000          -0.000
 97  3  8  0 17 29.9990000  0  8  7  4  9 24 30  5 16 10            -0.000080300
    616072.481 9    739667.68346  23353830.584    23353829.9504   23353835.3554
        -0.000          -0.000
 -23337645.121 9 -18149673.51648  20884423.877    20884424.2344   20884428.0854
        -0.000          -0.000
 -21951888.350 9 -16825692.74948  21486168.572    21486168.5554   21486173.1014
        -0.000          -0.000
 -24391787.449 9 -18987257.34249  20409227.124    20409227.1664   20409232.1454
        -0.000          -0.000
  -5925978.007 9  -4340232.93345  24285334.814    24285335.3034   24285340.0014
        -0.000          -0.000
 -20403795.284 9 -15452275.45448  21777272.583    21777272.3284   21777276.8714
        -0.000          -0.000
  -5315329.242 8  -3278591.89945  24642353.134    24642352.8744   24642359.0174
        -0.000          -0.000
  -3828583.752 8  -2734389.47545  24430705.825    24430704.8654   24430711.6914
        -0.000          -0.000
 97  3  8  0 17 59.9990000  0  8  7  4  9 24 30  5 16 10            -0.000086321
    671751.586 9    783053.97746  23364426.051    23364425.4154   23364430.8824
        -0.000          -0.000
 -23297460.519 9 -18118360.84048  20892070.758    20892071.0804   20892074.9814
        -0.000          -0.000
 -21927802.109 9 -16806924.27048  21490751.959    21490751.9724   21490756.5874
        -0.000          -0.000
 -24428238.609 9 -19015660.82649  20402290.622    20402290.6684   20402295.6594
        -0.000          -0.000
  -6033909.606 9  -4424335.45445  24264796.140    24264796.4814   24264801.0344
        -0.000          -0.000
 -20487006.081 9 -15517115.02048  21761438.120    21761437.8404   21761442.3544
        -0.000          -0.000
  -5302332.839 8  -3268464.78645  24644826.272    24644826.0224   24644832.2244
        -0.000          -0.000
  -3931313.439 8  -2814438.46745  24411157.227    24411156.1184   24411162.8084
        -0.000          -0.000
 97  3  8  0 18 29.9990000  0  8  7  4  9 24 30  5 16 10            -0.000092340
    727450.682 9    826455.83846  23375025.311    23375024.6574   23375030.0764
        -0.000          -0.000
 -23256814.253 9 -18086688.42948  20899805.423    20899805.7664   20899809.7434
        -0.000          -0.000
 -21903201.776 9 -16787755.19648  21495433.212    21495433.2214   21495437.8424
        -0.000          -0.000
 -24464186.734 9 -19043672.33849  20395449.858    20395449.9144   20395454.9064
        -0.000          -0.000
  -6141858.108 8  -4508451.11145  24244254.022    24244254.4624   24244258.9924
        -0.000          -0.000
 -20570026.587 9 -15581806.30948  21745639.851    21745639.5374   21745644.0154
        -0.000          -0.000
  -5288850.838 8  -3257959.31445  24647391.843    24647391.4564   24647397.6434
        -0.000          -0.000
  -4034097.884 8  -2894530.16845  24391597.833    24391596.7794   24391603.3294
        -0.000          -0.000
 97  3  8  0 18 59.9990000  0  8  7  4  9 24 30  5 16 10            -0.000098366
    783150.346 9    869858.16446  23385624.575    23385623.9294   23385629.2294
        -0.000          -0.000
 -23215732.213 9 -18054676.45248  20907623.025    20907623.3934   20907627.3874
        -0.000          -0.000
 -21878102.538 9 -16768197.37448  21500209.491    21500209.4954   21500214.0994
        -0.000          -0.000
 -24499649.736 9 -19071305.82849  20388701.472    20388701.5264   20388706.5354
        -0.000          -0.000
  -6249829.383 9  -4592584.48145  24223707.711    24223708.1464   24223712.7604
        -0.000          -0.000
 -20652884.729 9 -15646371.07948  21729872.472    21729872.1334   21729876.6024
        -0.000          -0.000
  -5274892.630 8  -3247082.78745  24650047.910    24650047.6974   24650053.6434
        -0.000          -0.000
  -4136966.837 8  -2974687.69345  24372022.603    24372021.3104   24372027.8674
        -0.000          -0.000
 97  3  8  0 19 29.9990000  0  8  7  4  9 24 30  5 16 10            -0.000104392
    838866.081 9    913273.00246  23396226.720    23396226.2104   23396231.7194
        -0.000          -0.000
 -23174194.938 9 -18022309.74748  20915527.352    20915527.6914   20915531.6274
        -0.000          -0.000
 -21852494.165 9 -16748242.81148  21505082.652    21505082.6614   21505087.2254
        -0.000          -0.000
 -24534593.272 9 -19098534.53949  20382051.920    20382051.9694   20382056.9694
        -0.000          -0.000
  -6357799.213 9  -4676716.77045  24203161.698    24203162.1994   24203166.9344
        -0.000          -0.000
 -20735551.038 9 -15710786.37848  21714141.571    21714141.2434   21714145.6344
        -0.000          -0.000
  -5260428.322 8  -3235811.90345  24652800.352    24652800.3424   24652806.1204
        -0.000          -0.000
  -4239912.656 8  -3054905.12645  24352432.612    24352431.3134   24352437.9464
        -0.000          -0.000
 97  3  8  0 19 59.9990000  0  7  7  4  9 24 30  5 10               -0.000110362
    894596.262 9    956699.09446  23406832.008    23406831.4374   23406836.8774
        -0.000          -0.000
 -23132206.766 9 -17989591.68848  20923517.449    20923517.7904   20923521.6654
        -0.000          -0.000
 -21826384.086 9 -16727897.31548  21510051.303    21510051.2814   21510055.8744
        -0.000          -0.000
 -24569001.439 9 -19125346.08449  20375504.277    20375504.3424   20375509.3174
        -0.000          -0.000
  -6465755.980 9  -4760838.87245  24182618.486    24182618.8114   24182623.3914
        -0.000          -0.000
 -20818024.168 9 -15775051.14448  21698447.392    21698447.0974   21698451.5154
        -0.000          -0.000
  -4342957.651 8  -3135199.80745  24332823.641    24332822.2884   24332829.0864
        -0.000          -0.000
 97  3  8  0 20 29.9990000  0  7  7  4  9 24 30  5 10               -0.000116396
    950343.024 9   1000138.09446  23417440.369    23417439.7744   23417445.0994
        -0.000          -0.000
 -23089771.093 9 -17956524.92748  20931592.689    20931593.0104   20931596.9124
        -0.000          -0.000
 -21799780.316 9 -16707167.12048  21515113.927    21515113.8964   21515118.3984
        -0.000          -0.000
 -24602878.001 9 -19151743.39249  20369057.772    20369057.8154   20369062.7704
        -0.000          -0.000
  -6573698.242 9  -4844949.71345  24162077.613    24162077.9424   24162082.5094
        -0.000          -0.000
 -20900319.959 9 -15839177.71948  21682787.079    21682786.7494   21682791.1474
        -0.000          -0.000
  -4446113.007 9  -3215580.54245  24313193.907    24313192.4684   24313199.1414
        -0.000          -0.000
 97  3  8  0 20 59.9990000  0  7  7  4  9 24 30  5 10               -0.000122444
   1006120.731 9   1043601.24146  23428054.328    23428053.8564   23428059.2674
        -0.000          -0.000
 -23046875.558 9 -17923099.83848  20939755.395    20939755.7694   20939759.6724
        -0.000          -0.000
 -21772670.622 9 -16686042.70548  21520272.765    21520272.7254   21520277.2264
        -0.000          -0.000
 -24636213.870 9 -19177719.37549  20362714.131    20362714.1964   20362719.1394
        -0.000          -0.000
  -6681626.589 9  -4929049.66745  24141539.573    24141539.8904   24141544.3954
        -0.000          -0.000
 -20982422.860 9 -15903153.99348  21667163.470    21667163.0454   21667167.4904
        -0.000          -0.000
  -4549378.745 8  -3296047.29745  24293542.933    24293541.5314   24293548.1374
        -0.000          -0.000
 97  3  8  0 21 29.9990000  0  7  7  4  9 24 30  5 10               -0.000128516
   1061905.443 9   1087069.81146  23438669.597    23438669.4174   23438674.7354
        -0.000          -0.000
 -23003539.711 9 -17889331.64448  20948001.984    20948002.3104   20948006.2134
        -0.000          -0.000
 -21745068.034 9 -16664534.20948  21525525.375    21525525.3294   21525529.8564
        -0.000          -0.000
 -24669021.299 9 -19203283.58749  20356471.092    20356471.1184   20356476.0634
        -0.000          -0.000
  -6789563.197 9  -5013156.08945  24120999.782    24121000.1604   24121004.6314
        -0.000          -0.000
 -21064335.193 9 -15966981.77148  21651575.923    21651575.6464   21651580.1614
        -0.000          -0.000
  -4652756.759 8  -3376601.51845  24273870.377    24273869.2004   24273875.9284
        -0.000          -0.000
 97  3  8  0 21 59.9990000  0  7  7  4  9 24 30  5 10               -0.000134602
   1117700.853 9   1130546.73846  23449287.238    23449287.0964   23449292.3954
        -0.000          -0.000
 -22959761.119 9 -17855218.45848  20956332.770    20956333.1024   20956337.0024
        -0.000          -0.000
 -21716974.470 9 -16642643.14548  21530871.367    21530871.2984   21530875.8994
        -0.000          -0.000
 -24701301.745 9 -19228437.17149  20350328.310    20350328.3714   20350333.2954
        -0.000          -0.000
  -6897505.583 8  -5097266.97045  24100459.048    24100459.2404   24100463.7254
        -0.000          -0.000
 -21146053.874 9 -16030658.65148  21636025.400    21636025.1314   21636029.6134
        -0.000          -0.000
  -4756219.300 8  -3457221.61245  24254181.964    24254180.8804   24254187.7364
        -0.000          -0.000
 97  3  8  0 22 29.9990000  0  7  7  4  9 24 30  5 10               -0.000140686
   1173519.614 9   1174041.84746  23459909.335    23459909.0934   23459914.3954
        -0.000          -0.000
 -22915541.593 9 -17820761.68548  20964747.437    20964747.7874   20964751.6744
        -0.000          -0.000
 -21688391.278 9 -16620370.53948  21536310.542    21536310.4834   21536315.0534
        -0.000          -0.000
 -24733055.168 9 -19253180.08249  20344285.876    20344285.9144   20344290.7824
        -0.000          -0.000
  -7005450.211 9  -5181379.60545  24079917.727    24079917.9404   24079922.5484
        -0.000          -0.000
 -21227560.472 9 -16094170.27048  21620515.388    21620515.0094   21620519.4324
        -0.000          -0.000
  -4859725.247 8  -3537875.53945  24234485.464    24234484.3554   24234491.1204
        -0.000          -0.000
 97  3  8  0 22 59.9990000  0  7  7  4  9 24 30  5 10               -0.000146770
   1229345.981 9   1217542.88346  23470532.664    23470532.5184   23470537.7844
        -0.000          -0.000
 -22870899.095 9 -17785975.32148  20973242.651    20973242.9964   20973246.8804
        -0.000          -0.000
 -21659334.697 9 -16597729.06948  21541839.865    21541839.8144   21541844.4214
        -0.000          -0.000
 -24764282.377 9 -19277512.95549  20338343.574    20338343.5784   20338348.4734
        -0.000          -0.000
  -7113401.228 8  -5265497.21245  24059375.093    24059375.3114   24059380.1224
        -0.000          -0.000
 -21308846.082 9 -16157509.69248  21605047.313    21605046.9174   21605051.2504
        -0.000          -0.000
  -4963264.321 9  -3618555.27245  24214782.588    24214781.6164   24214788.3164
        -0.000          -0.000
 97  3  8  0 23 29.9990000  0  7  7  4  9 24 30  5 10               -0.000152842
   1285186.342 9   1261054.84246  23481158.672    23481158.4434   23481163.8154
        -0.000          -0.000
 -22825820.216 9 -17750848.92148  20981820.922    20981821.2574   20981825.1264
        -0.000          -0.000
 -21629801.420 9 -16574716.14548  21547459.948    21547459.8844   21547464.4174
        -0.000          -0.000
 -24794961.451 9 -19301418.71449  20332505.521    20332505.5594   20332510.4024
        -0.000          -0.000
  -7221336.349 8  -5349602.46845  24038835.455    24038835.9014   24038840.8874
        -0.000          -0.000
 -21389903.279 9 -16220671.13248  21589622.585    21589622.1864   21589626.5624
        -0.000          -0.000
  -5066808.832 9  -3699239.25745  24195078.717    24195077.7664   24195084.5334
        -0.000          -0.000
 97  3  8  0 23 59.9990000  0  7  7  4  9 24 30  5 10               -0.000158894
   1341049.600 9   1304584.61546  23491788.976    23491788.8334   23491794.3424
        -0.000          -0.000
 -22780297.855 9 -17715376.95448  20990483.589    20990483.8804   20990487.7544
        -0.000          -0.000
 -21599790.311 9 -16551330.88048  21553170.892    21553170.8504   21553175.3664
        -0.000          -0.000
 -24825095.511 9 -19324899.78549  20326771.166    20326771.2194   20326776.0914
        -0.000          -0.000
  -7329241.427 9  -5433684.30945  24018301.856    24018302.3064   24018307.1324
        -0.000          -0.000
 -21470730.475 9 -16283653.34548  21574241.506    21574241.2044   21574245.6074
        -0.000          -0.000
  -5170346.741 9  -3779918.11246  24175375.863    24175375.0264   24175381.8434
        -0.000          -0.000
 97  3  8  0 24 29.9990000  0  7  7  4  9 24 30  5 10               -0.000164932
   1396926.837 9   1348125.31246  23502422.121    23502421.8824   23502427.3674
        -0.000          -0.000
 -22734342.077 9 -17679567.26448  20999228.653    20999228.9764   20999232.8514
        -0.000          -0.000
 -21569297.039 9 -16527569.90448  21558973.624    21558973.5934   21558978.0544
        -0.000          -0.000
 -24854697.409 9 -19347966.18349  20321138.082    20321138.1194   20321143.0024
        -0.000          -0.000
  -7437120.567 9  -5517745.92345  23997773.130    23997773.5074   23997778.4704
        -0.000          -0.000
 -21551330.670 9 -16346458.67348  21558903.787    21558903.5024   21558907.8944
        -0.000          -0.000
  -5273894.054 9  -3860604.31546  24155671.602    24155670.7084   24155677.3794
        -0.000          -0.000
 97  3  8  0 24 59.9990000  0  7  7  4  9 24 30  5 10               -0.000170960
   1452821.288 9   1391679.39946  23513058.646    23513058.3084   23513063.7074
        -0.000          -0.000
 -22687938.558 9 -17643408.67748  21008058.916    21008059.2434   21008063.1214
        -0.000          -0.000
 -21538298.065 9 -16503414.87048  21564872.578    21564872.4904   21564877.0414
        -0.000          -0.000
 -24883771.304 9 -19370621.15049  20315605.511    20315605.5494   20315610.4314
        -0.000          -0.000
  -7544968.834 9  -5601783.48545  23977250.235    23977250.6754   23977255.5394
        -0.000          -0.000
 -21631711.911 9 -16409093.39948  21543607.719    21543607.4814   21543611.8224
        -0.000          -0.000
  -5377458.781 9  -3941304.06246  24135963.753    24135962.8314   24135969.7474
        -0.000          -0.000
 97  3  8  0 25 29.9990000  0  7  7  4  9 24 30  5 10               -0.000176982
   1508741.565 9   1435253.60746  23523700.325    23523699.6724   23523704.8994
        -0.000          -0.000
 -22641076.903 9 -17606893.10848  21016976.434    21016976.7204   21016980.6094
        -0.000          -0.000
 -21506783.565 9 -16478858.13948  21570869.495    21570869.4384   21570874.1544
        -0.000          -0.000
 -24912330.526 9 -19392875.07449  20310170.874    20310170.8914   20310175.7914
        -0.000          -0.000
  -7652792.312 9  -5685801.72945  23956732.123    23956732.6494   23956737.5134
        -0.000          -0.000
 -21711873.764 9 -16471557.17048  21528353.407    21528353.1914   21528357.5654
        -0.000          -0.000
  -5481051.049 9  -4022025.27246  24116250.850    24116249.8784   24116256.9764
        -0.000          -0.000
 97  3  8  0 25 59.9990000  0  7  7  4  9 24 30  5 10               -0.000183002
   1564683.060 9   1478844.37946  23534345.692    23534344.9224   23534350.1604
        -0.000          -0.000
 -22593782.038 9 -17570039.96348  21025976.339    21025976.6794   21025980.5404
        -0.000          -0.000
 -21474766.545 9 -16453909.83448  21576962.084    21576962.0604   21576966.7854
        -0.000          -0.000
 -24940398.882 9 -19414746.50549  20304829.652    20304829.6694   20304834.5664
        -0.000          -0.000
  -7760598.639 9  -5769806.61146  23936217.208    23936217.7714   23936222.7154
        -0.000          -0.000
 -21791818.506 9 -16533851.75148  21513140.386    21513140.1634   21513144.6094
        -0.000          -0.000
  -5584689.257 9  -4102782.29545  24096529.037    24096528.0914   24096534.9034
        -0.000          -0.000
 97  3  8  0 26 29.9990000  0  7  7  4  9 24 30  5 10               -0.000189025
   1620649.650 9   1522454.67846  23544995.695    23544995.0304   23545000.3624
        -0.000          -0.000
 -22546051.150 9 -17532847.06748  21035059.285    21035059.6014   21035063.4384
        -0.000          -0.000
 -21442244.413 9 -16428567.93048  21583150.934    21583150.9154   21583155.5584
        -0.000          -0.000
 -24967966.585 9 -19436227.81849  20299583.709    20299583.7214   20299588.6044
        -0.000          -0.000
  -7868387.754 9  -5853798.09245  23915705.694    23915706.1024   23915711.0534
        -0.000          -0.000
 -21871548.124 9 -16595978.70848  21497968.339    21497968.0974   21497972.5474
        -0.000          -0.000
  -5688377.692 8  -4183578.43645  24076797.678    24076796.7314   24076803.5044
        -0.000          -0.000
 97  3  8  0 26 59.9990000  0  7  7  4  9 24 30  5 10               -0.000195059
   1676633.800 9   1566078.67446  23555649.033    23555648.3554   23555653.7474
        -0.000          -0.000
 -22497888.404 9 -17495317.65348  21044224.299    21044224.6374   21044228.5834
        -0.000          -0.000
 -21409241.954 9 -16402851.74948  21589431.141    21589431.0784   21589435.7014
        -0.000          -0.000
 -24995018.001 9 -19457306.82549  20294435.995    20294436.0044   20294440.8864
        -0.000          -0.000
  -7976165.446 9  -5937780.68545  23895196.327    23895196.7204   23895201.4474
        -0.000          -0.000
 -21951060.527 9 -16657936.41348  21482837.699    21482837.4014   21482841.7914
        -0.000          -0.000
  -5792119.277 9  -4264416.00245  24057056.058    24057055.2674   24057062.0424
        -0.000          -0.000
 97  3  8  0 27 29.9990000  0  7  7  4  9 24 30  5 10               -0.000201096
   1732645.718 9   1609724.30146  23566307.550    23566307.1054   23566312.3404
        -0.000          -0.000
 -22449296.490 9 -17457453.83348  21053471.021    21053471.3754   21053475.3634
        -0.000          -0.000
 -21375776.306 9 -16376774.64348  21595799.423    21595799.4094   21595804.0634
        -0.000          -0.000
 -25021538.059 9 -19477971.79249  20289389.377    20289389.3484   20289394.2504
        -0.000          -0.000
  -8083908.123 9  -6021735.94446  23874693.405    23874693.8644   23874698.6114
        -0.000          -0.000
 -22030329.215 9 -16719704.21348  21467753.414    21467753.1034   21467757.4514
        -0.000          -0.000
  -5895903.736 9  -4345286.94845  24037306.430    24037305.6794   24037312.5454
        -0.000          -0.000
 97  3  8  0 27 59.9990000  0  7  7  4  9 24 30  5 10               -0.000207137
   1788667.380 9   1653377.53846  23576967.983    23576967.7544   23576973.0644
        -0.000          -0.000
 -22400301.698 9 -17419276.07448  21062794.512    21062794.8304   21062798.8004
        -0.000          -0.000
 -21341868.161 9 -16350352.73448  21602251.928    21602251.9224   21602256.5784
        -0.000          -0.000
 -25047536.992 9 -19498230.69049  20284441.904    20284441.8834   20284446.7434
        -0.000          -0.000
  -8191615.128 9  -6105663.43846  23854197.636    23854198.0124   23854202.5394
        -0.000          -0.000
 -22109375.400 9 -16781298.62548  21452711.466    21452711.1274   21452715.5054
        -0.000          -0.000
  -5999736.995 9  -4426195.95545  24017547.819    24017547.1184   24017553.6604
        -0.000          -0.000
 97  3  8  0 28 29.9990000  0  7  7  4  9 24 30  5 10               -0.000213186
   1844707.711 9   1697045.28146  23587632.235    23587631.9224   23587637.2464
        -0.000          -0.000
 -22350886.449 9 -17380770.68548  21072197.950    21072198.2514   21072202.2014
        -0.000          -0.000
 -21307506.650 9 -16323577.55248  21608790.795    21608790.7064   21608795.3694
        -0.000          -0.000
 -25072994.926 9 -19518068.02849  20279597.354    20279597.3674   20279602.2404
        -0.000          -0.000
  -8299291.168 9  -6189566.79146  23833707.633    23833708.0874   23833712.4734
        -0.000          -0.000
 -22188197.321 9 -16842718.28648  21437712.188    21437711.8214   21437716.1754
        -0.000          -0.000
  -6103604.239 9  -4507131.39545  23997782.588    23997781.8324   23997788.5264
        -0.000          -0.000
 97  3  8  0 28 59.9990000  0  7  7  4  9 24 30  5 10               -0.000219233
   1900783.279 9   1740740.50846  23598303.188    23598302.7364   23598308.1264
        -0.000          -0.000
 -22301050.419 9 -17341937.41648  21081681.412    21081681.6764   21081685.6124
        -0.000          -0.000
 -21272688.600 9 -16296446.62248  21615416.396    21615416.3694   21615420.9954
        -0.000          -0.000
 -25097917.165 9 -19537487.93849  20274854.831    20274854.8104   20274859.7034
        -0.000          -0.000
  -8406923.212 9  -6273435.86546  23813226.025    23813226.4264   23813230.8184
        -0.000          -0.000
 -22266785.198 9 -16903955.58248  21422757.413    21422757.0144   21422761.3514
        -0.000          -0.000
  -6207497.145 9  -4588086.86045  23978012.495    23978011.7584   23978018.1974
        -0.000          -0.000
 97  3  8  0 29 29.9990000  0  7  7  4  9 24 30  5 10               -0.000225265
   1956903.447 9   1784470.49846  23608982.642    23608982.1914   23608987.5034
        -0.000          -0.000
 -22250793.356 9 -17302776.06948  21091244.980    21091245.2654   21091249.2234
        -0.000          -0.000
 -21237389.287 9 -16268940.69048  21622133.561    21622133.5584   21622138.2054
        -0.000          -0.000
 -25122311.273 9 -19556496.31949  20270212.754    20270212.7744   20270217.6604
        -0.000          -0.000
  -8514494.851 9  -6357257.85545  23792755.682    23792756.0684   23792760.4984
        -0.000          -0.000
 -22345138.201 9 -16965009.85448  21407847.189    21407846.8864   21407851.2914
        -0.000          -0.000
  -6311402.962 9  -4669052.35745  23958239.771    23958239.0074   23958245.5634
        -0.000          -0.000
 97  3  8  0 29 59.9990000  0  7  7  4  9 24 30  5 10               -0.000231295
   2013048.803 9   1828220.09646  23619666.798    23619666.3754   23619671.6184
        -0.000          -0.000
 -22200125.997 9 -17263295.01548  21100886.643    21100886.9504   21100890.9854
        -0.000          -0.000
 -21201605.179 9 -16241056.99248  21628943.136    21628943.1044   21628947.7484
        -0.000          -0.000
 -25146179.705 9 -19575095.08349  20265670.739    20265670.7484   20265675.5974
        -0.000          -0.000
  -8622029.624 9  -6441051.14545  23772292.435    23772292.7544   23772297.1444
        -0.000          -0.000
 -22423266.900 9 -17025889.34548  21392979.802    21392979.4684   21392983.8454
        -0.000          -0.000
  -6415324.270 8  -4750029.94845  23938464.241    23938463.4774   23938469.9514
        -0.000          -0.000
 97  3  8  0 30 29.9990000  0  7  7  4  9 24 30  5 10               -0.000237344
   2069190.747 9   1871967.04546  23630350.325    23630349.7704   23630355.0814
        -0.000          -0.000
 -22149080.049 9 -17223518.95548  21110600.377    21110600.6854   21110604.6854
        -0.000          -0.000
 -21165365.484 9 -16212818.29448  21635839.276    21635839.2304   21635843.8734
        -0.000          -0.000
 -25169541.159 9 -19593298.79949  20261225.218    20261225.2164   20261230.0434
        -0.000          -0.000
  -8729566.007 9  -6524845.69445  23751828.737    23751829.2314   23751833.5244
        -0.000          -0.000
 -22501184.204 9 -17086604.11548  21378152.716    21378152.3034   21378156.6514
        -0.000          -0.000
  -6519275.355 8  -4831030.70145  23918682.954    23918681.9124   23918688.6494
        -0.000          -0.000
 97  3  8  0 30 59.9990000  0  7  7  4  9 24 30  5 10               -0.000243402
   2125326.748 9   1915709.35346  23641032.582    23641032.0254   23641037.5064
        -0.000          -0.000
 -22097652.308 9 -17183445.40048  21120386.805    21120387.1004   21120391.0384
        -0.000          -0.000
 -21128660.141 9 -16184216.74948  21642824.045    21642824.0654   21642828.6944
        -0.000          -0.000
 -25192391.975 9 -19611104.61749  20256876.831    20256876.8164   20256881.6624
        -0.000          -0.000
  -8837084.410 9  -6608626.21946  23731368.488    23731369.0154   23731373.4424
        -0.000          -0.000
 -22578854.786 9 -17147126.63748  21363372.429    21363372.0654   21363376.3724
        -0.000          -0.000
  -6623236.696 8  -4912039.44745  23898899.568    23898898.5564   23898905.5814
        -0.000          -0.000
 97  3  8  0 31 29.9990000  0  7  7  4  9 24 30  5 10               -0.000249463
   2181451.331 9   1959442.78646  23651712.840    23651712.1604   23651717.7304
        -0.000          -0.000
 -22045831.238 9 -17143065.34548  21130248.009    21130248.3334   21130252.1894
        -0.000          -0.000
 -21091478.127 9 -16155243.76948  21649899.614    21649899.6064   21649904.2154
        -0.000          -0.000
 -25214708.255 9 -19628493.91549  20252630.133    20252630.1364   20252634.9974
        -0.000          -0.000
  -8944575.698 9  -6692385.61346  23710913.615    23710914.0864   23710918.4404
        -0.000          -0.000
 -22656250.308 9 -17207434.82648  21348644.574    21348644.1914   21348648.4684
        -0.000          -0.000
  -6727172.640 9  -4993028.43945  23879121.232    23879120.2094   23879127.1974
        -0.000          -0.000
 97  3  8  0 31 59.9990000  0  7  7  4  9 24 30  5 10               -0.000255530
   2237570.131 9   2003171.69146  23662391.748    23662391.2274   23662396.7054
        -0.000          -0.000
 -21993616.424 9 -17102378.47648  21140184.141    21140184.4954   21140188.3224
        -0.000          -0.000
 -21053840.889 9 -16125916.08048  21657061.836    21657061.8084   21657066.4004
        -0.000          -0.000
 -25236490.727 9 -19645467.25349  20248485.012    20248485.0264   20248489.9164
        -0.000          -0.000
  -9052044.453 9  -6776127.43446  23690462.823    23690463.3034   23690467.8594
        -0.000          -0.000
 -22733367.453 9 -17267526.08948  21333969.612    21333969.2404   21333973.5884
        -0.000          -0.000
  -6831080.768 9  -5073995.74745  23859348.019    23859347.1174   23859354.0564
        -0.000          -0.000
 97  3  8  0 32 29.9990000  0  7  7  4  9 24 30  5 10               -0.000261599
   2293691.797 9   2046902.82846  23673071.097    23673070.8444   23673076.3664
        -0.000          -0.000
 -21941001.280 9 -17061379.66548  21150196.397    21150196.7644   21150200.6494
        -0.000          -0.000
 -21015756.903 9 -16096240.27148  21664308.960    21664308.9614   21664313.6464
        -0.000          -0.000
 -25257747.122 9 -19662030.66649  20244440.050    20244440.0664   20244444.9594
        -0.000          -0.000
  -9159477.454 9  -6859841.39946  23670018.894    23670019.3074   23670024.0334
        -0.000          -0.000
 -22810216.967 9 -17327408.81348  21319345.581    21319345.2544   21319349.6304
        -0.000          -0.000
  -6934964.792 9  -5154944.27445  23839579.424    23839578.5734   23839585.4264
        -0.000          -0.000
 97  3  8  0 32 59.9990000  0  7  7  4  9 24 30  5 10               -0.000267668
   2349815.959 9   2090635.91446  23683751.292    23683751.0204   23683756.5184
        -0.000          -0.000
 -21887980.826 9 -17020065.03848  21160285.887    21160286.2294   21160290.1644
        -0.000          -0.000
 -20977233.326 9 -16066221.92048  21671639.822    21671639.8364   21671644.5144
        -0.000          -0.000
 -25278489.740 9 -19678193.73349  20240492.851    20240492.8684   20240497.7654
        -0.000          -0.000
  -9266853.541 9  -6943511.02046  23649585.841    23649586.3724   23649591.1164
        -0.000          -0.000
 -22886801.881 9 -17387085.34748  21304771.982    21304771.5844   21304775.9934
        -0.000          -0.000
  -7038839.287 9  -5235885.35446  23819812.640    23819811.8574   23819818.5464
        -0.000          -0.000
 97  3  8  0 33 29.9990000  0  7  7  4  9 24 30  5 10               -0.000273729
   2405960.748 9   2134385.09446  23694435.530    23694434.9254   23694440.4984
        -0.000          -0.000
 -21834562.427 9 -16978440.31848  21170451.101    21170451.4314   21170455.3654
        -0.000          -0.000
 -20938278.784 9 -16035867.75448  21679052.681    21679052.6644   21679057.4074
        -0.000          -0.000
 -25298722.786 9 -19693959.72949  20236642.664    20236642.6744   20236647.5324
        -0.000          -0.000
  -9374154.143 9  -7027121.82746  23629167.411    23629167.7684   23629172.3954
        -0.000          -0.000
 -22963150.456 9 -17446577.73448  21290243.311    21290242.9214   21290247.2874
        -0.000          -0.000
  -7142716.218 9  -5316828.35746  23800045.487    23800044.7424   23800051.4774
        -0.000          -0.000
 97  3  8  0 33 59.9990000  0  7  7  4  9 24 30  5 10               -0.000279786
   2462134.043 9   2178156.46945  23705124.929    23705124.1944   23705129.9994
        -0.000          -0.000
 -21780745.492 9 -16936505.03848  21180692.177    21180692.5014   21180696.3394
        -0.000          -0.000
 -20898890.497 9 -16005175.61348  21686548.050    21686548.0454   21686552.7504
        -0.000          -0.000
 -25318454.523 9 -19709335.09749  20232887.850    20232887.8734   20232892.7114
        -0.000          -0.000
  -9481384.503 9  -7110677.92046  23608762.341    23608762.6134   23608767.0194
        -0.000          -0.000
 -23039277.560 9 -17505897.54548  21275756.742    21275756.4004   21275760.6894
        -0.000          -0.000
  -7246607.161 9  -5397782.28546  23780275.536    23780274.8784   23780281.6984
        -0.000          -0.000
 97  3  8  0 34 29.9990000  0  7  7  4  9 24 30  5 10               -0.000285833
   2518350.265 9   2221961.28245  23715822.672    23715821.8184   23715827.5804
        -0.000          -0.000
 -21726513.373 9 -16894246.23848  21191012.302    21191012.5874   21191016.3734
        -0.000          -0.000
 -20859032.117 9 -15974117.16348  21694132.841    21694132.7954   21694137.5244
        -0.000          -0.000
 -25337658.127 9 -19724298.93049  20229233.562    20229233.5734   20229238.4004
        -0.000          -0.000
  -9588540.728 9  -7194176.24846  23588371.085    23588371.3604   23588375.6444
        -0.000          -0.000
 -23115156.460 9 -17565023.94848  21261317.551    21261317.1264   21261321.4124
        -0.000          -0.000
  -7350483.971 9  -5478725.22446  23760508.359    23760507.6934   23760514.5924
        -0.000          -0.000
 97  3  8  0 34 59.9990000  0  7  7  4  9 24 30  5 10               -0.000291880
   2574597.099 9   2265789.94346  23726526.275    23726525.4984   23726531.1394
        -0.000          -0.000
 -21671877.822 9 -16851673.09148  21201409.076    21201409.3604   21201413.2164
        -0.000          -0.000
 -20818711.921 9 -15942698.84848  21701805.450    21701805.4534   21701810.1524
        -0.000          -0.000
 -25356339.260 9 -19738855.64449  20225678.651    20225678.6444   20225683.4654
        -0.000          -0.000
  -9695641.588 9  -7277631.41846  23567990.334    23567990.6604   23567995.0124
        -0.000          -0.000
 -23190785.637 9 -17623955.76348  21246925.758    21246925.3704   21246929.6814
        -0.000          -0.000
  -7454350.221 9  -5559659.92946  23740743.034    23740742.4964   23740749.3694
        -0.000          -0.000
 97  3  8  0 35 29.9990000  0  7  7  4  9 24 30  5 10               -0.000297943
   2630864.899 9   2309634.96545  23737233.594    23737232.9264   23737238.5704
        -0.000          -0.000
 -21616850.282 9 -16808794.49448  21211880.356    21211880.6814   21211884.6144
        -0.000          -0.000
 -20777928.525 9 -15910919.60248  21709566.290    21709566.2704   21709570.9514
        -0.000          -0.000
 -25374495.617 9 -19753003.44549  20222223.580    20222223.6064   20222228.4354
        -0.000          -0.000
  -9802720.304 9  -7361069.32146  23547613.808    23547614.0164   23547618.6734
        -0.000          -0.000
 -23266174.900 9 -17682700.62848  21232579.574    21232579.2114   21232583.5624
        -0.000          -0.000
  -7558206.197 9  -5640586.61246  23720979.678    23720979.2584   23720986.1504
        -0.000          -0.000
 97  3  8  0 35 59.9990000  0  7  7  4  9 24 30  5 10               -0.000304034
   2687144.663 9   2353489.30545  23747943.136    23747942.5424   23747948.3774
        -0.000          -0.000
 -21561424.994 9 -16765605.96248  21222427.464    21222427.7894   21222431.6804
        -0.000          -0.000
 -20736678.562 9 -15878776.79048  21717416.009    21717415.9464   21717420.5854
        -0.000          -0.000
 -25392113.933 9 -19766731.98649  20218870.919    20218870.9174   20218875.7444
        -0.000          -0.000
  -9909795.431 9  -7444504.43546  23527238.095    23527238.2324   23527243.0274
        -0.000          -0.000
 -23341296.824 9 -17741237.18148  21218284.297    21218283.9784   21218288.3334
        -0.000          -0.000
  -7662041.570 9  -5721497.24746  23701220.376    23701219.9874   23701226.8394
        -0.000          -0.000
 97  3  8  0 36 29.9990000  0  7  7  4  9 24 30  5 10               -0.000310136
   2743448.274 9   2397362.22745  23758657.362    23758656.7744   23758662.5234
        -0.000          -0.000
 -21505600.437 9 -16722106.30848  21233050.630    21233050.9054   21233054.7354
        -0.000          -0.000
 -20694964.272 9 -15846272.17948  21725353.963    21725353.9304   21725358.5754
        -0.000          -0.000
 -25409178.114 9 -19780028.73949  20215623.706    20215623.7154   20215628.5294
        -0.000          -0.000
 -10016823.909 9  -7527903.21146  23506871.142    23506871.3024   23506876.0944
        -0.000          -0.000
 -23416127.766 9 -17799546.99448  21204044.477    21204044.1164   21204048.4164
        -0.000          -0.000
  -7765844.537 9  -5802382.63446  23681467.334    23681466.9614   23681473.6604
        -0.000          -0.000
 97  3  8  0 36 59.9990000  0  7  7  4  9 24 30  5 10               -0.000316246
   2799759.122 9   2441240.81745  23769372.895    23769372.2464   23769378.1124
        -0.000          -0.000
 -21449413.935 9 -16678324.61448  21243742.559    21243742.8234   21243746.6644
        -0.000          -0.000
 -20652823.355 9 -15813435.11948  21733373.196    21733373.1194   21733377.7334
        -0.000          -0.000
 -25425723.900 9 -19792921.54949  20212475.138    20212475.1354   20212479.9364
        -0.000          -0.000
 -10123787.950 9  -7611251.77746  23486516.486    23486516.7524   23486521.4374
        -0.000          -0.000
 -23490686.816 9 -17857644.94248  21189856.360    21189856.0084   21189860.3254
        -0.000          -0.000
  -7869637.386 9  -5883260.15846  23661716.267    23661715.8554   23661722.3774
        -0.000          -0.000
 97  3  8  0 37 29.9990000  0  7  7  4  9 24 30  5 10               -0.000322351
   2856083.033 9   2485129.55245  23780091.030    23780090.4854   23780096.2584
        -0.000          -0.000
 -21392882.017 9 -16634273.78148  21254500.246    21254500.4764   21254504.3884
        -0.000          -0.000
 -20610263.745 9 -15780271.81448  21741472.042    21741471.9824   21741476.5384
        -0.000          -0.000
 -25441755.907 9 -19805414.00549  20209424.355    20209424.3474   20209429.1874
        -0.000          -0.000
 -10230678.977 9  -7694543.43946  23466175.878    23466176.1244   23466180.6914
        -0.000          -0.000
 -23564963.652 9 -17915522.98148  21175721.894    21175721.5734   21175725.9084
        -0.000          -0.000
  -7973399.130 9  -5964113.46946  23641971.182    23641970.6944   23641977.0604
        -0.000          -0.000
 97  3  8  0 37 59.9990000  0  7  7  4  9 24 30  5 10               -0.000328438
   2912426.339 9   2529033.39045  23790812.883    23790812.1044   23790817.9144
        -0.000          -0.000
 -21336003.613 9 -16589952.94748  21265323.770    21265324.0624   21265328.0424
        -0.000          -0.000
 -20567302.846 9 -15746795.81148  21749647.314    21749647.2134   21749651.7134
        -0.000          -0.000
 -25457282.440 9 -19817512.59249  20206469.744    20206469.7424   20206474.5294
        -0.000          -0.000
 -10337470.582 9  -7777757.63146  23445854.188    23445854.3834   23445858.9924
        -0.000          -0.000
 -23638943.428 9 -17973169.55148  21161644.128    21161643.7394   21161647.9834
        -0.000          -0.000
  -8077115.785 9  -6044931.61146  23622234.577    23622234.0184   23622240.3884
        -0.000          -0.000
 97  3  8  0 38 29.9990000  0  7  7  4  9 24 30  5 10               -0.000334499
   2968796.015 9   2572957.78645  23801539.638    23801538.9774   23801544.6974
        -0.000          -0.000
 -21278784.362 9 -16545366.52348  21276212.297    21276212.5744   21276216.5044
        -0.000          -0.000
 -20523940.591 9 -15713007.06248  21757898.834    21757898.7604   21757903.3024
        -0.000          -0.000
 -25472315.650 9 -19829226.76749  20203609.010    20203609.0134   20203613.7854
        -0.000          -0.000
 -10444157.182 9  -7860890.01246  23425552.378    23425552.6274   23425557.2494
        -0.000          -0.000
 -23712626.106 9 -18030584.61548  21147622.780    21147622.4164   21147626.6444
        -0.000          -0.000
  -8180775.480 9  -6125705.34946  23602508.840    23602508.3134   23602514.5624
        -0.000          -0.000
 97  3  8  0 38 59.9990000  0  7  7  4  9 24 30  5 10               -0.000340535
   3025204.808 9   2616912.66145  23812274.236    23812273.3774   23812279.0004
        -0.000          -0.000
 -21221212.267 9 -16500505.15448  21287167.935    21287168.1804   21287172.0394
        -0.000          -0.000
 -20480168.301 9 -15678898.81048  21766228.486    21766228.4144   21766232.9644
        -0.000          -0.000
 -25486854.369 9 -19840555.63049  20200842.401    20200842.3984   20200847.1334
        -0.000          -0.000
 -10550764.949 9  -7943960.95546  23405265.655    23405265.8514   23405270.4924
        -0.000          -0.000
 -23786004.473 9 -18087762.55048  21133659.348    21133658.9324   21133663.1954
        -0.000          -0.000
  -8284358.921 9  -6206419.63946  23582797.690    23582797.0594   23582803.2994
        -0.000          -0.000
 97  3  8  0 39 29.9990000  0  7  7  4  9 24 30  5 10               -0.000346574
   3081633.975 9   2660883.41545  23823012.246    23823011.5534   23823017.2344
        -0.000          -0.000
 -21163284.733 9 -16455366.81848  21298191.205    21298191.4494   21298195.2404
        -0.000          -0.000
 -20435995.647 9 -15644478.58648  21774634.194    21774634.1444   21774638.7794
        -0.000          -0.000
 -25500898.949 9 -19851499.44449  20198169.805    20198169.7884   20198174.5614
        -0.000          -0.000
 -10657322.951 9  -8026993.11746  23384988.423    23384988.5194   23384993.0754
        -0.000          -0.000
 -23859094.888 9 -18144716.11248  21119750.682    21119750.3014   21119754.6034
        -0.000          -0.000
  -8387884.827 9  -6287089.12646  23563097.497    23563096.8374   23563102.8924
        -0.000          -0.000
 97  3  8  0 39 59.9990000  0  7  7  4  9 24 30  5 10               -0.000352617
   3138083.112 9   2704869.75545  23833754.006    23833753.5654   23833759.0624
        -0.000          -0.000
 -21105002.144 9 -16409951.81148  21309282.033    21309282.2514   21309286.0024
        -0.000          -0.000
 -20391410.091 9 -15609736.62348  21783118.633    21783118.5114   21783123.1594
        -0.000          -0.000
 -25514449.828 9 -19862058.56049  20195591.100    20195591.1034   20195595.8834
        -0.000          -0.000
 -10763822.086 9  -8109979.41746  23364722.447    23364722.3994   23364726.8974
        -0.000          -0.000
 -23931901.144 9 -18201448.25048  21105896.135    21105895.7024   21105900.0254
        -0.000          -0.000
  -8491369.437 9  -6367726.43646  23543405.305    23543404.2804   23543410.5374
        -0.000          -0.000
 97  3  8  0 40 29.9990000  0  7  7  4  9 24 30  5 10               -0.000358648
   3194577.357 8   2748891.23245  23844504.451    23844504.0134   23844509.4844
        -0.000          -0.000
 -21046354.200 9 -16364252.12048  21320442.303    21320442.5654   21320446.3444
        -0.000          -0.000
 -20346374.812 9 -15574644.21948  21791688.428    21791688.3384   21791693.0504
        -0.000          -0.000
 -25527472.419 9 -19872206.02249  20193112.973    20193112.9994   20193117.7594
        -0.000          -0.000
 -10870237.112 9  -8192900.18246  23344472.327    23344472.2784   23344476.6904
        -0.000          -0.000
 -24004410.065 9 -18257948.69248  21092098.117    21092097.6954   21092102.0374
        -0.000          -0.000
  -8594786.727 9  -6448311.28446  23523725.688    23523724.5164   23523730.7744
        -0.000          -0.000
 97  3  8  0 40 59.9990000  0  7  7  4  9 24 30  5 10               -0.000364690
   3251079.740 8   2792919.05345  23855256.366    23855256.0894   23855261.6274
        -0.000          -0.000
 -20987362.992 9 -16318284.95348  21331667.949    21331668.2234   21331672.0914
        -0.000          -0.000
 -20300924.752 9 -15539228.61348  21800337.264    21800337.2504   21800341.9984
        -0.000          -0.000
 -25539987.451 9 -19881957.98149  20190731.484    20190731.4684   20190736.1924
        -0.000          -0.000
 -10976578.159 9  -8275763.27346  23324236.393    23324236.2574   23324240.7024
        -0.000          -0.000
 -24076657.106 9 -18314245.08148  21078349.942    21078349.5424   21078353.8604
        -0.000          -0.000
  -8698176.462 9  -6528874.63946  23504050.880    23504049.8264   23504056.2574
        -0.000          -0.000
 97  3  8  0 41 29.9990000  0  7  7  4  9 24 30  5 10               -0.000370727
   3307601.320 9   2836961.79445  23866011.928    23866011.6844   23866017.2344
        -0.000          -0.000
 -20928011.293 9 -16272036.87948  21342962.245    21342962.4854   21342966.3584
        -0.000          -0.000
 -20255037.293 9 -15503472.18448  21809069.504    21809069.4354   21809074.1564
        -0.000          -0.000
 -25551974.979 9 -19891298.90249  20188450.332    20188450.3574   20188455.0624
        -0.000          -0.000
 -11082804.534 9  -8358537.04246  23304022.095    23304022.1024   23304026.4964
        -0.000          -0.000
 -24148619.894 9 -18370319.97348  21064655.922    21064655.5124   21064659.7634
        -0.000          -0.000
  -8801528.783 9  -6609408.86246  23484383.211    23484382.3614   23484388.9634
        -0.000          -0.000
 97  3  8  0 41 59.9990000  0  7  7  4  9 24 30  5 10               -0.000376759
   3364147.016 9   2881023.35545  23876772.378    23876772.1144   23876777.5014
        -0.000          -0.000
 -20868300.909 9 -16225509.30848  21354324.672    21354324.9884   21354328.8764
        -0.000          -0.000
 -20208722.416 9 -15467382.69848  21817882.894    21817882.8644   21817887.6214
        -0.000          -0.000
 -25563449.988 9 -19900240.45949  20186266.756    20186266.7294   20186271.4314
        -0.000          -0.000
 -11188926.035 9  -8441229.09946  23283827.753    23283827.8124   23283832.2054
        -0.000          -0.000
 -24220287.378 9 -18426164.76048  21051018.084    21051017.7144   21051021.9474
        -0.000          -0.000
  -8904837.036 9  -6689908.74146  23464723.944    23464723.3504   23464729.9494
        -0.000          -0.000
 97  3  8  0 42 29.9990000  0  7  7  4  9 24 30  5 10               -0.000382791
   3420717.317 8   2925104.09045  23887537.655    23887537.1334   23887542.4794
        -0.000          -0.000
 -20808212.830 9 -16178687.43548  21365759.044    21365759.3134   21365763.2164
        -0.000          -0.000
 -20161996.764 9 -15430973.12148  21826774.525    21826774.4594   21826779.2794
        -0.000          -0.000
 -25574412.000 9 -19908782.27249  20184180.636    20184180.6334   20184185.3734
        -0.000          -0.000
 -11294951.739 9  -8523846.50546  23263651.699    23263651.8094   23263656.2214
        -0.000          -0.000
 -24291659.118 9 -18481779.08948  21037436.549    21037436.0964   21037440.3104
        -0.000          -0.000
  -9008090.935 9  -6770366.27246  23445075.319    23445074.7134   23445081.4594
        -0.000          -0.000
 97  3  8  0 42 59.9990000  0  7  7  4  9 24 30  5 10               -0.000388844
   3477300.464 9   2969194.83345  23898305.138    23898304.6084   23898310.0634
        -0.000          -0.000
 -20747749.694 9 -16131573.30648  21377264.806    21377265.0684   21377268.9614
        -0.000          -0.000
 -20114880.307 9 -15394259.02448  21835740.429    21835740.3824   21835745.2824
        -0.000          -0.000
 -25584882.950 9 -19916941.44449  20182188.117    20182188.0924   20182192.7944
        -0.000          -0.000
 -11400916.104 9  -8606416.08946  23243487.101    23243487.2994   23243491.8004
        -0.000          -0.000
 -24362735.321 9 -18537163.13748  21023911.105    21023910.7104   21023914.8984
        -0.000          -0.000
  -9111306.838 9  -6850794.19846  23425434.060    23425433.3704   23425439.9464
        -0.000          -0.000
 97  3  8  0 43 29.9990000  0  7  7  4  9 24 30  5 10               -0.000394915
   3533898.067 9   3013296.83045  23909075.574    23909074.8624   23909080.2404
        -0.000          -0.000
 -20686930.563 9 -16084181.78448  21388838.315    21388838.5554   21388842.4394
        -0.000          -0.000
 -20067370.114 9 -15357238.11248  21844781.349    21844781.2834   21844786.1824
        -0.000          -0.000
 -25594871.369 9 -19924724.61649  20180287.349    20180287.3384   20180292.0564
        -0.000          -0.000
 -11506835.592 9  -8688950.72846  23223331.389    23223331.4324   23223335.9004
        -0.000          -0.000
 -24433511.095 9 -18592313.08048  21010442.876    21010442.4934   21010446.6994
        -0.000          -0.000
  -9214470.231 9  -6931181.19046  23405802.818    23405802.1004   23405808.5374
        -0.000          -0.000
 97  3  8  0 43 59.9990000  0  7  7  4  9 24 30  5 10               -0.000401008
   3590512.686 9   3057412.10145  23919848.983    23919848.2244   23919853.7164
        -0.000          -0.000
 -20625766.045 9 -16036521.12348  21400477.536    21400477.8084   21400481.6844
        -0.000          -0.000
 -20019457.745 9 -15319903.82448  21853898.779    21853898.7304   21853903.6074
        -0.000          -0.000
 -25604362.670 9 -19932120.42449  20178481.243    20178481.2384   20178485.9384
        -0.000          -0.000
 -11612714.940 9  -8771454.06646  23203183.139    23203183.1914   23203187.6604
        -0.000          -0.000
 -24503984.012 9 -18647227.02748  20997032.292    20997031.9074   20997036.1314
        -0.000          -0.000
  -9317565.441 9  -7011515.06946  23386184.569    23386183.9224   23386190.0394
        -0.000          -0.000
 97  3  8  0 44 29.9990000  0  7  7  4  9 24 30  5 10               -0.000407122
   3647133.769 9   3101532.42145  23930623.404    23930622.7154   23930628.4524
        -0.000          -0.000
 -20564281.302 9 -15988610.93048  21412177.718    21412178.0284   21412181.8934
        -0.000          -0.000
 -19971140.824 9 -15282254.29448  21863093.297    21863093.1964   21863098.0294
        -0.000          -0.000
 -25613343.674 9 -19939118.59749  20176772.254    20176772.2314   20176776.9004
        -0.000          -0.000
 -11718544.385 9  -8853918.53146  23183044.240    23183044.3934   23183048.8954
        -0.000          -0.000
 -24574165.983 9 -18701914.26948  20983677.067    20983676.7334   20983680.9384
        -0.000          -0.000
  -9420587.309 9  -7091791.79446  23366580.282    23366579.5434   23366585.5694
        -0.000          -0.000
 97  3  8  0 44 59.9990000  0  7  7  4  9 24 30  5 10               -0.000413240
   3703768.740 8   3145663.53345  23941400.596    23941399.9434   23941405.4874
        -0.000          -0.000
 -20502491.242 9 -15940462.83648  21423935.998    21423936.2684   21423940.1864
        -0.000          -0.000
 -19922401.402 9 -15244275.54948  21872368.131    21872368.0654   21872372.8574
        -0.000          -0.000
 -25621801.227 9 -19945708.88549  20175162.847    20175162.8154   20175167.4564
        -0.000          -0.000
 -11824294.543 9  -8936321.21646  23162920.497    23162920.7234   23162925.2374
        -0.000          -0.000
 -24644038.833 9 -18756360.63148  20970380.789    20970380.3884   20970384.5634
        -0.000          -0.000
  -9523519.458 9  -7171998.60746  23346992.971    23346992.1844   23346998.1354
        -0.000          -0.000
 97  3  8  0 45 29.9990000  0  7  7  4  9 24 30  5 10               -0.000419343
   3760415.268 9   3189803.65845  23952180.306    23952179.5014   23952185.0594
        -0.000          -0.000
 -20440407.486 9 -15892085.88648  21435750.084    21435750.3894   21435754.2834
        -0.000          -0.000
 -19873237.720 9 -15205966.21348  21881723.730    21881723.6484   21881728.3724
        -0.000          -0.000
 -25629747.017 9 -19951900.40049  20173650.835    20173650.7924   20173655.4874
        -0.000          -0.000
 -11929934.459 9  -9018637.99546  23142817.914    23142818.0604   23142822.5094
        -0.000          -0.000
 -24713608.078 9 -18810570.42048  20957142.161    20957141.7334   20957145.9104
        -0.000          -0.000
  -9626351.520 9  -7252127.42546  23327424.574    23327423.7514   23327429.7954
        -0.000          -0.000
 97  3  8  0 45 59.9990000  0  7  7  4  9 24 30  5 10               -0.000425429
   3817080.411 8   3233958.29245  23962963.290    23962962.4174   23962968.1094
        -0.000          -0.000
 -20378017.881 9 -15843470.61648  21447622.540    21447622.7904   21447626.6524
        -0.000          -0.000
 -19823659.051 9 -15167333.51448  21891158.286    21891158.1774   21891162.9014
        -0.000          -0.000
 -25637173.393 9 -19957687.17649  20172237.613    20172237.5714   20172242.2964
        -0.000          -0.000
 -12035443.839 9  -9100853.06846  23122740.052    23122740.2414   23122744.7454
        -0.000          -0.000
 -24782868.011 9 -18864539.19248  20943962.419    20943962.0274   20943966.1484
        -0.000          -0.000
  -9729075.235 9  -7332171.83946  23307876.960    23307876.1034   23307882.0064
        -0.000          -0.000
 97  3  8  0 46 29.9990000  0  7  7  4  9 24 30  5 10               -0.000431488
   3873778.538 9   3278138.62645  23973752.679    23973751.7374   23973757.6094
        -0.000          -0.000
 -20315301.884 9 -15794601.00248  21459556.967    21459557.2484   21459561.1014
        -0.000          -0.000
 -19773678.489 9 -15128387.64648  21900669.267    21900669.1524   21900673.8334
        -0.000          -0.000
 -25644097.982 9 -19963082.94649  20170919.877    20170919.8534   20170924.5504
        -0.000          -0.000
 -12140816.021 9  -9182961.19846  23102688.215    23102688.4614   23102693.1634
        -0.000          -0.000
 -24851813.358 9 -18918262.82148  20930842.556    20930842.1404   20930846.3114
        -0.000          -0.000
  -9831678.132 9  -7412122.09946  23288352.312    23288351.3614   23288357.2944
        -0.000          -0.000
 97  3  8  0 46 59.9990000  0  7  7  4  9 24 30  5 10               -0.000437522
   3930506.044 8   3322341.84845  23984547.637    23984546.8434   23984552.5534
        -0.000          -0.000
 -20252236.336 9 -15745459.02748  21471557.893    21471558.2304   21471562.0604
        -0.000          -0.000
 -19723300.043 9 -15089131.74148  21910256.013    21910255.9354   21910260.6444
        -0.000          -0.000
 -25650542.223 9 -19968104.42649  20169693.591    20169693.5324   20169698.1834
        -0.000          -0.000
 -12246057.721 9  -9264967.66046  23082661.355    23082661.6854   23082666.4074
        -0.000          -0.000
 -24920443.837 9 -18971741.10848  20917782.580    20917782.2014   20917786.4144
        -0.000          -0.000
  -9934162.497 9  -7491979.97946  23268850.000    23268849.1214   23268855.1274
        -0.000          -0.000
 97  3  8  0 47 29.9990000  0  7  7  4  9 24 30  5 10               -0.000443552
   3987254.507 9   3366561.42145  23995346.272    23995345.8584   23995351.4664
        -0.000          -0.000
 -20188821.503 9 -15696044.87548  21483625.325    21483625.6454   21483629.4474
        -0.000          -0.000
 -19672546.499 9 -15049583.55048  21919914.193    21919914.0694   21919918.7514
        -0.000          -0.000
 -25656508.125 9 -19972753.16849  20168558.296    20168558.2384   20168562.9154
        -0.000          -0.000
 -12351194.122 9  -9346892.08046  23062654.731    23062654.9964   23062659.5564
        -0.000          -0.000
 -24988771.130 9 -19024983.14248  20904780.293    20904779.9324   20904784.1454
        -0.000          -0.000
 -10036546.532 9  -7571759.67846  23249366.775    23249365.9594   23249372.0724
        -0.000          -0.000
 97  3  8  0 47 59.9990000  0  7  7  4  9 24 30  5 10               -0.000449592
   4044037.059 9   3410807.52545  24006151.693    24006151.1174   24006156.8174
        -0.000          -0.000
 -20125044.015 9 -15646348.13448  21495761.920    21495762.1634   21495765.8654
        -0.000          -0.000
 -19621417.354 9 -15009742.68248  21929643.656    21929643.6044   21929648.3464
        -0.000          -0.000
 -25661968.004 9 -19977007.61349  20167519.339    20167519.2874   20167523.9774
        -0.000          -0.000
 -12456240.050 9  -9428746.03046  23042665.181    23042665.4754   23042669.8544
        -0.000          -0.000
 -25056790.823 9 -19077985.48848  20891836.609    20891836.2234   20891840.4174
        -0.000          -0.000
 -10138826.898 9  -7651458.61646  23229903.311    23229902.6034   23229908.7934
        -0.000          -0.000
 97  3  8  0 48 29.9990000  0  7  7  4  9 24 30  5 10               -0.000455658
   4100834.586 9   3455065.31545  24016960.016    24016959.4154   24016965.1874
        -0.000          -0.000
 -20060928.468 9 -15596387.96648  21507962.838    21507963.0074   21507966.6714
        -0.000          -0.000
 -19569921.635 9 -14969616.17248  21939442.936    21939442.9104   21939447.7114
        -0.000          -0.000
 -25666943.419 9 -19980884.55149  20166572.524    20166572.4924   20166577.1664
        -0.000          -0.000
 -12561220.523 9  -9510548.95946  23022688.187    23022688.3854   23022692.6764
        -0.000          -0.000
 -25124524.554 9 -19130765.00548  20878947.386    20878946.9264   20878951.1174
        -0.000          -0.000
 -10241036.974 9  -7731102.79446  23210453.202    23210452.6674   23210458.8574
        -0.000          -0.000
 97  3  8  0 48 59.9990000  0  7  7  4  9 24 30  5 10               -0.000461745
   4157650.470 8   3499337.41445  24027771.896    24027771.2604   24027776.8494
        -0.000          -0.000
 -19996482.680 9 -15546170.47748  21520226.344    21520226.5974   21520230.3194
        -0.000          -0.000
 -19518040.003 9 -14929188.95548  21949315.767    21949315.7254   21949320.4744
        -0.000          -0.000
 -25671400.688 9 -19984357.74249  20165724.351    20165724.2904   20165728.9584
        -0.000          -0.000
 -12666104.922 9  -9592276.99646  23002729.436    23002729.4914   23002733.8994
        -0.000          -0.000
 -25191943.573 9 -19183299.29948  20866117.973    20866117.5374   20866121.6774
        -0.000          -0.000
 -10343174.795 9  -7810690.66746  23191016.924    23191016.3844   23191022.6814
        -0.000          -0.000
 97  3  8  0 49 29.9990000  0  7  7  4  9 24 30  5 10               -0.000467842
   4214506.755 8   3543640.97645  24038591.192    24038590.5604   24038596.1244
        -0.000          -0.000
 -19931726.119 9 -15495710.83048  21532548.997    21532549.2964   21532553.0994
        -0.000          -0.000
 -19465770.934 9 -14888459.83948  21959262.320    21959262.2294   21959266.9184
        -0.000          -0.000
 -25675325.433 9 -19987415.97949  20164977.516    20164977.4374   20164982.0794
        -0.000          -0.000
 -12770872.033 9  -9673913.65746  22982792.913    22982792.9934   22982797.3384
        -0.000          -0.000
 -25259028.955 9 -19235573.61748  20853352.064    20853351.5954   20853355.7714
        -0.000          -0.000
 -10445232.121 9  -7890215.80146  23171595.795    23171595.3294   23171601.7464
        -0.000          -0.000
 97  3  8  0 49 59.9990000  0  7  7  4  9 24 30  5 10               -0.000473927
   4271408.575 8   3587980.04745  24049419.286    24049418.7144   24049424.2834
        -0.000          -0.000
 -19866664.016 9 -15445013.09248  21544929.940    21544930.2254   21544934.0374
        -0.000          -0.000
 -19413105.538 9 -14847421.89348  21969284.225    21969284.1114   21969288.8304
        -0.000          -0.000
 -25678733.047 9 -19990071.25549  20164329.086    20164329.0254   20164333.6474
        -0.000          -0.000
 -12875501.598 9  -9755443.15346  22962882.672    22962882.7474   22962886.9204
        -0.000          -0.000
 -25325770.303 9 -19287579.85048  20840651.542    20840651.1184   20840655.2954
        -0.000          -0.000
 -10547188.845 9  -7969662.54746  23152194.040    23152193.5804   23152200.0544
        -0.000          -0.000
 97  3  8  0 50 29.9990000  0  7  7  4  9 24 30  5 10               -0.000479992
   4328350.889 8   3632350.64345  24060255.082    24060254.5424   24060259.9914
        -0.000          -0.000
 -19801305.526 9 -15394084.41048  21557367.356    21557367.5754   21557371.3744
        -0.000          -0.000
 -19360042.887 9 -14806074.39448  21979381.745    21979381.6214   21979386.3524
        -0.000          -0.000
 -25681630.349 9 -19992328.88749  20163777.716    20163777.6474   20163782.2964
        -0.000          -0.000
 -12979974.188 9  -9836850.35746  22943002.356    22943002.3794   22943006.2844
        -0.000          -0.000
 -25392132.989 9 -19339291.02748  20828023.114    20828022.6804   20828026.8204
        -0.000          -0.000
 -10649025.630 9  -8049015.83646  23132815.168    23132814.5464   23132821.0714
        -0.000          -0.000
 97  3  8  0 50 59.9990000  0  7  7  4  9 24 30  5 10               -0.000486036
   4385330.995 8   3676750.71845  24071097.966    24071097.6654   24071102.9274
        -0.000          -0.000
 -19735657.398 9 -15342930.02948  21569859.764    21569859.9674   21569863.7474
        -0.000          -0.000
 -19306605.241 9 -14764434.69447  21989550.561    21989550.4514   21989555.2114
        -0.000          -0.000
 -25684040.259 9 -19994206.73449  20163319.097    20163319.0454   20163323.6714
        -0.000          -0.000
 -13084297.852 9  -9918141.48646  22923150.230    22923150.2134   22923154.0404
        -0.000          -0.000
 -25458112.100 9 -19390703.32148  20815467.721    20815467.2924   20815471.3964
        -0.000          -0.000
 -10750723.458 9  -8128260.85946  23113462.762    23113462.1134   23113468.6094
        -0.000          -0.000
 97  3  8  0 51 29.9990000  0  7  7  4  9 24 30  5 10               -0.000492053
   4442360.662 8   3721189.39945  24081950.380    24081949.8944   24081955.4874
        -0.000          -0.000
 -19669710.078 9 -15291542.51448  21582409.021    21582409.2994   21582413.0894
        -0.000          -0.000
 -19252798.615 9 -14722507.47947  21999789.559    21999789.4534   21999794.3224
        -0.000          -0.000
 -25685975.591 9 -19995714.78049  20162950.824    20162950.7604   20162955.3424
        -0.000          -0.000
 -13188484.022 9  -9999325.47946  22903324.320    22903324.2994   22903328.0984
        -0.000          -0.000
 -25523717.513 9 -19441824.41648  20802983.438    20802983.0154   20802987.0724
        -0.000          -0.000
 -10852262.853 9  -8207382.44046  23094140.451    23094139.8494   23094146.3044
        -0.000          -0.000
 97  3  8  0 51 59.9990000  0  7  7  4  9 24 30  5 10               -0.000498063
   4499413.646 8   3765646.24045  24092807.083    24092806.5564   24092812.1394
        -0.000          -0.000
 -19603466.655 9 -15239924.26648  21595014.723    21595015.0624   21595018.7914
        -0.000          -0.000
 -19198634.673 9 -14680301.82747  22010096.582    22010096.5174   22010101.4644
        -0.000          -0.000
 -25687448.369 9 -19996862.39549  20162670.578    20162670.5144   20162675.1364
        -0.000          -0.000
 -13292557.635 9 -10080421.76146  22883519.766    22883519.7294   22883523.5494
        -0.000          -0.000
 -25588969.326 9 -19492669.97448  20790566.408    20790565.9814   20790570.0324
        -0.000          -0.000
 -10953650.212 9  -8286385.52646  23074847.245    23074846.5074   23074853.0224
        -0.000          -0.000
 97  3  8  0 52 29.9990000  0  7  7  4  9 24 30  5 10               -0.000504066
   4556494.747 8   3810125.01245  24103669.464    24103668.7684   24103674.5274
        -0.000          -0.000
 -19536905.307 9 -15188058.28448  21607681.115    21607681.3534   21607685.0594
        -0.000          -0.000
 -19144101.661 9 -14637808.60247  22020473.911    22020473.8234   22020478.7804
        -0.000          -0.000
 -25688441.437 9 -19997636.21049  20162481.581    20162481.4954   20162486.1694
        -0.000          -0.000
 -13396507.946 9 -10161421.97046  22863738.563    22863738.6034   22863742.5094
        -0.000          -0.000
 -25653867.163 9 -19543239.71249  20778216.729    20778216.3304   20778220.3764
        -0.000          -0.000
 -11054879.826 9  -8365265.71846  23055584.010    23055583.2124   23055589.6034
        -0.000          -0.000
 97  3  8  0 52 59.9990000  0  7  7  4  9 24 30  5 10               -0.000510074
   4613593.865 8   3854617.80945  24114535.060    24114534.4464   24114540.1644
        -0.000          -0.000
 -19470034.971 9 -15135951.52948  21620406.169    21620406.3644   21620410.0754
        -0.000          -0.000
 -19089214.224 9 -14595039.20448  22030918.789    22030918.6924   22030923.6414
        -0.000          -0.000
 -25688959.000 9 -19998039.49949  20162383.043    20162382.9934   20162387.6734
        -0.000          -0.000
 -13500342.605 9 -10242332.03546  22843979.395    22843979.4424   22843983.4704
        -0.000          -0.000
 -25718448.677 9 -19593562.96849  20765927.292    20765926.8684   20765930.9514
        -0.000          -0.000
 -11155979.761 9  -8444044.84146  23036345.375    23036344.5204   23036350.8204
        -0.000          -0.000
 97  3  8  0 53 29.9990000  0  7  7  4  9 24 30  5 10               -0.000516088
   4670703.726 8   3899118.96345  24125402.768    24125402.0714   24125407.5834
        -0.000          -0.000
 -19402862.593 9 -15083609.42548  21633188.562    21633188.7354   21633192.5534
        -0.000          -0.000
 -19033965.744 9 -14551988.47047  22041432.328    22041432.2044   22041437.0814
        -0.000          -0.000
 -25688972.807 9 -19998050.25249  20162380.430    20162380.3554   20162385.0224
        -0.000          -0.000
 -13604038.793 9 -10323134.24346  22824246.658    22824246.7134   22824250.5954
        -0.000          -0.000
 -25782711.705 9 -19643638.04549  20753698.417    20753698.0144   20753702.1414
        -0.000          -0.000
 -11256951.423 9  -8522724.01146  23017131.138    23017130.2424   23017136.4044
        -0.000          -0.000
 97  3  8  0 53 59.9990000  0  7  7  4  9 24 30  5 10               -0.000522105
   4727825.358 9   3943629.31745  24136272.759    24136272.1264   24136277.6644
        -0.000          -0.000
 -19335390.786 9 -15031034.00548  21646027.995    21646028.1574   21646032.0764
        -0.000          -0.000
 -18978347.569 9 -14508649.65947  22052016.137    22052016.0274   22052020.9274
        -0.000          -0.000
 -25688468.275 9 -19997657.10449  20162476.436    20162476.3384   20162481.0094
        -0.000          -0.000
 -13707578.693 9 -10403814.68046  22804543.514    22804543.7134   22804547.4554
        -0.000          -0.000
 -25846640.288 9 -19693452.51649  20741533.197    20741532.8264   20741536.9474
        -0.000          -0.000
 -11357791.669 9  -8601300.79346  22997941.937    22997941.0274   22997947.0734
        -0.000          -0.000
 97  3  8  0 54 29.9990000  0  7  7  4  9 24 30  5 10               -0.000528118
   4784969.043 8   3988156.84345  24147146.952    24147146.3184   24147151.6794
        -0.000          -0.000
 -19267627.036 9 -14978231.08548  21658922.948    21658923.1604   21658927.0884
        -0.000          -0.000
 -18922369.067 9 -14465030.07547  22062668.493    22062668.3534   22062673.3154
        -0.000          -0.000
 -25687456.811 9 -19996868.94449  20162668.909    20162668.8454   20162673.5184
        -0.000          -0.000
 -13810950.478 9 -10484364.08946  22784872.338    22784872.5814   22784876.4254
        -0.000          -0.000
 -25910224.560 9 -19742998.69749  20729433.555    20729433.1424   20729437.2144
        -0.000          -0.000
 -11458499.458 9  -8679774.34946  22978777.926    22978777.0244   22978783.0274
        -0.000          -0.000
 97  3  8  0 54 59.9990000  0  7  7  4  9 24 30  5 10               -0.000534133
   4842143.180 8   4032708.09145  24158026.589    24158026.1464   24158031.6124
        -0.000          -0.000
 -19199597.995 9 -14925221.44448  21671868.532    21671868.6884   21671872.5534
        -0.000          -0.000
 -18866051.426 9 -14421146.22247  22073385.365    22073385.2334   22073390.1664
        -0.000          -0.000
 -25685940.746 9 -19995687.58749  20162957.426    20162957.3554   20162962.0134
        -0.000          -0.000
 -13914170.063 9 -10564794.88547  22765230.266    22765230.4894   22765234.4254
        -0.000          -0.000
 -25973453.992 9 -19792268.37649  20717401.384    20717401.0024   20717405.0394
        -0.000          -0.000
 -11559073.218 9  -8758143.47446  22959639.435    22959638.5534   22959644.4164
        -0.000          -0.000
 97  3  8  0 55 29.9990000  0  7  7  4  9 24 30  5 10               -0.000540143
   4899352.795 8   4077287.01345  24168913.232    24168912.6414   24168918.3244
        -0.000          -0.000
 -19131306.587 9 -14872007.36148  21684863.954    21684864.1614   21684867.9724
        -0.000          -0.000
 -18809394.810 9 -14376998.23647  22084166.666    22084166.5604   22084171.4834
        -0.000          -0.000
 -25683941.530 9 -19994129.75049  20163337.861    20163337.7924   20163342.4344
        -0.000          -0.000
 -14017247.170 9 -10645114.68246  22745615.353    22745615.5294   22745619.3924
        -0.000          -0.000
 -26036325.964 9 -19841259.51049  20705437.282    20705436.8544   20705440.8784
        -0.000          -0.000
 -11659499.364 9  -8836397.58046  22940528.883    22940528.0534   22940533.9164
        -0.000          -0.000
 97  3  8  0 55 59.9990000  0  8  7  4  9 24 30  6  5 10            -0.000546136
   4956607.250 8   4121900.84545  24179808.730    24179807.8974   24179813.3754
        -0.000          -0.000
 -19062741.304 9 -14818579.87348  21697911.517    21697911.6984   21697915.5024
        -0.000          -0.000
 -18752397.413 9 -14332584.70147  22095012.921    22095012.8214   22095017.7444
        -0.000          -0.000
 -25681471.685 9 -19992205.18749  20163807.858    20163807.8064   20163812.4284
        -0.000          -0.000
 -14120199.817 9 -10725337.51446  22726024.123    22726024.2604   22726028.0134
        -0.000          -0.000
  -3831086.48718  -2779562.53855  24701552.538    24701552.3115   24701558.6295
        -0.000          -0.000
 -26098834.984 9 -19889967.83049  20693542.217    20693541.8194   20693545.8444
        -0.000          -0.000
 -11759780.595 9  -8914538.75046  22921445.809    22921445.0744   22921451.0944
        -0.000          -0.000
 97  3  8  0 56 29.9990000  0  8  7  4  9 24 30  6  5 10            -0.000552165
   5013914.291 8   4166555.65445  24190713.988    24190713.3894   24190718.5894
        -0.000          -0.000
 -18993903.574 9 -14764940.08948  21711010.921    21711011.0804   21711014.8504
        -0.000          -0.000
 -18695071.953 9 -14287915.54647  22105921.491    22105921.4194   22105926.4684
        -0.000          -0.000
 -25678532.264 9 -19989914.72049  20164367.288    20164367.2094   20164371.7984
        -0.000          -0.000
 -14223026.801 9 -10805462.39346  22706456.759    22706456.8474   22706460.6934
        -0.000          -0.000
  -3908981.024 8  -2840259.52945  24686729.754    24686729.6134   24686735.6064
        -0.000          -0.000
 -26160978.627 9 -19938391.43849  20681716.738    20681716.2864   20681720.3304
        -0.000          -0.000
 -11859905.642 9  -8992558.20246  22902392.472    22902391.8144   22902398.0684
        -0.000          -0.000
 97  3  8  0 56 59.9990000  0  8  7  4  9 24 30  6  5 10            -0.000558193
   5071266.797 8   4211245.89745  24201627.451    24201626.8934   24201632.5924
        -0.000          -0.000
 -18924803.839 9 -14711096.13748  21724160.177    21724160.3474   21724164.1264
        -0.000          -0.000
 -18637425.527 9 -14242996.27947  22116891.277    22116891.1454   22116896.2964
        -0.000          -0.000
 -25675117.007 9 -19987253.47549  20165017.146    20165017.0594   20165021.6754
        -0.000          -0.000
 -14325729.589 9 -10885490.51147  22686912.906    22686913.0474   22686917.0594
        -0.000          -0.000
  -3986858.379 8  -2900943.10445  24671910.211    24671909.8034   24671915.9914
        -0.000          -0.000
 -26222760.911 9 -19986533.47049  20669959.913    20669959.4554   20669963.4784
        -0.000          -0.000
 -11959870.399 9  -9070452.77446  22883369.714    22883369.0634   22883375.2694
        -0.000          -0.000
 97  3  8  0 57 29.9990000  0  8  7  4  9 24 30  6  5 10            -0.000564217
   5128656.410 8   4255965.04645  24212548.280    24212547.4334   24212553.3474
        -0.000          -0.000
 -18855432.580 9 -14657040.61648  21737361.012    21737361.2384   21737365.0834
        -0.000          -0.000
 -18579456.942 9 -14197825.98147  22127922.366    22127922.2384   22127927.4454
        -0.000          -0.000
 -25671229.713 9 -19984224.40849  20165756.801    20165756.7374   20165761.3624
        -0.000          -0.000
 -14428287.602 9 -10965405.79747  22667396.666    22667396.8584   22667401.0244
        -0.000          -0.000
  -4064704.709 8  -2961602.52845  24657096.395    24657096.1974   24657102.4184
        -0.000          -0.000
 -26284182.507 9 -20034394.44549  20658271.733    20658271.2964   20658275.3324
        -0.000          -0.000
 -12059684.072 9  -9148229.61746  22864375.755    22864375.1034   22864381.3124
        -0.000          -0.000
 97  3  8  0 57 59.9990000  0  8  7  4  9 24 30  6  5 10            -0.000570237
   5186078.353 8   4300709.38245  24223475.495    24223474.7074   24223480.3484
        -0.000          -0.000
 -18785792.549 9 -14602775.66748  21750613.004    21750613.2544   21750617.1584
        -0.000          -0.000
 -18521174.387 9 -14152411.01747  22139013.217    22139013.1104   22139018.3174
        -0.000          -0.000
 -25666859.080 9 -19980818.71449  20166588.500    20166588.4514   20166593.0714
        -0.000          -0.000
 -14530686.045 9 -11045196.77347  22647910.670    22647911.0374   22647915.2394
        -0.000          -0.000
  -4142505.605 8  -3022226.56045  24642291.617    24642291.1364   24642297.4044
        -0.000          -0.000
 -26345225.620 9 -20081960.50549  20646655.608    20646655.2084   20646659.2074
        -0.000          -0.000
 -12159341.252 9  -9225884.51546  22845411.561    22845410.9014   22845417.0734
        -0.000          -0.000
 97  3  8  0 58 29.9990000  0  8  7  4  9 24 30  6  5 10            -0.000576260
   5243517.077 8   4345466.84945  24234405.646    24234405.0124   24234410.4534
        -0.000          -0.000
 -18715894.589 9 -14548309.73448  21763914.190    21763914.4154   21763918.3174
        -0.000          -0.000
 -18462592.813 9 -14106763.05847  22150161.062    22150160.9034   22150166.1024
        -0.000          -0.000
 -25662021.810 9 -19977049.40849  20167509.019    20167508.9544   20167513.5984
        -0.000          -0.000
 -14632927.311 9 -11124865.27647  22628454.799    22628455.1164   22628459.2964
        -0.000          -0.000
  -4220273.910 8  -3082825.17545  24627492.647    24627492.5414   24627498.3554
        -0.000          -0.000
 -26405907.100 9 -20129244.76849  20635108.373    20635107.9224   20635111.9424
        -0.000          -0.000
 -12258846.594 9  -9303421.10246  22826476.341    22826475.6004   22826481.5814
        -0.000          -0.000
 97  3  8  0 58 59.9990000  0  7  4  9 24 30  6  5 10               -0.000582313
 -18645719.043 9 -14493627.49548  21777268.183    21777268.3914   21777272.2314
        -0.000          -0.000
 -18403696.799 9 -14060870.09647  22161368.586    22161368.4144   22161373.6184
        -0.000          -0.000
 -25656726.089 9 -19972922.86749  20168516.726    20168516.6564   20168521.3134
        -0.000          -0.000
 -14735007.366 9 -11204408.12247  22609029.672    22609029.9054   22609034.0424
        -0.000          -0.000
  -4298008.482 8  -3143397.47345  24612700.151    24612700.2634   24612705.9144
        -0.000          -0.000
 -26466224.486 9 -20176245.32149  20623630.374    20623629.9384   20623633.9214
        -0.000          -0.000
 -12358209.935 9  -9380847.03546  22807568.049    22807567.3314   22807573.2714
        -0.000          -0.000
 97  3  8  0 59 29.9990000  0  7  4  9 24 30  6  5 10               -0.000588345
 -18575271.205 9 -14438733.08448  21790673.959    21790674.1704   21790677.9394
        -0.000          -0.000
 -18344490.646 9 -14014735.45047  22172635.133    22172635.0044   22172640.1374
        -0.000          -0.000
 -25650997.081 9 -19968458.70149  20169606.872    20169606.8024   20169611.4974
        -0.000          -0.000
 -14836949.958 9 -11283843.88147  22589630.624    22589630.8444   22589634.9414
        -0.000          -0.000
  -4375720.361 8  -3203952.10745  24597912.229    24597912.3104   24597917.9164
        -0.000          -0.000
 -26526202.043 9 -20222981.07349  20612217.077    20612216.6194   20612220.5544
        -0.000          -0.000
 -12457449.310 9  -9458176.37446  22788683.389    22788682.5934   22788688.6544
        -0.000          -0.000
 97  3  8  0 59 59.9990000  0  7  4  9 24 30  6  5 10               -0.000594368
 -18504545.128 9 -14383621.85348  21804132.697    21804132.9034   21804136.6504
        -0.000          -0.000
 -18284954.365 9 -13968343.57547  22183964.552    22183964.3914   22183969.5674
        -0.000          -0.000
 -25644822.736 9 -19963647.51749  20170781.790    20170781.7284   20170786.4544
        -0.000          -0.000
 -14938754.157 9 -11363171.80647  22570257.918    22570258.1764   22570262.2484
        -0.000          -0.000
  -4453407.891 8  -3264487.78845  24583128.640    24583128.6054   24583134.4644
        -0.000          -0.000
 -26585826.771 9 -20269441.89449  20600870.855    20600870.4044   20600874.3264
        -0.000          -0.000
 -12556525.694 9  -9535378.70846  22769829.833    22769828.9654   22769834.9824
        -0.000          -0.000
 97  3  8  1  0 29.9990000  0  7  4  9 24 30  6  5 10               -0.000600393
 -18433543.424 9 -14328295.86148  21817643.895    21817644.0594   21817647.8504
        -0.000          -0.000
 -18225077.227 9 -13921686.08147  22195358.840    22195358.7234   22195363.7284
        -0.000          -0.000
 -25638191.966 9 -19958480.67949  20172043.590    20172043.5354   20172048.2414
        -0.000          -0.000
 -15040412.331 9 -11442385.93647  22550913.042    22550913.3084   22550917.3634
        -0.000          -0.000
  -4531091.003 8  -3325019.95645  24568345.688    24568345.6384   24568351.7434
        -0.000          -0.000
 -26645100.505 9 -20315629.21449  20589591.419    20589590.9734   20589594.8854
        -0.000          -0.000
 -12655435.662 9  -9612451.35746  22751007.799    22751007.0064   22751013.0514
        -0.000          -0.000
 97  3  8  1  0 59.9990000  0  7  4  9 24 30  6  5 10               -0.000606431
 -18362292.766 9 -14272775.86547  21831202.389    21831202.6034   21831206.4154
        -0.000          -0.000
 -18164870.758 9 -13874771.98047  22206815.862    22206815.6814   22206820.6564
        -0.000          -0.000
 -25631102.227 9 -19952956.19949  20173392.731    20173392.6814   20173397.3674
        -0.000          -0.000
 -15141922.308 9 -11521484.58747  22531596.401    22531596.6004   22531600.6504
        -0.000          -0.000
  -4608777.970 8  -3385555.16345  24553562.439    24553562.4124   24553568.4744
        -0.000          -0.000
 -26704018.168 9 -20361539.07549  20578379.756    20578379.3054   20578383.2374
        -0.000          -0.000
 -12754184.207 9  -9689398.24247  22732216.650    22732215.8644   22732221.7724
        -0.000          -0.000
 97  3  8  1  1 29.9990000  0  7  4  9 24 30  6  5 10               -0.000612486
 -18290817.791 9 -14217081.08147  21844803.601    21844803.8674   21844807.6984
        -0.000          -0.000
 -18104333.552 9 -13827600.16147  22218335.693    22218335.5664   22218340.5364
        -0.000          -0.000
 -25623542.907 9 -19947065.81549  20174831.264    20174831.1854   20174835.8544
        -0.000          -0.000
 -15243273.135 9 -11600459.21647  22512309.916    22512310.0824   22512314.2474
        -0.000          -0.000
  -4686467.443 8  -3446092.33745  24538778.547    24538778.5484   24538784.6494
        -0.000          -0.000
 -26762573.492 9 -20407166.58949  20567237.011    20567236.5584   20567240.5634
        -0.000          -0.000
 -12852748.705 9  -9766201.69046  22713460.335    22713459.5794   22713465.5744
        -0.000          -0.000
 97  3  8  1  1 59.9990000  0  7  4  9 24 30  6  5 10               -0.000618566
 -18219140.130 9 -14161228.35847  21858443.425    21858443.7044   21858447.5144
        -0.000          -0.000
 -18043484.946 9 -13780185.69347  22229914.875    22229914.7204   22229919.6704
        -0.000          -0.000
 -25615525.874 9 -19940818.76749  20176356.818    20176356.7494   20176361.4744
        -0.000          -0.000
 -15344462.797 9 -11679308.27647  22493054.096    22493054.3624   22493058.5654
        -0.000          -0.000
  -4764158.924 9  -3506631.07246  24523994.215    24523994.2524   24524000.4774
        -0.000          -0.000
 -26820759.850 9 -20452506.60249  20556164.511    20556164.0544   20556168.0994
        -0.000          -0.000
 -12951135.824 9  -9842866.93746  22694737.844    22694737.1204   22694743.1154
        -0.000          -0.000
 97  3  8  1  2 29.9990000  0  7  4  9 24 30  6  5 10               -0.000624663
 -18147262.657 9 -14105219.93748  21872121.308    21872121.5554   21872125.3514
        -0.000          -0.000
 -17982339.641 9 -13732540.02547  22241550.457    22241550.2754   22241555.2824
        -0.000          -0.000
 -25607070.120 9 -19934229.86149  20177965.916    20177965.8354   20177970.5324
        -0.000          -0.000
 -15445488.887 9 -11758029.88147  22473829.451    22473829.6724   22473833.9144
        -0.000          -0.000
  -4841838.883 9  -3567160.82546  24509212.339    24509212.4254   24509218.4194
        -0.000          -0.000
 -26878589.519 9 -20497568.67549  20545159.914    20545159.4424   20545163.4474
        -0.000          -0.000
 -13049365.816 9  -9919409.74246  22676045.305    22676044.5304   22676050.5284
        -0.000          -0.000
 97  3  8  1  2 59.9990000  0  7  4  9 24 30  6  5 10               -0.000630755
 -18075174.244 9 -14049047.14847  21885839.310    21885839.5394   21885843.3194
        -0.000          -0.000
 -17920894.141 9 -13684660.44747  22253243.168    22253243.0004   22253248.0174
        -0.000          -0.000
 -25598184.669 9 -19927306.12449  20179656.762    20179656.6744   20179661.3624
        -0.000          -0.000
 -15546353.440 9 -11836625.59447  22454635.507    22454635.7094   22454640.0304
        -0.000          -0.000
  -4919472.191 9  -3627654.21546  24494438.965    24494439.0934   24494445.2044
        -0.000          -0.000
 -26936052.277 9 -20542344.84149  20534225.037    20534224.5924   20534228.6174
        -0.000          -0.000
 -13147417.467 9  -9995813.58847  22657386.728    22657385.9084   22657391.8434
        -0.000          -0.000
 97  3  8  1  3 29.9990000  0  7  4  9 24 30  6  5 10               -0.000636830
 -18002864.652 9 -13992702.01347  21899599.461    21899599.6434   21899603.3834
        -0.000          -0.000
 -17859142.731 9 -13636542.49547  22264993.946    22264993.8364   22264998.9014
        -0.000          -0.000
 -25588869.920 9 -19920047.87049  20181429.338    20181429.2274   20181433.8924
        -0.000          -0.000
 -15647047.402 9 -11915088.39347  22435474.105    22435474.2844   22435478.5694
        -0.000          -0.000
  -4997056.884 9  -3688109.75346  24479675.104    24479675.2244   24479681.3014
        -0.000          -0.000
 -26993138.552 9 -20586827.63749  20523361.893    20523361.4134   20523365.5214
        -0.000          -0.000
 -13245268.814 9 -10072061.34547  22638766.080    22638765.2994   22638771.2394
        -0.000          -0.000
 97  3  8  1  3 59.9990000  0  7  4  9 24 30  6  5 10               -0.000642878
 -17930298.538 9 -13936156.99347  21913408.412    21913408.5234   21913412.2904
        -0.000          -0.000
 -17797092.490 9 -13588191.67947  22276801.744    22276801.6314   22276806.7214
        -0.000          -0.000
 -25579109.234 9 -19912442.13349  20183286.662    20183286.6024   20183291.2644
        -0.000          -0.000
 -15747552.673 9 -11993404.15347  22416348.512    22416348.6954   22416352.9704
        -0.000          -0.000
  -5074591.873 9  -3748526.57246  24464920.918    24464920.8274   24464926.8934
        -0.000          -0.000
 -27049820.517 9 -20630995.39449  20512575.620    20512575.1604   20512579.2774
        -0.000          -0.000
 -13342901.716 9 -10148138.89647  22620187.166    22620186.3614   22620192.1784
        -0.000          -0.000
 97  3  8  1  4 29.9990000  0  7  4  9 24 30  6  5 10               -0.000648922
 -17857496.604 9 -13879428.21947  21927262.237    21927262.3024   21927266.0704
        -0.000          -0.000
 -17734766.054 9 -13539625.65747  22288662.117    22288661.9304   22288667.1364
        -0.000          -0.000
 -25568900.497 9 -19904487.26349  20185229.324    20185229.2474   20185233.8994
        -0.000          -0.000
 -15847884.732 9 -12071584.95047  22397256.037    22397256.1534   22397260.3924
        -0.000          -0.000
  -5152111.104 9  -3808931.10146  24450169.585    24450169.4204   24450175.3784
        -0.000          -0.000
 -27106107.898 9 -20674855.68349  20501864.450    20501864.0054   20501868.1314
        -0.000          -0.000
 -13440324.399 9 -10224052.62347  22601648.281    22601647.4354   22601653.2474
        -0.000          -0.000
 97  3  8  1  4 59.9990000  0  7  4  9 24 30  6  5 10               -0.000654982
 -17784466.963 9 -13822522.00747  21941159.162    21941159.3624   21941163.1504
        -0.000          -0.000
 -17672165.238 9 -13490845.82147  22300574.679    22300574.5534   22300579.6754
        -0.000          -0.000
 -25558221.992 9 -19896166.34549  20187261.407    20187261.3204   20187265.9454
        -0.000          -0.000
 -15948028.215 9 -12149618.81247  22378199.313    22378199.5254   22378203.6864
        -0.000          -0.000
  -5229635.755 9  -3869339.86546  24435417.132    24435416.9134   24435422.7734
        -0.000          -0.000
 -27161974.018 9 -20718387.71949  20491233.456    20491233.0244   20491237.0874
        -0.000          -0.000
 -13537525.355 9 -10299793.57047  22583151.605    22583150.7304   22583156.4824
        -0.000          -0.000
 97  3  8  1  5 29.9990000  0  7  4  9 24 30  6  5 10               -0.000661073
 -17711215.613 9 -13765443.02747  21955098.317    21955098.5824   21955102.3794
        -0.000          -0.000
 -17609303.561 9 -13441862.72047  22312536.896    22312536.7724   22312541.9334
        -0.000          -0.000
 -25547071.036 9 -19887477.28049  20189383.339    20189383.2314   20189387.8964
        -0.000          -0.000
 -16047977.253 9 -12227501.15347  22359179.673    22359179.8924   22359183.9364
        -0.000          -0.000
  -5307187.650 9  -3929769.86345  24420659.104    24420659.0204   24420665.0914
        -0.000          -0.000
 -27217415.091 9 -20761588.55249  20480683.390    20480682.9584   20480687.0174
        -0.000          -0.000
 -13634516.188 9 -10375370.82947  22564694.906    22564694.0774   22564699.5284
        -0.000          -0.000
 97  3  8  1  5 59.9990000  0  7  4  9 24 30  6  5 10               -0.000667181
 -17637717.351 9 -13708171.66247  21969084.610    21969084.8294   21969088.6044
        -0.000          -0.000
 -17546155.570 9 -13392656.52447  22324553.686    22324553.5334   22324558.6594
        -0.000          -0.000
 -25535414.804 9 -19878394.49649  20191601.399    20191601.3254   20191606.0034
        -0.000          -0.000
 -16147711.562 9 -12305216.17247  22340200.815    22340201.0714   22340205.0304
        -0.000          -0.000
  -5384734.974 9  -3990196.28845  24405902.300    24405902.2364   24405908.2134
        -0.000          -0.000
 -27272411.793 9 -20804443.11749  20470217.861    20470217.4434   20470221.5214
        -0.000          -0.000
 -13731277.564 9 -10450769.26247  22546281.728    22546280.9154   22546286.4064
        -0.000          -0.000
 97  3  8  1  6 29.9990000  0  7  4  9 24 30  6  5 10               -0.000673327
 -17564022.213 9 -13650746.88347  21983108.395    21983108.5314   21983112.3114
        -0.000          -0.000
 -17482733.485 9 -13343236.74947  22336622.608    22336622.4184   22336627.5444
        -0.000          -0.000
 -25523296.636 9 -19868951.76349  20193907.413    20193907.3494   20193912.0104
        -0.000          -0.000
 -16247264.991 9 -12382790.23947  22321256.368    22321256.5964   22321260.6434
        -0.000          -0.000
  -5462298.997 8  -4050635.73745  24391142.396    24391142.1944   24391148.1824
        -0.000          -0.000
 -27327007.460 9 -20846985.18549  20459828.656    20459828.2064   20459832.3194
        -0.000          -0.000
 -13827843.818 9 -10526015.64347  22527905.531    22527904.8364   22527910.5254
        -0.000          -0.000
 97  3  8  1  6 59.9990000  0  7  4  9 24 30  6  5 10               -0.000679495
 -17490125.435 9 -13593164.98147  21997170.493    21997170.6554   21997174.4064
        -0.000          -0.000
 -17419034.141 9 -13293600.91747  22348744.179    22348743.9964   22348749.0784
        -0.000          -0.000
 -25510740.732 9 -19859167.93449  20196296.734    20196296.6454   20196301.3154
        -0.000          -0.000
 -16346640.711 9 -12460225.85147  22302345.801    22302346.0574   22302350.0634
        -0.000          -0.000
  -5539870.024 8  -4111080.63445  24376380.838    24376380.8244   24376386.5754
        -0.000          -0.000
 -27381217.804 9 -20889227.01049  20449512.786    20449512.3474   20449516.4544
        -0.000          -0.000
 -13924213.474 9 -10601108.84947  22509566.965    22509566.3014   22509572.0014
        -0.000          -0.000
 97  3  8  1  7 29.9990000  0  7  4  9 24 30  6  5 10               -0.000685664
 -17416007.966 9 -13535411.10447  22011274.631    22011274.7614   22011278.5024
        -0.000          -0.000
 -17355048.687 9 -13243742.16347  22360920.181    22360919.9974   22360925.1134
        -0.000          -0.000
 -25497749.028 9 -19849044.51849  20198768.953    20198768.8734   20198773.5684
        -0.000          -0.000
 -16445836.237 9 -12537521.06047  22283469.514    22283469.7554   22283473.6204
        -0.000          -0.000
  -5617433.410 8  -4171519.58745  24361620.916    24361620.7224   24361626.8134
        -0.000          -0.000
 -27435058.944 9 -20931181.13649  20439267.151    20439266.6704   20439270.8114
        -0.000          -0.000
 -14020382.493 9 -10676045.71747  22491266.745    22491266.0004   22491271.6314
        -0.000          -0.000
 97  3  8  1  7 59.9990000  0  7  4  9 24 30  6  5 10               -0.000691823
 -17341659.319 9 -13477477.10247  22025422.811    22025422.8874   22025426.6294
        -0.000          -0.000
 -17290765.762 9 -13193651.60247  22373152.810    22373152.6694   22373157.7634
        -0.000          -0.000
 -25484314.277 9 -19838575.87249  20201325.562    20201325.4434   20201330.1164
        -0.000          -0.000
 -16544833.394 9 -12614661.67547  22264630.877    22264631.1974   22264635.1524
        -0.000          -0.000
  -5694978.586 9  -4231944.35645  24346864.732    24346864.4174   24346870.5374
        -0.000          -0.000
 -27488529.554 9 -20972846.53449  20429091.986    20429091.5544   20429095.7024
        -0.000          -0.000
 -14116340.772 9 -10750818.35647  22473006.505    22473005.7624   22473011.4134
        -0.000          -0.000
 97  3  8  1  8 29.9990000  0  7  4  9 24 30  6  5 10               -0.000697963
 -17267074.622 9 -13419359.16147  22039615.661    22039615.8414   22039619.6564
        -0.000          -0.000
 -17226193.442 9 -13143335.53147  22385440.496    22385440.3824   22385445.4014
        -0.000          -0.000
 -25470444.757 9 -19827768.44849  20203964.804    20203964.7364   20203969.3544
        -0.000          -0.000
 -16643622.860 9 -12691640.44747  22245831.853    22245832.1814   22245836.2594
        -0.000          -0.000
  -5772500.347 9  -4292350.85445  24332112.817    24332112.4684   24332118.3914
        -0.000          -0.000
 -27541621.764 9 -21014217.08249  20418988.932    20418988.4684   20418992.5794
        -0.000          -0.000
 -14212078.869 9 -10825419.44347  22454788.208    22454787.4834   22454793.0644
        -0.000          -0.000
 97  3  8  1  8 59.9990000  0  7  4  9 24 30  6  5 10               -0.000704079
 -17192240.233 9 -13361046.65947  22053856.139    22053856.3134   22053860.2094
        -0.000          -0.000
 -17161348.141 9 -13092806.74947  22397780.293    22397780.0994   22397785.0634
        -0.000          -0.000
 -25456130.152 9 -19816614.19949  20206688.812    20206688.7304   20206693.3244
        -0.000          -0.000
 -16742188.039 9 -12768444.45747  22227075.551    22227075.8164   22227079.8504
        -0.000          -0.000
  -5849996.335 9  -4352737.27745  24317365.576    24317365.4384   24317371.4714
        -0.000          -0.000
 -27594319.056 9 -21055279.90249  20408960.938    20408960.4914   20408964.5834
        -0.000          -0.000
 -14307585.468 9 -10899840.12447  22436613.995    22436613.2164   22436618.7244
        -0.000          -0.000
 97  3  8  1  9 29.9990000  0  7  4  9 24 30  6  5 10               -0.000710178
 -17117169.270 9 -13302549.80847  22068141.641    22068141.8144   22068145.7384
        -0.000          -0.000
 -17096254.848 9 -13042084.72847  22410167.102    22410166.9144   22410171.9584
        -0.000          -0.000
 -25441377.220 9 -19805118.39649  20209496.188    20209496.0774   20209500.7364
        -0.000          -0.000
 -16840528.920 9 -12845073.70747  22208361.836    22208362.1714   22208366.2004
        -0.000          -0.000
  -5927474.149 9  -4413109.51745  24302622.026    24302621.9454   24302627.9204
        -0.000          -0.000
 -27646617.619 9 -21096032.02449  20399008.903    20399008.4204   20399012.5054
        -0.000          -0.000
 -14402861.336 9 -10974081.02347  22418483.484    22418482.8174   22418488.2724
        -0.000          -0.000
 97  3  8  1  9 59.9990000  0  7  4  9 24 30  6  5 10               -0.000716250
 -17041862.742 9 -13243869.39847  22082471.979    22082472.2124   22082476.0344
        -0.000          -0.000
 -17030893.938 9 -12991154.18547  22422604.816    22422604.6844   22422609.8924
        -0.000          -0.000
 -25426181.850 9 -19793277.84749  20212387.758    20212387.6554   20212392.2954
        -0.000          -0.000
 -16938633.330 9 -12921518.67047  22189693.086    22189693.4954   22189697.5894
        -0.000          -0.000
  -6004910.560 9  -4473449.50246  24287886.350    24287886.2064   24287892.2614
        -0.000          -0.000
 -27698476.248 9 -21136441.34149  20389140.550    20389140.0524   20389144.1174
        -0.000          -0.000
 -14497866.687 9 -11048111.13647  22400404.551    22400403.8734   22400409.3034
        -0.000          -0.000
 97  3  8  1 10 29.9990000  0  7  4  9 24 30  6  5 10               -0.000722294
 -16966330.433 9 -13185013.05947  22096845.365    22096845.5924   22096849.2824
        -0.000          -0.000
 -16965275.142 9 -12940022.68447  22435091.636    22435091.5294   22435096.7864
        -0.000          -0.000
 -25410558.962 9 -19781104.15749  20215360.702    20215360.5774   20215365.2124
        -0.000          -0.000
 -17036511.824 9 -12997787.59947  22171067.370    22171067.8094   22171071.9224
        -0.000          -0.000
  -6082299.277 9  -4533752.33446  24273159.758    24273159.6114   24273165.4024
        -0.000          -0.000
 -27749887.060 9 -21176501.71049  20379357.390    20379356.9054   20379360.9484
        -0.000          -0.000
 -14592594.618 9 -11121925.06347  22382378.330    22382377.6824   22382383.1384
        -0.000          -0.000
 97  3  8  1 10 59.9990000  0  7  4  9 24 30  6  5 10               -0.000728321
 -16890587.788 9 -13125992.80947  22111258.787    22111258.9144   22111262.5514
        -0.000          -0.000
 -16899395.718 9 -12888688.09547  22447628.182    22447628.0614   22447633.2844
        -0.000          -0.000
 -25394519.470 9 -19768605.84349  20218412.928    20218412.8144   20218417.4074
        -0.000          -0.000
 -17134172.405 9 -13073886.71947  22152483.311    22152483.5854   22152487.7274
        -0.000          -0.000
  -6159651.486 9  -4594026.73146  24258440.058    24258439.8024   24258445.6354
        -0.000          -0.000
 -27800853.006 9 -21216215.42949  20369658.847    20369658.3794   20369662.4544
        -0.000          -0.000
 -14687051.666 9 -11195527.92647  22364403.892    22364403.1464   22364408.5584
        -0.000          -0.000
 97  3  8  1 11 29.9990000  0  7  4  9 24 30  6  5 10               -0.000734329
 -16814629.944 9 -13066804.88447  22125712.990    22125713.1784   22125716.8264
        -0.000          -0.000
 -16833231.387 9 -12837131.51047  22460218.857    22460218.6744   22460223.8964
        -0.000          -0.000
 -25378051.025 9 -19755773.28549  20221546.745    20221546.6344   20221551.2554
        -0.000          -0.000
 -17231615.661 9 -13149816.50347  22133940.444    22133940.6424   22133944.8114
        -0.000          -0.000
  -6236957.769 9  -4654265.33546  24243729.059    24243728.8564   24243734.6484
        -0.000          -0.000
 -27851371.673 9 -21255580.62449  20360045.446    20360044.9644   20360049.0534
        -0.000          -0.000
 -14781230.000 9 -11268913.60747  22346482.461    22346481.6334   22346486.9424
        -0.000          -0.000
 97  3  8  1 11 59.9990000  0  7  4  9 24 30  6  5 10               -0.000740330
 -16738466.545 9 -13007456.78447  22140206.349    22140206.5844   22140210.2494
        -0.000          -0.000
 -16766785.078 9 -12785355.19347  22472863.122    22472863.0214   22472868.1464
        -0.000          -0.000
 -25361143.519 9 -19742598.59949  20224764.173    20224764.0574   20224768.6864
        -0.000          -0.000
 -17328853.420 9 -13225586.16247  22115436.606    22115436.8814   22115440.9434
        -0.000          -0.000
  -6314227.171 9  -4714475.20446  24229025.154    24229025.0744   24229030.6524
        -0.000          -0.000
 -27901447.652 9 -21294600.86349  20350516.270    20350515.8014   20350519.8954
        -0.000          -0.000
 -14875140.958 9 -11342090.92747  22328611.850    22328610.9744   22328616.2664
        -0.000          -0.000
 97  3  8  1 12 29.9990000  0  7  4  9 24 30  6  5 10               -0.000746333
 -16662098.980 9 -12947949.59247  22154738.615    22154738.8934   22154742.6014
        -0.000          -0.000
 -16700082.136 9 -12733378.89747  22485556.422    22485556.2244   22485561.2604
        -0.000          -0.000
 -25343787.652 9 -19729074.54549  20228066.886    20228066.7414   20228071.3534
        -0.000          -0.000
 -17425882.660 9 -13301193.34247  22096972.566    22096972.7854   22096976.8294
        -0.000          -0.000
  -6391474.394 9  -4774667.78646  24214325.520    24214325.5314   24214331.0494
        -0.000          -0.000
 -27951099.828 9 -21333290.86949  20341067.725    20341067.2924   20341071.4204
        -0.000          -0.000
 -14968801.602 9 -11415073.21547  22310788.715    22310787.9534   22310793.1764
        -0.000          -0.000
 97  3  8  1 12 59.9990000  0  7  4  9 24 30  6  5 10               -0.000752352
 -16585537.827 9 -12888291.55247  22169307.879    22169308.0874   22169311.7914
        -0.000          -0.000
 -16633124.962 9 -12681204.50047  22498297.910    22498297.7224   22498302.7724
        -0.000          -0.000
 -25325974.085 9 -19715193.83749  20231456.637    20231456.5144   20231461.1344
        -0.000          -0.000
 -17522709.762 9 -13376642.99147  22078546.986    22078547.1004   22078551.2694
        -0.000          -0.000
  -6468719.653 8  -4834858.82145  24199626.281    24199626.1784   24199631.6964
        -0.000          -0.000
 -28000338.593 9 -21371658.73349  20331697.974    20331697.5194   20331701.6514
        -0.000          -0.000
 -15062218.177 9 -11487865.31847  22293012.037    22293011.2704   22293016.5384
        -0.000          -0.000
 97  3  8  1 13 29.9990000  0  7  4  9 24 30  6  5 10               -0.000758377
 -16508772.093 9 -12828474.09847  22183916.087    22183916.1944   22183919.8614
        -0.000          -0.000
 -16565905.295 9 -12628825.57347  22511089.386    22511089.1574   22511094.2964
        -0.000          -0.000
 -25307679.556 9 -19700938.35549  20234937.970    20234937.8844   20234942.4914
        -0.000          -0.000
 -17619309.646 9 -13451915.60547  22060164.723    22060164.8054   22060168.8144
        -0.000          -0.000
  -6545939.827 8  -4895030.29245  24184931.579    24184931.6104   24184936.9174
        -0.000          -0.000
 -28049146.791 9 -21409691.08749  20322410.076    20322409.5994   20322413.7484
        -0.000          -0.000
 -15155372.105 9 -11560452.74547  22275285.278    22275284.5024   22275289.9544
        -0.000          -0.000
 97  3  8  1 13 59.9990000  0  7  4  9 24 30  6  5 10               -0.000764401
 -16431802.501 9 -12768497.79547  22198562.986    22198563.0144   22198566.7374
        -0.000          -0.000
 -16498430.690 9 -12576247.98347  22523929.325    22523929.1284   22523934.3614
        -0.000          -0.000
 -25288919.280 9 -19686319.95249  20238508.020    20238507.8534   20238512.4444
        -0.000          -0.000
 -17715660.734 9 -13526994.35147  22041829.768    22041829.8794   22041833.7404
        -0.000          -0.000
  -6623125.259 8  -4955174.76345  24170243.707    24170243.5294   24170249.0034
        -0.000          -0.000
 -28097505.668 9 -21447373.32549  20313207.665    20313207.1894   20313211.3204
        -0.000          -0.000
 -15248255.580 9 -11632829.42047  22257610.108    22257609.3374   22257614.8414
        -0.000          -0.000
 97  3  8  1 14 29.9990000  0  7  4  9 24 30  6  5 10               -0.000770425
 -16354645.221 9 -12708375.22847  22213245.434    22213245.5014   22213249.3274
        -0.000          -0.000
 -16430700.579 9 -12523471.29847  22536818.086    22536817.8554   22536822.9954
        -0.000          -0.000
 -25269732.005 9 -19671368.82649  20242159.219    20242159.0754   20242163.6704
        -0.000          -0.000
 -17811767.378 9 -13601882.61547  22023541.491    22023541.4794   22023545.2054
        -0.000          -0.000
  -6700288.851 8  -5015302.18145  24155560.206    24155559.7544   24155564.5684
        -0.000          -0.000
 -28145426.951 9 -21484714.57849  20304088.473    20304088.0224   20304092.1754
        -0.000          -0.000
 -15340886.285 9 -11705009.16047  22239982.968    22239982.1714   22239987.7224
        -0.000          -0.000
 97  3  8  1 14 59.9990000  0  7  4  9 24 30  6  5 10               -0.000776445
 -16277301.473 9 -12648107.38747  22227963.368    22227963.4314   22227967.3854
        -0.000          -0.000
 -16362692.522 9 -12470478.03447  22549759.552    22549759.3974   22549764.5644
        -0.000          -0.000
 -25250124.558 9 -19656090.28849  20245890.426    20245890.2324   20245894.8534
        -0.000          -0.000
 -17907614.670 9 -13676568.79447  22005302.343    22005302.3364   22005306.1064
        -0.000          -0.000
  -6777410.691 8  -5075397.10045  24140884.348    24140884.0154   24140889.0294
        -0.000          -0.000
 -28192896.223 9 -21521703.61149  20295055.392    20295054.9364   20295059.1224
        -0.000          -0.000
 -15433260.780 9 -11776989.26647  22222404.581    22222403.8404   22222409.3034
        -0.000          -0.000
 97  3  8  1 15 29.9990000  0  7  4  9 24 30  6  5 10               -0.000782452
 -16199777.594 9 -12587699.16747  22242715.584    22242715.6494   22242719.6564
        -0.000          -0.000
 -16294430.939 9 -12417287.21247  22562749.393    22562749.2444   22562754.3454
        -0.000          -0.000
 -25230124.558 9 -19640505.86949  20249696.216    20249696.0774   20249700.7004
        -0.000          -0.000
 -18003197.655 9 -13751049.00947  21987113.336    21987113.4584   21987117.2934
        -0.000          -0.000
  -6854488.654 9  -5135457.79245  24126216.778    24126216.5084   24126221.5504
        -0.000          -0.000
 -28239910.174 9 -21558337.85249  20286108.969    20286108.4794   20286112.6464
        -0.000          -0.000
 -15525377.492 9 -11848768.47947  22204875.362    22204874.5954   22204880.1364
        -0.000          -0.000
 97  3  8  1 15 59.9990000  0  7  4  9 24 30  6  5 10               -0.000788444
 -16122064.878 9 -12527143.81047  22257503.664    22257503.8214   22257507.7824
        -0.000          -0.000
 -16225921.410 9 -12363903.21247  22575786.353    22575786.1494   22575791.2304
        -0.000          -0.000
 -25209737.248 9 -19624619.64849  20253575.788    20253575.6414   20253580.2184
        -0.000          -0.000
 -18098519.297 9 -13825325.58947  21968974.121    21968974.3364   21968978.1564
        -0.000          -0.000
  -6931522.895 9  -5195484.44745  24111557.800    24111557.5664   24111562.4934
        -0.000          -0.000
 -28286456.122 9 -21594607.41649  20277251.471    20277251.0214   20277255.1564
        -0.000          -0.000
 -15617224.057 9 -11920337.18947  22187397.457    22187396.6854   22187402.3154
        -0.000          -0.000
 97  3  8  1 16 29.9990000  0  7  4  9 24 30  6  5 10               -0.000794439
 -16044190.873 9 -12466462.76347  22272322.594    22272322.7414   22272326.6634
        -0.000          -0.000
 -16157184.530 9 -12310342.02247  22588866.537    22588866.4334   22588871.5554
        -0.000          -0.000
 -25188963.650 9 -19608432.42249  20257528.875    20257528.7354   20257533.3214
        -0.000          -0.000
 -18193600.959 9 -13899415.17947  21950880.883    21950880.9024   21950884.6204
        -0.000          -0.000
  -7008545.196 9  -5255501.75345  24096900.715    24096900.5634   24096905.7774
        -0.000          -0.000
 -28332565.826 9 -21630537.05149  20268477.107    20268476.6464   20268480.7504
        -0.000          -0.000
 -15708811.606 9 -11991704.08147  22169968.929    22169968.1904   22169973.7434
        -0.000          -0.000
 97  3  8  1 16 59.9990000  0  7  4  9 24 30  6  5 10               -0.000800436
 -15966156.106 9 -12405656.43947  22287172.192    22287172.3414   22287176.1384
        -0.000          -0.000
 -16088253.349 9 -12256629.44847  22601983.714    22601983.5624   22601988.7534
        -0.000          -0.000
 -25167798.354 9 -19591939.97449  20261556.508    20261556.3864   20261560.9814
        -0.000          -0.000
 -18288446.402 9 -13973320.68847  21932832.221    21932832.3064   21932836.0394
        -0.000          -0.000
  -7085565.664 8  -5315517.65845  24082243.993    24082243.8504   24082249.2004
        -0.000          -0.000
 -28378244.280 9 -21666130.64649  20259784.743    20259784.2734   20259788.4024
        -0.000          -0.000
 -15800117.542 9 -12062851.53747  22152594.077    22152593.2894   22152598.7314
        -0.000          -0.000
 97  3  8  1 17 29.9990000  0  7  4  9 24 30  6  5 10               -0.000806427
 -15887938.668 9 -12344707.78647  22302056.484    22302056.6274   22302060.3974
        -0.000          -0.000
 -16019132.288 9 -12202768.91147  22615137.208    22615136.9664   22615142.1444
        -0.000          -0.000
 -25146234.681 9 -19575137.10949  20265659.956    20265659.8164   20265664.4214
        -0.000          -0.000
 -18383053.699 9 -14047040.63247  21914828.977    21914829.1104   21914832.8714
        -0.000          -0.000
  -7162588.032 9  -5375535.00345  24067586.807    24067586.8564   24067592.2624
        -0.000          -0.000
 -28423478.740 9 -21701378.27549  20251176.910    20251176.4724   20251180.6544
        -0.000          -0.000
 -15891117.987 9 -12133760.93947  22135277.330    22135276.5174   22135281.9064
        -0.000          -0.000
 97  3  8  1 17 59.9990000  0  7  4  9 24 30  6  5 10               -0.000812415
 -15809535.100 9 -12283614.10147  22316976.211    22316976.3094   22316980.0984
        -0.000          -0.000
 -15949798.394 9 -12148742.53047  22628331.103    22628330.8624   22628336.0214
        -0.000          -0.000
 -25124250.716 9 -19558006.74449  20269843.332    20269843.2004   20269847.7974
        -0.000          -0.000
 -18477417.821 9 -14120571.11247  21896872.121    21896872.3104   21896875.9434
        -0.000          -0.000
  -7239619.411 8  -5435559.39945  24052928.123    24052928.1054   24052933.7484
        -0.000          -0.000
 -28468273.452 9 -21736283.23849  20242652.849    20242652.3834   20242656.5654
        -0.000          -0.000
 -15981809.390 9 -12204429.52347  22118019.276    22118018.4654   22118023.8734
        -0.000          -0.000
 97  3  8  1 18 29.9990000  0  7  4  9 24 30  6  5 10               -0.000818398
 -15730946.305 9 -12222376.07747  22331931.149    22331931.2364   22331935.1094
        -0.000          -0.000
 -15880243.873 9 -12094544.22147  22641566.960    22641566.6604   22641571.8664
        -0.000          -0.000
 -25101846.165 9 -19540548.64449  20274106.774    20274106.6384   20274111.1974
        -0.000          -0.000
 -18571526.245 9 -14193902.31847  21878963.959    21878964.0784   21878967.8064
        -0.000          -0.000
  -7316659.985 8  -5495590.92845  24038267.599    24038267.6544   24038273.3894
        -0.000          -0.000
 -28512628.052 9 -21770845.25549  20234212.477    20234211.9974   20234216.1934
        -0.000          -0.000
 -16072191.190 9 -12274856.88347  22100820.253    22100819.4314   22100824.7534
        -0.000          -0.000
 97  3  8  1 18 59.9990000  0  7  4  9 24 30  6  5 10               -0.000824367
 -15652163.067 9 -12160986.54747  22346923.081    22346923.2174   22346927.1294
        -0.000          -0.000
 -15810466.057 9 -12040171.92947  22654845.096    22654844.9274   22654850.1274
        -0.000          -0.000
 -25079026.188 9 -19522766.84149  20278449.299    20278449.1424   20278453.7224
        -0.000          -0.000
 -18665376.686 9 -14267032.50447  21861104.801    21861104.9524   21861108.6034
        -0.000          -0.000
  -7393689.320 8  -5555613.71345  24023609.397    24023609.4014   24023615.2844
        -0.000          -0.000
 -28556522.347 9 -21805048.59649  20225859.670    20225859.1894   20225863.3644
        -0.000          -0.000
 -16162255.908 9 -12345037.15247  22083681.374    22083680.5964   22083685.9114
        -0.000          -0.000
 97  3  8  1 19 29.9990000  0  7  4  9 24 30  6  5 10               -0.000830329
 -15573204.456 9 -12099460.36247  22361948.367    22361948.5154   22361952.4184
        -0.000          -0.000
 -15740450.389 9 -11985614.28947  22668168.724    22668168.5834   22668173.6994
        -0.000          -0.000
 -25055788.501 9 -19504659.55049  20282871.246    20282871.1304   20282875.7904
        -0.000          -0.000
 -18758957.060 9 -14339952.27747  21843297.093    21843297.1904   21843300.6214
        -0.000          -0.000
  -7470700.126 8  -5615622.03245  24008954.607    24008954.4574   24008960.7914
        -0.000          -0.000
 -28599953.325 9 -21838890.90949  20217595.020    20217594.5314   20217598.6934
        -0.000          -0.000
 -16252012.260 9 -12414977.13647  22066601.350    22066600.5214   22066605.8694
        -0.000          -0.000
 97  3  8  1 19 59.9990000  0  7  4  9 24 30  6  5 10               -0.000836300
 -15494095.970 9 -12037817.38647  22377002.176    22377002.3844   22377006.2214
        -0.000          -0.000
 -15670208.525 9 -11930880.39847  22681535.431    22681535.2004   22681540.3264
        -0.000          -0.000
 -25032137.273 9 -19486230.01649  20287371.968    20287371.8354   20287376.4364
        -0.000          -0.000
 -18852266.887 9 -14412661.21247  21825540.667    21825540.8334   21825544.3694
        -0.000          -0.000
  -7547692.644 9  -5675616.13845  23994303.493    23994303.3294   23994309.5364
        -0.000          -0.000
 -28642926.122 9 -21872376.19849  20209417.536    20209417.0324   20209421.2504
        -0.000          -0.000
 -16341479.601 9 -12484691.90647  22049576.206    22049575.3774   22049580.7984
        -0.000          -0.000
 97  3  8  1 20 29.9990000  0  7  4  9 24 30  6  5 10               -0.000842271
 -15414837.180 9 -11976057.28947  22392084.589    22392084.7824   22392088.5934
        -0.000          -0.000
 -15599756.884 9 -11875983.03847  22694941.830    22694941.6994   22694946.6714
        -0.000          -0.000
 -25008077.270 9 -19467481.95249  20291950.420    20291950.2854   20291954.8354
        -0.000          -0.000
 -18945296.736 9 -14485151.96947  21807837.457    21807837.6584   21807841.3944
        -0.000          -0.000
  -7624649.519 9  -5735582.49445  23979659.379    23979659.0084   23979665.0044
        -0.000          -0.000
 -28685428.773 9 -21905495.14449  20201329.505    20201329.0114   20201333.2274
        -0.000          -0.000
 -16430647.530 9 -12554173.39147  22032608.055    22032607.2834   22032612.5684
        -0.000          -0.000
 97  3  8  1 20 59.9990000  0  7  4  9 24 30  6  5 10               -0.000848252
 -15335434.630 9 -11914185.16047  22407194.441    22407194.6324   22407198.3704
        -0.000          -0.000
 -15529109.190 9 -11820932.90947  22708385.745    22708385.5024   22708390.5544
        -0.000          -0.000
 -24983606.836 9 -19448414.07949  20296606.998    20296606.8424   20296611.3984
        -0.000          -0.000
 -19038047.792 9 -14557425.50847  21790187.405    21790187.6974   21790191.4124
        -0.000          -0.000
  -7701585.913 9  -5795532.92345  23965019.018    23965018.5334   23965024.1534
        -0.000          -0.000
 -28727468.262 9 -21938253.18749  20193329.701    20193329.1994   20193333.4054
        -0.000          -0.000
 -16519516.719 9 -12623422.08247  22015696.784    22015695.9514   22015701.2714
        -0.000          -0.000
 97  3  8  1 21 29.9990000  0  7  4  9 24 30  6  5 10               -0.000854238
 -15255880.309 9 -11852194.78047  22422333.203    22422333.3024   22422337.0834
        -0.000          -0.000
 -15458251.461 9 -11765719.13347  22721869.332    22721869.2084   22721874.4594
        -0.000          -0.000
 -24958718.730 9 -19429020.74449  20301343.060    20301342.8734   20301347.4594
        -0.000          -0.000
 -19130500.918 9 -14629466.88247  21772594.312    21772594.4874   21772598.1284
        -0.000          -0.000
  -7778499.387 9  -5855465.45646  23950382.865    23950382.4354   23950387.8684
        -0.000          -0.000
 -28769034.527 9 -21970642.47949  20185419.888    20185419.3854   20185423.6004
        -0.000          -0.000
 -16608078.383 9 -12692431.12747  21998844.004    21998843.1784   21998848.6064
        -0.000          -0.000
 97  3  8  1 21 59.9990000  0  7  4  9 24 30  6  5 10               -0.000860228
 -15176161.740 9 -11790076.40847  22437503.114    22437503.2604   22437507.0444
        -0.000          -0.000
 -15387200.312 9 -11710354.63747  22735390.022    22735389.8474   22735395.0674
        -0.000          -0.000
 -24933418.034 9 -19409305.91149  20306157.571    20306157.4404   20306161.9934
        -0.000          -0.000
 -19222675.045 9 -14701290.86447  21755054.116    21755054.3394   21755057.9894
        -0.000          -0.000
  -7855401.493 9  -5915389.11846  23935748.834    23935748.4764   23935753.8204
        -0.000          -0.000
 -28810128.045 9 -22002663.40049  20177600.092    20177599.5884   20177603.8174
        -0.000          -0.000
 -16696328.421 9 -12761197.36747  21982050.498    21982049.7144   21982055.1204
        -0.000          -0.000
 97  3  8  1 22 29.9990000  0  7  4  9 24 30  6  5 10               -0.000866221
 -15096290.013 9 -11727838.70747  22452702.172    22452702.2584   22452706.1954
        -0.000          -0.000
 -15315963.049 9 -11654845.10947  22748945.994    22748945.8624   22748951.0014
        -0.000          -0.000
 -24907714.599 9 -19389277.25149  20311048.818    20311048.6544   20311053.1414
        -0.000          -0.000
 -19314583.635 9 -14772907.91447  21737564.537    21737564.6974   21737568.4404
        -0.000          -0.000
  -7932302.613 9  -5975312.00946  23921115.053    23921114.7474   23921120.0134
        -0.000          -0.000
 -28850764.104 9 -22034327.86149  20169867.322    20169866.8124   20169870.9824
        -0.000          -0.000
 -16784258.695 9 -12829714.42947  21965317.803    21965317.0884   21965322.5794
        -0.000          -0.000
 97  3  8  1 22 59.9990000  0  7  4  9 24 30  6  5 10               -0.000872208
 -15016257.650 9 -11665475.83647  22467931.782    22467931.8744   22467935.8654
        -0.000          -0.000
 -15244520.094 9 -11599175.29947  22762541.255    22762541.0604   22762546.2194
        -0.000          -0.000
 -24881602.529 9 -19368930.17249  20316017.775    20316017.5844   20316022.0754
        -0.000          -0.000
 -19406219.163 9 -14844312.19447  21720126.922    21720127.0594   21720130.7754
        -0.000          -0.000
  -8009191.736 9  -6035225.53646  23906483.418    23906483.1164   23906488.5254
        -0.000          -0.000
 -28890928.509 9 -22065624.79549  20162224.281    20162223.7934   20162227.9444
        -0.000          -0.000
 -16871855.765 9 -12897971.85647  21948648.653    21948647.9074   21948653.3484
        -0.000          -0.000
 97  3  8  1 23 29.9990000  0  7  4  9 24 30  6  5 10               -0.000878181
 -14936074.726 9 -11602995.63247  22483190.025    22483190.2014   22483194.2044
        -0.000          -0.000
 -15172883.857 9 -11543354.88247  22776173.267    22776173.0234   22776178.1764
        -0.000          -0.000
 -24855086.705 9 -19348268.48649  20321063.542    20321063.3514   20321067.9234
        -0.000          -0.000
 -19497585.740 9 -14915506.91747  21702740.373    21702740.5754   21702744.2574
        -0.000          -0.000
  -8086043.543 9  -6095109.99546  23891858.978    23891858.7204   23891863.9754
        -0.000          -0.000
 -28930624.018 9 -22096556.35849  20154670.506    20154669.9924   20154674.1704
        -0.000          -0.000
 -16959109.854 9 -12965962.01647  21932044.735    21932043.9924   21932049.3864
        -0.000          -0.000
 97  3  8  1 23 59.9990000  0  7  4  9 24 30  6  5 10               -0.000884137
 -14855743.063 9 -11540399.52747  22498476.761    22498476.8484   22498480.7744
        -0.000          -0.000
 -15101073.452 9 -11487398.74647  22789838.224    22789838.0634   22789843.1894
        -0.000          -0.000
 -24828170.525 9 -19327294.82849  20326185.519    20326185.3254   20326189.9284
        -0.000          -0.000
 -19588683.639 9 -14986492.27347  21685404.955    21685405.2164   21685408.8474
        -0.000          -0.000
  -8162855.745 9  -6154963.57946  23877242.052    23877241.8394   23877247.0484
        -0.000          -0.000
 -28969854.560 9 -22127125.60749  20147205.146    20147204.6704   20147208.8504
        -0.000          -0.000
 -17046010.826 9 -13033677.03547  21915508.127    21915507.3104   21915512.6404
        -0.000          -0.000
 97  3  8  1 24 29.9990000  0  7  4  9 24 30  6  5 10               -0.000890077
 -14775284.246 9 -11477704.34047  22513787.639    22513787.7494   22513791.6024
        -0.000          -0.000
 -15029099.626 9 -11431315.28247  22803534.609    22803534.3214   22803539.5034
        -0.000          -0.000
 -24800877.182 9 -19306027.27949  20331379.273    20331379.0694   20331383.6314
        -0.000          -0.000
 -19679501.094 9 -15057259.09847  21668123.071    21668123.2014   21668126.8874
        -0.000          -0.000
  -8239623.617 9  -6214782.62146  23862633.551    23862633.4334   23862638.7124
        -0.000          -0.000
 -29008630.936 9 -22157340.96049  20139826.283    20139825.7794   20139830.0004
        -0.000          -0.000
 -17132563.363 9 -13101120.53347  21899037.740    21899036.8824   21899042.2144
        -0.000          -0.000
 97  3  8  1 24 59.9990000  0  7  4  9 24 30  6  5 10               -0.000896010
 -14694709.402 9 -11414918.73547  22529120.622    22529120.6844   22529124.3904
        -0.000          -0.000
 -14956978.010 9 -11375116.64547  22817258.842    22817258.6114   22817263.8494
        -0.000          -0.000
 -24773219.707 9 -19284475.98349  20336642.312    20336642.1164   20336646.6434
        -0.000          -0.000
 -19770031.135 9 -15127801.96847  21650895.697    21650895.8574   21650899.5744
        -0.000          -0.000
  -8316355.370 9  -6274573.55446  23848032.036    23848031.8924   23848037.0734
        -0.000          -0.000
 -29046947.120 9 -22187197.72349  20132535.007    20132534.4864   20132538.6514
        -0.000          -0.000
 -17218768.209 9 -13168293.11047  21882633.465    21882632.5894   21882637.8634
        -0.000          -0.000
 97  3  8  1 25 29.9990000  0  7  4  9 24 30  6  5 10               -0.000901936
 -14614006.960 9 -11352033.70647  22544477.747    22544477.8434   22544481.5404
        -0.000          -0.000
 -14884703.761 9 -11318799.07247  22831012.191    22831012.0094   22831017.2184
        -0.000          -0.000
 -24745195.749 9 -19262639.12449  20341975.047    20341974.8644   20341979.4274
        -0.000          -0.000
 -19860259.186 9 -15198109.51247  21633725.825    21633725.9834   21633729.7524
        -0.000          -0.000
  -8393058.938 9  -6334342.50246  23833435.797    23833435.5864   23833440.7454
        -0.000          -0.000
 -29084796.256 9 -22216690.55449  20125332.594    20125332.0434   20125336.1624
        -0.000          -0.000
 -17304625.582 9 -13235194.91947  21866295.433    21866294.5494   21866299.8494
        -0.000          -0.000
 97  3  8  1 25 59.9990000  0  7  4  9 24 30  6  5 10               -0.000907853
 -14533154.111 9 -11289031.48447  22559863.666    22559863.6614   22559867.3144
        -0.000          -0.000
 -14812244.173 9 -11262337.08347  22844800.814    22844800.6744   22844805.8874
        -0.000          -0.000
 -24716801.690 9 -19240513.87649  20347378.299    20347378.1134   20347382.6684
        -0.000          -0.000
 -19950165.231 9 -15268166.14947  21616617.296    21616617.4474   21616621.1774
        -0.000          -0.000
  -8469749.091 9  -6394101.01546  23818842.100    23818841.8494   23818847.0734
        -0.000          -0.000
 -29122153.860 9 -22245800.37449  20118223.658    20118223.1244   20118227.2344
        -0.000          -0.000
 -17390133.021 9 -13301824.06447  21850023.926    21850022.9944   21850028.3234
        -0.000          -0.000
 97  3  8  1 26 29.9990000  0  7  4  9 24 30  6  5 10               -0.000913771
 -14452158.407 9 -11225917.94447  22575276.825    22575276.7224   22575280.3474
        -0.000          -0.000
 -14739587.407 9 -11205721.44347  22858626.936    22858626.6824   22858631.9754
        -0.000          -0.000
 -24688031.863 9 -19218095.82149  20352853.009    20352852.8034   20352857.3304
        -0.000          -0.000
 -20039748.139 9 -15337971.00047  21599570.248    21599570.4084   21599573.9984
        -0.000          -0.000
  -8546428.738 9  -6453851.35046  23804250.361    23804250.2304   23804255.2854
        -0.000          -0.000
 -29159008.119 9 -22274517.97649  20111210.542    20111210.0194   20111214.1074
        -0.000          -0.000
 -17475302.959 9 -13368190.20547  21833816.506    21833815.6344   21833821.0024
        -0.000          -0.000
 97  3  8  1 26 59.9990000  0  7  4  9 24 30  6  5 10               -0.000919701
 -14371016.149 9 -11162690.20947  22590717.542    22590717.5624   22590721.2144
        -0.000          -0.000
 -14666734.480 9 -11148952.97147  22872490.409    22872490.1744   22872495.4734
        -0.000          -0.000
 -24658883.600 9 -19195382.88349  20358399.721    20358399.5134   20358404.0344
        -0.000          -0.000
 -20129023.459 9 -15407536.15547  21582581.714    21582581.8404   21582585.4514
        -0.000          -0.000
  -8623115.224 9  -6513607.00946  23789657.366    23789657.1834   23789662.2054
        -0.000          -0.000
 -29195360.587 9 -22302844.57249  20104292.950    20104292.4084   20104296.4604
        -0.000          -0.000
 -17560159.088 9 -13434311.83847  21817668.851    21817668.0634   21817673.4104
        -0.000          -0.000
 97  3  8  1 27 29.9990000  0  7  4  9 24 30  6  5 10               -0.000925639
 -14289723.764 9 -11099345.49847  22606186.948    22606187.0124   22606190.6974
        -0.000          -0.000
 -14593684.298 9 -11092030.76047  22886391.599    22886391.2714   22886396.3874
        -0.000          -0.000
 -24629358.183 9 -19172376.05949  20364018.171    20364017.9844   20364022.5554
        -0.000          -0.000
 -20218001.749 9 -15476869.86448  21565649.665    21565649.8414   21565653.3744
        -0.000          -0.000
  -8699819.046 9  -6573376.17346  23775061.144    23775060.9884   23775065.9414
        -0.000          -0.000
 -29231221.630 9 -22330788.23749  20097468.790    20097468.2524   20097472.2844
        -0.000          -0.000
 -17644717.714 9 -13500201.64347  21801577.823    21801577.0224   21801582.4144
        -0.000          -0.000
 97  3  8  1 27 59.9990000  0  7  4  9 24 30  6  5 10               -0.000931588
 -14208301.351 9 -11035899.45447  22621681.143    22621681.1964   22621684.8244
        -0.000          -0.000
 -14520454.346 9 -11034968.47847  22900326.760    22900326.4834   22900331.5174
        -0.000          -0.000
 -24599459.507 9 -19149078.38349  20369707.713    20369707.5154   20369712.0764
        -0.000          -0.000
 -20306690.179 9 -15545977.70748  21548772.903    21548773.0354   21548776.5604
        -0.000          -0.000
  -8776529.936 9  -6633150.80946  23760463.437    23760463.3734   23760468.3424
        -0.000          -0.000
 -29266595.016 9 -22358351.90949  20090737.468    20090736.9324   20090740.9274
        -0.000          -0.000
 -17728964.869 9 -13565848.74147  21785546.196    21785545.3814   21785550.6394
        -0.000          -0.000
 97  3  8  1 28 29.9990000  0  7  4  9 24 30  6  5 10               -0.000937545
 -14126757.047 9 -10972358.45247  22637198.373    22637198.4944   22637202.2634
        -0.000          -0.000
 -14447057.465 9 -10977776.13547  22914293.651    22914293.3854   22914298.4674
        -0.000          -0.000
 -24569181.505 9 -19125485.13049  20375469.442    20375469.2764   20375473.8144
        -0.000          -0.000
 -20395084.106 9 -15614856.07348  21531952.051    21531952.1704   21531955.6454
        -0.000          -0.000
  -8853237.324 9  -6692922.70446  23745866.544    23745866.4094   23745871.4144
        -0.000          -0.000
 -29301480.299 9 -22385535.24549  20084099.046    20084098.4984   20084102.4904
        -0.000          -0.000
 -17812880.003 9 -13631237.12447  21769577.736    21769576.8664   21769582.0834
        -0.000          -0.000
 97  3  8  1 28 59.9990000  0  7  4  9 24 30  6  5 10               -0.000943496
 -14045086.688 9 -10908719.20447  22652739.655    22652739.8244   22652743.6204
        -0.000          -0.000
 -14373499.546 9 -10920458.30047  22928291.195    22928290.9544   22928296.0514
        -0.000          -0.000
 -24538543.302 9 -19101611.19649  20381299.713    20381299.5504   20381304.0684
        -0.000          -0.000
 -20483187.872 9 -15683508.33948  21515186.451    21515186.5374   21515190.0464
        -0.000          -0.000
  -8929947.152 9  -6752696.53046  23731268.988    23731268.8144   23731273.9124
        -0.000          -0.000
 -29335894.462 9 -22412351.47149  20077550.210    20077549.6724   20077553.6864
        -0.000          -0.000
 -17896443.356 9 -13696351.39347  21753676.168    21753675.2644   21753680.4444
        -0.000          -0.000
 97  3  8  1 29 29.9990000  0  7  4  9 24 30  6  5 10               -0.000949443
 -13963315.816 9 -10845001.63647  22668299.941    22668300.2034   22668303.9484
        -0.000          -0.000
 -14299794.095 9 -10863025.50547  22942316.873    22942316.6454   22942321.8424
        -0.000          -0.000
 -24507566.293 9 -19077473.26449  20387194.469    20387194.2894   20387198.8024
        -0.000          -0.000
 -20571005.087 9 -15751937.32248  21498475.395    21498475.5154   21498479.0004
        -0.000          -0.000
  -9006662.884 9  -6812474.98046  23716670.289    23716670.1514   23716675.2404
        -0.000          -0.000
 -29369842.842 9 -22438804.74549  20071090.025    20071089.4944   20071093.5274
        -0.000          -0.000
 -17979628.898 9 -13761171.25947  21737846.438    21737845.5534   21737850.8584
        -0.000          -0.000
 97  3  8  1 29 59.9990000  0  7  4  9 24 30  6  5 10               -0.000955374
 -13881437.981 9 -10781200.72347  22683880.815    22683880.9764   22683884.7974
        -0.000          -0.000
 -14225933.307 9 -10805471.68947  22956372.075    22956371.8744   22956377.1874
        -0.000          -0.000
 -24476244.109 9 -19053066.35849  20393154.859    20393154.7034   20393159.1824
        -0.000          -0.000
 -20658512.698 9 -15820125.04848  21481823.181    21481823.3734   21481826.9274
        -0.000          -0.000
  -9083362.098 9  -6872240.58946  23702074.914    23702074.8064   23702079.8384
        -0.000          -0.000
 -29403306.178 9 -22464880.06949  20064722.141    20064721.6124   20064725.6594
        -0.000          -0.000
 -18062402.538 9 -13825670.17947  21722095.017    21722094.1874   21722099.4804
        -0.000          -0.000
 97  3  8  1 30 29.9990000  0  7  4  9 24 30  6  5 10               -0.000961290
 -13799450.730 9 -10717314.55247  22699482.444    22699482.6254   22699486.4474
        -0.000          -0.000
 -14151918.020 9 -10747797.47747  22970456.778    22970456.5244   22970461.9314
        -0.000          -0.000
 -24444587.138 9 -19028398.58449  20399179.016    20399178.8024   20399183.3034
        -0.000          -0.000
 -20745713.681 9 -15888073.84648  21465229.436    21465229.5914   21465233.2054
        -0.000          -0.000
  -9160052.915 9  -6931999.61246  23687481.000    23687480.8494   23687486.1374
        -0.000          -0.000
 -29436289.323 9 -22490581.21649  20058445.624    20058445.0974   20058449.1494
        -0.000          -0.000
 -18144781.733 9 -13889861.72147  21706418.719    21706417.8804   21706423.1594
        -0.000          -0.000
 97  3  8  1 30 59.9990000  0  7  4  9 24 30  6  5 10               -0.000967183
 -13717348.142 9 -10653338.49847  22715106.021    22715106.2494   22715110.0314
        -0.000          -0.000
 -14077744.610 9 -10690000.04347  22984571.479    22984571.1634   22984576.6314
        -0.000          -0.000
 -24412582.192 9 -19003459.65349  20405269.315    20405269.1264   20405273.6564
        -0.000          -0.000
 -20832591.502 9 -15955770.83448  21448697.133    21448697.2564   21448700.9004
        -0.000          -0.000
  -9236711.774 9  -6991733.72046  23672893.040    23672892.9784   23672898.4394
        -0.000          -0.000
 -29468783.190 9 -22515901.10949  20052262.289    20052261.7584   20052265.7574
        -0.000          -0.000
 -18226762.898 9 -13953743.11747  21690818.301    21690817.4004   21690822.6234
        -0.000          -0.000
 97  3  8  1 31 29.9990000  0  7  4  9 24 30  6  5 10               -0.000973077
 -13635144.265 9 -10589283.52947  22730748.955    22730749.1404   22730752.9054
        -0.000          -0.000
 -14003431.586 9 -10632093.83246  22998712.445    22998712.2734   22998717.9414
        -0.000          -0.000
 -24380212.990 9 -18978236.89849  20411428.954    20411428.7724   20411433.3264
        -0.000          -0.000
 -20919136.596 9 -16023208.55848  21432228.064    21432228.2174   21432231.8424
        -0.000          -0.000
  -9313346.897 9  -7051449.36246  23658309.934    23658309.8334   23658315.1214
        -0.000          -0.000
 -29500780.136 9 -22540833.78949  20046173.549    20046172.9734   20046176.9144
        -0.000          -0.000
 -18308358.765 9 -14017324.27347  21675291.074    21675290.1984   21675295.3884
        -0.000          -0.000
 97  3  8  1 31 59.9990000  0  7  4  9 24 30  6  5 10               -0.000978969
 -13552826.730 9 -10525140.00147  22746413.485    22746413.6464   22746417.4004
        -0.000          -0.000
 -13928984.326 9 -10574083.01346  23012879.312    23012879.1154   23012884.9304
        -0.000          -0.000
 -24347461.365 9 -18952716.14449  20417661.426    20417661.2274   20417665.7414
        -0.000          -0.000
 -21005335.286 9 -16090376.35948  21415824.860    21415825.0934   21415828.7614
        -0.000          -0.000
  -9389948.749 9  -7111139.07846  23643733.136    23643732.9344   23643738.1534
        -0.000          -0.000
 -29532272.677 9 -22565373.43049  20040180.657    20040180.1024   20040184.0274
        -0.000          -0.000
 -18389578.988 9 -14080612.73747  21659835.437    21659834.4694   21659839.5944
        -0.000          -0.000
 97  3  8  1 32 29.9990000  0  7  4  9 24 30  6  5 10               -0.000984862
 -13470393.590 9 -10460906.37046  22762099.968    22762100.1464   22762103.9594
        -0.000          -0.000
 -13854411.500 9 -10515974.35546  23027070.168    23027069.9414   23027075.7324
        -0.000          -0.000
 -24314317.262 9 -18926889.56949  20423968.533    20423968.3414   20423972.7914
        -0.000          -0.000
 -21091191.066 9 -16157276.95548  21399487.137    21399487.3034   21399490.8864
        -0.000          -0.000
  -9466512.806 9  -7170799.32946  23629163.466    23629163.1714   23629168.3254
        -0.000          -0.000
 -29563259.760 9 -22589519.20749  20034283.983    20034283.4444   20034287.3924
        -0.000          -0.000
 -18470430.231 9 -14143613.67147  21644449.725    21644448.8904   21644454.0694
        -0.000          -0.000
 97  3  8  1 32 59.9990000  0  7  4  9 24 30  6  5 10               -0.000990762
 -13387850.097 9 -10396586.77546  22777807.493    22777807.6524   22777811.5304
        -0.000          -0.000
 -13779720.155 9 -10457773.33246  23041283.517    23041283.3224   23041289.0134
        -0.000          -0.000
 -24280776.240 9 -18900753.70149  20430351.193    20430350.9824   20430355.4604
        -0.000          -0.000
 -21176701.302 9 -16223908.28848  21383215.138    21383215.2484   21383218.8254
        -0.000          -0.000
  -9543046.793 9  -7230436.17446  23614599.601    23614599.3034   23614604.4204
        -0.000          -0.000
 -29593739.891 9 -22613269.95749  20028483.801    20028483.2504   20028487.1964
        -0.000          -0.000
 -18550904.630 9 -14206320.96247  21629135.885    21629135.0524   21629140.2394
        -0.000          -0.000
 97  3  8  1 33 29.9990000  0  7  4  9 24 30  6  5 10               -0.000996668
 -13305195.389 9 -10332180.50047  22793536.192    22793536.3834   22793540.2654
        -0.000          -0.000
 -13704911.402 9 -10399480.84747  23055519.297    23055519.0564   23055524.6964
        -0.000          -0.000
 -24246859.232 9 -18874324.86349  20436805.338    20436805.1444   20436809.6884
        -0.000          -0.000
 -21261877.871 9 -16290279.63048  21367006.546    21367006.6994   21367010.1584
        -0.000          -0.000
  -9619571.370 9  -7290065.64146  23600037.266    23600037.0154   23600042.2484
        -0.000          -0.000
 -29623723.725 9 -22636633.97949  20022778.028    20022777.4804   20022781.4364
        -0.000          -0.000
 -18631014.990 9 -14268744.59047  21613891.438    21613890.6054   21613895.7044
        -0.000          -0.000
 97  3  8  1 33 59.9990000  0  7  4  9 24 30  6  5 10               -0.001002565
 -13222423.148 9 -10267682.64847  22809287.400    22809287.4894   22809291.2714
        -0.000          -0.000
 -13629978.719 9 -10341091.78446  23069778.568    23069778.3854   23069783.9124
        -0.000          -0.000
 -24212580.363 9 -18847614.04749  20443328.366    20443328.1684   20443332.7274
        -0.000          -0.000
 -21346723.056 9 -16356392.74848  21350861.070    21350861.2264   21350864.6664
        -0.000          -0.000
  -9696073.319 9  -7349677.46446  23585479.329    23585479.0634   23585484.2994
        -0.000          -0.000
 -29653213.837 9 -22659613.28449  20017166.239    20017165.7244   20017169.7054
        -0.000          -0.000
 -18710764.891 9 -14330887.33547  21598715.637    21598714.6814   21598719.8084
        -0.000          -0.000
 97  3  8  1 34 29.9980000  0  7  4  9 24 30  6  5 10               -0.001008444
 -13139526.873 9 -10203088.14846  22825061.919    22825062.0784   22825065.7984
        -0.000          -0.000
 -13554899.703 9 -10282588.68846  23084065.818    23084065.5844   23084070.9994
        -0.000          -0.000
 -24177935.793 9 -18820618.27149  20449921.029    20449920.8044   20449925.3054
        -0.000          -0.000
 -21431226.091 9 -16422239.24848  21334780.741    21334780.8194   21334784.3134
        -0.000          -0.000
  -9772548.936 9  -7409268.80546  23570926.350    23570926.1874   23570931.4364
        -0.000          -0.000
 -29682198.545 9 -22682198.77349  20011650.672    20011650.1234   20011654.1084
        -0.000          -0.000
 -18790134.852 9 -14392734.03147  21583611.945    21583611.0674   21583616.1844
        -0.000          -0.000
 97  3  8  1 34 59.9980000  0  7  4  9 24 30  6  5 10               -0.001014321
 -13056529.737 9 -10138415.04246  22840855.629    22840855.8844   22840859.5264
        -0.000          -0.000
 -13479686.414 9 -10223980.97046  23098378.298    23098378.0954   23098383.5464
        -0.000          -0.000
 -24142955.633 9 -18793360.99549  20456577.539    20456577.3164   20456581.8134
        -0.000          -0.000
 -21515409.743 9 -16487836.87848  21318761.101    21318761.1994   21318764.7374
        -0.000          -0.000
  -9849038.374 9  -7468870.91446  23556370.850    23556370.7444   23556375.9494
        -0.000          -0.000
 -29710702.960 9 -22704409.99749  20006226.493    20006225.9284   20006229.9074
        -0.000          -0.000
 -18869150.927 9 -14454304.96647  21568575.689    21568574.8064   21568579.9454
        -0.000          -0.000
 97  3  8  1 35 29.9980000  0  7  4  9 24 30  6  5 10               -0.001020190
 -12973437.478 9 -10073667.82046  22856667.563    22856667.8284   22856671.4054
        -0.000          -0.000
 -13404343.987 9 -10165272.61046  23112715.388    23112715.2404   23112720.7624
        -0.000          -0.000
 -24107644.113 9 -18765845.52349  20463297.122    20463296.8744   20463301.4084
        -0.000          -0.000
 -21599255.176 9 -16553170.96048  21302805.748    21302805.8954   21302809.4674
        -0.000          -0.000
  -9925525.571 9  -7528471.26346  23541815.785    23541815.7414   23541820.8084
        -0.000          -0.000
 -29738717.451 9 -22726239.46849  20000895.482    20000894.9394   20000898.8874
        -0.000          -0.000
 -18947797.389 9 -14515587.89247  21553609.683    21553608.7874   21553613.9454
        -0.000          -0.000
 97  3  8  1 35 59.9980000  0  7  4  9 24 30  6  5 10               -0.001026063
 -12890264.855 9 -10008857.98246  22872494.742    22872495.0214   22872498.5394
        -0.000          -0.000
 -13328888.566 9 -10106476.19146  23127074.212    23127073.9004   23127079.5624
        -0.000          -0.000
 -24072001.529 9 -18738072.07749  20470079.604    20470079.3994   20470083.9254
        -0.000          -0.000
 -21682768.426 9 -16618246.20248  21286913.689    21286913.7864   21286917.4314
        -0.000          -0.000
 -10002007.412 9  -7588067.44746  23527261.706    23527261.6764   23527266.6344
        -0.000          -0.000
 -29766229.001 9 -22747677.03849  19995660.245    19995659.6734   19995663.6434
        -0.000          -0.000
 -19026057.321 9 -14576569.62748  21538717.269    21538716.4374   21538721.5694
        -0.000          -0.000
 97  3  8  1 36 29.9980000  0  7  4  9 24 30  6  5 10               -0.001031946
 -12807025.351 9  -9943996.03446  22888334.713    22888334.8754   22888338.3984
        -0.000          -0.000
 -13253330.508 9 -10047599.81346  23141452.458    23141452.1754   23141457.8334
        -0.000          -0.000
 -24036042.825 9 -18710052.30149  20476922.310    20476922.1224   20476926.5924
        -0.000          -0.000
 -21765949.769 9 -16683062.80948  21271084.760    21271084.8544   21271088.5254
        -0.000          -0.000
 -10078489.123 9  -7647663.51346  23512707.681    23512707.6414   23512712.6054
        -0.000          -0.000
 -29793231.921 9 -22768718.27349  19990521.709    19990521.1604   19990525.1864
        -0.000          -0.000
 -19103921.659 9 -14637243.10248  21523900.203    21523899.3254   21523904.4144
        -0.000          -0.000
 97  3  8  1 36 59.9980000  0  7  4  9 24 30  6  5 10               -0.001037851
 -12723737.003 9  -9879096.02246  22904183.823    22904184.1634   22904187.6784
        -0.000          -0.000
 -13177703.648 9  -9988669.79946  23155843.934    23155843.5934   23155849.1904
        -0.000          -0.000
 -23999799.750 9 -18681810.93349  20483819.187    20483818.9874   20483823.4084
        -0.000          -0.000
 -21848799.694 9 -16747621.17448  21255318.843    21255318.9994   21255322.5804
        -0.000          -0.000
 -10154980.720 9  -7707267.31746  23498151.850    23498151.7684   23498156.6594
        -0.000          -0.000
 -29819739.572 9 -22789373.58049  19985477.527    19985476.9624   19985480.9874
        -0.000          -0.000
 -19181399.729 9 -14697615.59348  21509156.649    21509155.7514   21509160.7584
        -0.000          -0.000
 97  3  8  1 37 29.9980000  0  7  4  9 24 30  6  5 10               -0.001043764
 -12640379.856 9  -9814142.38746  22920046.211    22920046.5814   22920050.1104
        -0.000          -0.000
 -13102000.100 9  -9929680.05846  23170249.948    23170249.6094   23170255.1824
        -0.000          -0.000
 -23963262.613 9 -18653340.42949  20490772.007    20490771.7844   20490776.2544
        -0.000          -0.000
 -21931306.720 9 -16811912.34848  21239618.260    21239618.4584   21239621.9714
        -0.000          -0.000
 -10231462.850 9  -7766863.72846  23483597.928    23483597.7234   23483602.4984
        -0.000          -0.000
 -29845729.662 9 -22809625.59349  19980531.748    19980531.1664   19980535.1834
        -0.000          -0.000
 -19258462.291 9 -14757664.31648  21494492.151    21494491.2034   21494496.2214
        -0.000          -0.000
 97  3  8  1 37 59.9980000  0  7  4  9 24 30  6  5 10               -0.001049682
 -12556943.657 9  -9749127.16646  22935923.640    22935923.9504   22935927.5044
        -0.000          -0.000
 -13026213.487 9  -9870625.56846  23184671.637    23184671.3274   23184676.8914
        -0.000          -0.000
 -23926429.194 9 -18624639.05949  20497781.107    20497780.8924   20497785.4184
        -0.000          -0.000
 -22013476.556 9 -16875940.77248  21223981.881    21223982.0234   21223985.5444
        -0.000          -0.000
 -10307944.400 9  -7826459.66646  23469044.124    23469043.7294   23469048.6204
        -0.000          -0.000
 -29871196.389 9 -22829469.79349  19975685.571    19975685.0214   19975688.9894
        -0.000          -0.000
 -19335111.278 9 -14817390.76648  21479906.231    21479905.3714   21479910.3984
        -0.000          -0.000
 97  3  8  1 38 29.9980000  0  7  4  9 24 30  6  5 10               -0.001055604
 -12473425.009 9  -9684047.69646  22951816.712    22951816.9984   22951820.6174
        -0.000          -0.000
 -12950341.191 9  -9811504.32246  23199109.521    23199109.2414   23199114.8914
        -0.000          -0.000
 -23889293.986 9 -18595702.52149  20504847.631    20504847.4404   20504851.9564
        -0.000          -0.000
 -22095296.090 9 -16939696.22748  21208412.236    21208412.3624   21208415.9004
        -0.000          -0.000
 -10384436.308 9  -7886063.68446  23454488.184    23454487.7464   23454492.7554
        -0.000          -0.000
 -29896152.392 9 -22848916.02449  19970936.609    19970936.0294   19970940.0134
        -0.000          -0.000
 -19411349.425 9 -14876797.08148  21465398.643    21465397.7144   21465402.7394
        -0.000          -0.000
 97  3  8  1 38 59.9980000  0  7  4  9 24 30  6  5 10               -0.001061522
 -12389813.459 9  -9618895.84846  22967727.572    22967727.6944   22967731.3884
        -0.000          -0.000
 -12874374.060 9  -9752309.18246  23213565.550    23213565.3444   23213570.9324
        -0.000          -0.000
 -23851835.629 9 -18566514.17749  20511975.770    20511975.5954   20511980.0004
        -0.000          -0.000
 -22176756.965 9 -17003172.22648  21192910.774    21192910.9234   21192914.3354
        -0.000          -0.000
 -10460934.002 9  -7945672.20746  23439931.231    23439930.8134   23439935.7794
        -0.000          -0.000
 -29920592.707 9 -22867960.42049  19966285.743    19966285.1684   19966289.1534
        -0.000          -0.000
 -19487162.160 9 -14935871.91148  21450972.002    21450971.0524   21450975.9774
        -0.000          -0.000
 97  3  8  1 39 29.9980000  0  7  4  9 24 30  6  5 10               -0.001067449
 -12306129.065 9  -9553687.22746  22983652.019    22983652.2194   22983655.9774
        -0.000          -0.000
 -12798319.625 9  -9693045.99946  23228038.206    23228038.0344   23228043.5054
        -0.000          -0.000
 -23814045.060 9 -18537066.97049  20519167.088    20519166.8564   20519171.2934
        -0.000          -0.000
 -22257878.573 9 -17066383.85248  21177473.859    21177473.9804   21177477.3404
        -0.000          -0.000
 -10537449.503 9  -8005294.64646  23425370.753    23425370.4344   23425375.3214
        -0.000          -0.000
 -29944533.129 9 -22886615.29449  19961730.041    19961729.4624   19961733.4314
        -0.000          -0.000
 -19562564.253 9 -14994626.75248  21436623.379    21436622.4554   21436627.3994
        -0.000          -0.000
 97  3  8  1 39 59.9980000  0  7  4  9 24 30  6  5 10               -0.001073389
 -12222385.896 9  -9488432.81446  22999587.807    22999588.0264   22999591.7204
        -0.000          -0.000
 -12722187.627 9  -9633722.39446  23242525.819    23242525.5044   23242531.0194
        -0.000          -0.000
 -23775916.181 9 -18507356.15249  20526422.815    20526422.5634   20526427.0264
        -0.000          -0.000
 -22338651.271 9 -17129323.59548  21162103.269    21162103.4214   21162106.7984
        -0.000          -0.000
 -10613985.145 9  -8064932.76546  23410806.277    23410806.1174   23410811.1014
        -0.000          -0.000
 -29967985.511 9 -22904889.87649  19957267.170    19957266.5824   19957270.5764
        -0.000          -0.000
 -19637565.735 9 -15053069.44348  21422350.966    21422350.0364   21422355.0194
        -0.000          -0.000
 97  3  8  1 40 29.9980000  0  7  4  9 24 30  6  5 10               -0.001079341
 -12138589.700 9  -9423137.04846  23015533.636    23015533.8974   23015537.5704
        -0.000          -0.000
 -12645977.922 9  -9574338.23846  23257028.101    23257027.7844   23257033.2714
        -0.000          -0.000
 -23737448.440 9 -18477381.27849  20533743.053    20533742.7764   20533747.2124
        -0.000          -0.000
 -22419068.912 9 -17191986.66548  21146800.351    21146800.4654   21146803.8694
        -0.000          -0.000
 -10690531.523 9  -8124579.23446  23396239.669    23396239.6214   23396244.7364
        -0.000          -0.000
 -29990948.324 9 -22922782.97549  19952897.525    19952896.9474   19952900.9134
        -0.000          -0.000
 -19712155.636 9 -15111191.41048  21408156.908    21408156.0324   21408161.0574
        -0.000          -0.000
 97  3  8  1 40 59.9980000  0  7  4  9 24 30  6  5 10               -0.001085316
 -12054763.092 9  -9357817.61146  23031485.348    23031485.5854   23031489.2604
        -0.000          -0.000
 -12569714.454 9  -9514912.18346  23271540.832    23271540.3484   23271545.8164
        -0.000          -0.000
 -23698670.483 9 -18447164.67049  20541122.213    20541121.9774   20541126.3514
        -0.000          -0.000
 -22499144.854 9 -17254383.48348  21131562.398    21131562.5044   21131565.8834
        -0.000          -0.000
 -10767096.661 9  -8184240.31446  23381669.675    23381669.6274   23381674.7724
        -0.000          -0.000
 -30013429.109 9 -22940300.46849  19948619.574    19948618.9694   19948622.9354
        -0.000          -0.000
 -19786355.705 9 -15169009.61148  21394037.263    21394036.2674   21394041.2624
        -0.000          -0.000
 97  3  8  1 41 29.9980000  0  7  4  9 24 30  6  5 10               -0.001091313
 -11970899.944 9  -9292469.70746  23047444.052    23047444.2474   23047447.8824
        -0.000          -0.000
 -12493398.252 9  -9455445.05946  23286063.159    23286062.7644   23286068.4054
        -0.000          -0.000
 -23659586.652 9 -18416709.72649  20548559.569    20548559.3194   20548563.7974
        -0.000          -0.000
 -22578863.557 9 -17316501.93948  21116392.415    21116392.5264   21116395.8234
        -0.000          -0.000
 -10843673.978 9  -8243910.91346  23367097.472    23367097.4254   23367102.4244
        -0.000          -0.000
 -30035419.480 9 -22957435.81949  19944434.936    19944434.3454   19944438.2964
        -0.000          -0.000
 -19860166.747 9 -15226524.67848  21379991.521    21379990.5114   21379995.4414
        -0.000          -0.000
 97  3  8  1 41 59.9980000  0  7  4  9 24 30  6  5 10               -0.001097329
 -11886994.822 9  -9227089.08946  23063410.681    23063410.8534   23063414.6684
        -0.000          -0.000
 -12417028.344 9  -9395936.09646  23300595.948    23300595.5734   23300601.0024
        -0.000          -0.000
 -23620216.615 9 -18386031.77349  20556051.339    20556051.1024   20556055.6654
        -0.000          -0.000
 -22658218.970 9 -17378337.31048  21101291.644    21101291.6904   21101294.9624
        -0.000          -0.000
 -10920258.663 9  -8303587.22646  23352523.818    23352523.7744   23352528.7574
        -0.000          -0.000
 -30056897.035 9 -22974171.56949  19940347.910    19940347.3154   19940351.2524
        -0.000          -0.000
 -19933583.144 9 -15283732.22148  21366020.672    21366019.7424   21366024.7314
        -0.000          -0.000
 97  3  8  1 42 29.9980000  0  7  4  9 24 30  6  5 10               -0.001103357
 -11803039.499 9  -9161669.35346  23079386.869    23079387.0034   23079390.9074
        -0.000          -0.000
 -12340594.194 9  -9336377.02746  23315140.924    23315140.5344   23315145.9784
        -0.000          -0.000
 -23580573.892 9 -18355141.33149  20563595.195    20563594.9294   20563599.4324
        -0.000          -0.000
 -22737209.473 9 -17439888.33948  21086260.185    21086260.2864   21086263.5244
        -0.000          -0.000
 -10996838.215 9  -8363259.56146  23337951.210    23337951.1324   23337956.1594
        -0.000          -0.000
 -30077840.342 9 -22990491.01949  19936362.540    19936361.9244   19936365.8844
        -0.000          -0.000
 -20006596.301 9 -15340625.56748  21352126.682    21352125.8214   21352130.7884
        -0.000          -0.000
 97  3  8  1 42 59.9980000  0  7  4  9 24 30  6  5 10               -0.001109391
 -11719036.362 9  -9096212.35646  23095372.231    23095372.2874   23095376.1434
        -0.000          -0.000
 -12264105.031 9  -9276775.11446  23329696.436    23329696.0074   23329701.4294
        -0.000          -0.000
 -23540670.028 9 -18324047.39849  20571188.660    20571188.3534   20571192.8104
        -0.000          -0.000
 -22815828.814 9 -17501150.14548  21071299.497    21071299.5334   21071302.7914
        -0.000          -0.000
 -11073408.080 9  -8422924.35246  23323380.487    23323380.2904   23323385.3114
        -0.000          -0.000
 -30098256.280 9 -23006399.53749  19932477.454    19932476.8834   19932480.8804
        -0.000          -0.000
 -20079205.337 9 -15397203.99948  21338309.721    21338308.7864   21338313.7434
        -0.000          -0.000
 97  3  8  1 43 29.9980000  0  7  4  9 24 30  6  5 10               -0.001115421
 -11634976.411 9  -9030711.08946  23111368.543    23111368.4424   23111372.2704
        -0.000          -0.000
 -12187545.606 9  -9217118.43646  23344265.177    23344264.7814   23344270.1784
        -0.000          -0.000
 -23500490.146 9 -18292738.38949  20578834.443    20578834.2504   20578838.7644
        -0.000          -0.000
 -22894076.978 9 -17562122.72248  21056409.287    21056409.4014   21056412.7034
        -0.000          -0.000
 -11149954.786 9  -8482571.06746  23308814.152    23308813.8944   23308818.8664
        -0.000          -0.000
 -30118140.420 9 -23021893.66749  19928693.596    19928693.0134   19928697.0534
        -0.000          -0.000
 -20151386.007 9 -15453448.65048  21324574.191    21324573.2454   21324578.1944
        -0.000          -0.000
 97  3  8  1 43 59.9980000  0  7  4  9 24 30  6  5 10               -0.001121443
 -11550861.948 9  -8965167.33746  23127375.011    23127375.0014   23127378.8194
        -0.000          -0.000
 -12110916.932 9  -9157407.81846  23358847.239    23358846.8674   23358852.2234
        -0.000          -0.000
 -23460042.151 9 -18261220.47349  20586531.387    20586531.2214   20586535.7694
        -0.000          -0.000
 -22971969.256 9 -17622817.99048  21041586.909    21041587.0024   21041590.2574
        -0.000          -0.000
 -11226487.356 9  -8542206.79246  23294250.533    23294250.2264   23294254.9214
        -0.000          -0.000
 -30137503.819 9 -23036982.02749  19925008.864    19925008.2844   19925012.3224
        -0.000          -0.000
 -20223132.768 9 -15509355.18148  21310921.127    21310920.1974   21310925.1844
        -0.000          -0.000
 97  3  8  1 44 29.9980000  0  7  4  9 24 30  6  5 10               -0.001127447
 -11466685.768 9  -8899575.48846  23143393.134    23143393.2424   23143396.9224
        -0.000          -0.000
 -12034226.058 9  -9097648.73946  23373441.029    23373440.6544   23373446.0244
        -0.000          -0.000
 -23419322.341 9 -18229490.74449  20594280.223    20594279.9774   20594284.5374
        -0.000          -0.000
 -23049505.617 9 -17683235.92748  21026832.195    21026832.2874   21026835.5674
        -0.000          -0.000
 -11303015.375 9  -8601838.95546  23279687.597    23279687.2984   23279691.9124
        -0.000          -0.000
 -30156377.358 9 -23051688.68049  19921417.347    19921416.7804   19921420.7904
        -0.000          -0.000
 -20294444.277 9 -15564922.56848  21297350.943    21297350.0614   21297355.0164
        -0.000          -0.000
 97  3  8  1 44 59.9980000  0  7  4  9 24 30  6  5 10               -0.001133427
 -11382441.509 9  -8833930.60346  23159424.299    23159424.3434   23159428.0104
        -0.000          -0.000
 -11957463.763 9  -9037833.97446  23388048.474    23388048.0814   23388053.4104
        -0.000          -0.000
 -23378308.361 9 -18197531.78949  20602084.877    20602084.6544   20602089.2374
        -0.000          -0.000
 -23126670.722 9 -17743364.55748  21012148.133    21012148.1534   21012151.4874
        -0.000          -0.000
 -11379537.139 9  -8661466.23246  23265125.862    23265125.6394   23265130.3324
        -0.000          -0.000
 -30174765.201 9 -23066016.86749  19917918.289    19917917.7224   19917921.7164
        -0.000          -0.000
 -20365307.637 9 -15620140.73648  21283866.089    21283865.1774   21283870.0924
        -0.000          -0.000
 97  3  8  1 45 29.9980000  0  7  4  9 24 30  6  5 10               -0.001139397
 -11298141.295 9  -8768242.11346  23175466.012    23175466.0294   23175469.6894
        -0.000          -0.000
 -11880634.081 9  -8977966.72846  23402668.705    23402668.3604   23402673.7094
        -0.000          -0.000
 -23337002.995 9 -18165345.78049  20609945.048    20609944.7924   20609949.3484
        -0.000          -0.000
 -23203470.158 9 -17803208.26448  20997533.579    20997533.6204   20997537.0674
        -0.000          -0.000
 -11456082.548 9  -8721111.93346  23250559.680    23250559.5334   23250564.2544
        -0.000          -0.000
 -30192671.863 9 -23079970.10749  19914510.789    19914510.2214   19914514.1834
        -0.000          -0.000
 -20435741.089 9 -15675023.91648  21270463.133    21270462.1664   21270467.0304
        -0.000          -0.000
 97  3  8  1 45 59.9980000  0  7  4  9 24 30  6  5 10               -0.001145369
 -11213800.177 9  -8702521.75446  23191515.627    23191515.6184   23191519.2604
        -0.000          -0.000
 -11803757.682 9  -8918063.05346  23417297.768    23417297.5124   23417302.8034
        -0.000          -0.000
 -23295416.942 9 -18132941.05449  20617858.646    20617858.3844   20617862.8694
        -0.000          -0.000
 -23279898.675 9 -17862762.93548  20982989.552    20982989.6694   20982993.1824
        -0.000          -0.000
 -11532666.716 9  -8780787.87146  23235986.094    23235985.8934   23235990.7534
        -0.000          -0.000
 -30210100.216 9 -23093550.64149  19911194.290    19911193.7174   19911197.6624
        -0.000          -0.000
 -20505750.014 9 -15729576.29348  21257140.809    21257139.8294   21257144.7604
        -0.000          -0.000
 97  3  8  1 46 29.9980000  0  7  4  9 24 30  6  5 10               -0.001151361
 -11129441.296 9  -8636787.54846  23207568.325    23207568.4454   23207572.1464
        -0.000          -0.000
 -11726842.198 9  -8858128.94146  23431934.287    23431934.0104   23431939.3324
        -0.000          -0.000
 -23253539.602 9 -18100309.35449  20625827.639    20625827.3774   20625831.8924
        -0.000          -0.000
 -23355939.003 9 -17922015.12548  20968519.564    20968519.6364   20968523.1404
        -0.000          -0.000
 -11609280.988 9  -8840487.25646  23221406.600    23221406.4654   23221411.4964
        -0.000          -0.000
 -30227034.198 9 -23106745.94949  19907971.858    19907971.2684   19907975.1914
        -0.000          -0.000
 -20575326.574 9 -15783791.77548  21243900.769    21243899.8444   21243904.7294
        -0.000          -0.000
 97  3  8  1 46 59.9980000  0  7  4  9 24 30  6  5 10               -0.001157383
 -11045084.901 9  -8571055.28646  23223620.837    23223620.9424   23223624.7274
        -0.000          -0.000
 -11649888.034 9  -8798164.69146  23446578.193    23446577.8624   23446583.2094
        -0.000          -0.000
 -23211360.816 9 -18067442.77149  20633853.939    20633853.6804   20633858.2454
        -0.000          -0.000
 -23431583.797 9 -17980959.10548  20954124.831    20954124.9414   20954128.4264
        -0.000          -0.000
 -11685912.003 9  -8900199.68546  23206824.015    23206823.9404   23206829.0474
        -0.000          -0.000
 -30243451.595 9 -23119538.72349  19904847.779    19904847.1714   19904851.0914
        -0.000          -0.000
 -20644464.832 9 -15837665.70748  21230744.132    21230743.1724   21230748.1244
        -0.000          -0.000
 97  3  8  1 47 29.9980000  0  7  4  9 24 30  6  5 10               -0.001163441
 -10960738.011 9  -8505330.45346  23239671.449    23239671.6004   23239675.5634
        -0.000          -0.000
 -11572920.995 9  -8738190.40246  23461224.524    23461224.2034   23461229.6824
        -0.000          -0.000
 -23168890.537 9 -18034349.03848  20641935.732    20641935.5054   20641940.0014
        -0.000          -0.000
 -23506844.287 9 -18039603.61548  20939803.261    20939803.3064   20939806.8364
        -0.000          -0.000
 -11762561.167 9  -8959926.26846  23192238.227    23192238.1174   23192243.1194
        -0.000          -0.000
 -30259354.473 9 -23131930.56949  19901821.535    19901820.9364   19901824.8554
        -0.000          -0.000
 -20713161.088 9 -15891195.22848  21217671.667    21217670.7324   21217675.6664
        -0.000          -0.000
 97  3  8  1 47 59.9980000  0  7  4  9 24 30  6  5 10               -0.001169536
 -10876405.857 9  -8439617.06446  23255719.301    23255719.4704   23255723.4054
        -0.000          -0.000
 -11495963.739 9  -8678223.75046  23475868.871    23475868.5954   23475874.1434
        -0.000          -0.000
 -23126138.069 9 -18001035.41848  20650071.314    20650071.0634   20650075.4704
        -0.000          -0.000
 -23581731.523 9 -18097957.28648  20925552.693    20925552.7514   20925556.3244
        -0.000          -0.000
 -11839211.879 9  -9019654.04846  23177652.225    23177652.0954   23177657.0354
        -0.000          -0.000
 -30274751.060 9 -23143927.90549  19898891.656    19898891.0644   19898894.9604
        -0.000          -0.000
 -20781415.760 9 -15944380.65648  21204683.141    21204682.2244   21204687.1884
        -0.000          -0.000
 97  3  8  1 48 29.9980000  0  7  4  9 24 30  6  5 10               -0.001175661
 -10792076.922 9  -8373906.18646  23271766.694    23271766.6914   23271770.7034
        -0.000          -0.000
 -11419019.716 9  -8618267.37246  23490510.676    23490510.3894   23490516.1204
        -0.000          -0.000
 -23083112.928 9 -17967509.33348  20658258.744    20658258.4854   20658262.9224
        -0.000          -0.000
 -23656242.563 9 -18156017.81748  20911373.705    20911373.7574   20911377.3054
        -0.000          -0.000
 -11915860.377 9  -9079380.08246  23163066.604    23163066.4434   23163071.3744
        -0.000          -0.000
 -30289641.306 9 -23155530.68849  19896058.122    19896057.5064   19896061.4394
        -0.000          -0.000
 -20849237.589 9 -15997228.80848  21191777.004    21191776.1494   21191781.1384
        -0.000          -0.000
 97  3  8  1 48 59.9980000  0  7  4  9 24 30  6  5 10               -0.001181804
 -10707727.321 9  -8308179.21846  23287818.237    23287818.0294   23287821.9654
        -0.000          -0.000
 -11342100.346 9  -8558330.23446  23505147.893    23505147.5654   23505153.4784
        -0.000          -0.000
 -23039834.411 9 -17933785.81249  20666494.301    20666494.0744   20666498.5984
        -0.000          -0.000
 -23730377.695 9 -18213785.43848  20897266.277    20897266.3544   20897269.8264
        -0.000          -0.000
 -11992516.332 9  -9139111.95646  23148479.455    23148479.3314   23148484.1224
        -0.000          -0.000
 -30304037.787 9 -23166748.72149  19893318.540    19893317.9534   19893321.8434
        -0.000          -0.000
 -20916632.351 9 -16049744.18848  21178952.304    21178951.3374   21178956.2804
        -0.000          -0.000
 97  3  8  1 49 29.9980000  0  7  4  9 24 30  6  5 10               -0.001187967
 -10623350.044 9  -8242430.67946  23303874.609    23303874.4444   23303878.3344
        -0.000          -0.000
 -11265215.173 9  -8498419.69546  23519778.847    23519778.5464   23519784.2394
        -0.000          -0.000
 -22996328.295 9 -17899884.93548  20674773.290    20674773.0334   20674777.5754
        -0.000          -0.000
 -23804141.874 9 -18271264.00548  20883229.454    20883229.4914   20883232.9204
        -0.000          -0.000
 -12069199.530 9  -9198865.02646  23133886.992    23133886.9644   23133891.7224
        -0.000          -0.000
 -30317945.072 9 -23177585.55749  19890672.124    19890671.4854   19890675.3594
        -0.000          -0.000
 -20983599.236 9 -16101926.14248  21166208.886    21166207.8994   21166212.8904
        -0.000          -0.000
 97  3  8  1 49 59.9980000  0  7  4  9 24 30  6  5 10               -0.001194141
 -10538944.444 9  -8176660.06946  23319936.126    23319936.2544   23319940.2354
        -0.000          -0.000
 -11188345.053 9  -8438520.94546  23534406.734    23534406.3694   23534412.0904
        -0.000          -0.000
 -22952603.935 9 -17865813.99548  20683093.776    20683093.4924   20683097.9644
        -0.000          -0.000
 -23877515.789 9 -18328438.46448  20869266.793    20869266.8774   20869270.3104
        -0.000          -0.000
 -12145902.215 9  -9258633.31446  23119290.955    23119290.9184   23119295.5904
        -0.000          -0.000
 -30331351.286 9 -23188031.95549  19888120.964    19888120.3514   19888124.2384
        -0.000          -0.000
 -21050134.082 9 -16153771.44648  21153547.598    21153546.6554   21153551.6364
        -0.000          -0.000
 97  3  8  1 50 29.9980000  0  7  4  9 24 30  6  5 10               -0.001200331
 -10454514.155 9  -8110870.21446  23336002.518    23336002.7324   23336006.7684
        -0.000          -0.000
 -11111488.782 9  -8378632.96746  23549031.974    23549031.6454   23549037.4974
        -0.000          -0.000
 -22908666.104 9 -17831576.71448  20691454.865    20691454.5544   20691458.9964
        -0.000          -0.000
 -23950496.780 9 -18385306.75648  20855379.039    20855379.0814   20855382.5054
        -0.000          -0.000
 -12222639.384 9  -9318428.46546  23104688.437    23104688.3174   23104692.8354
        -0.000          -0.000
 -30344255.086 9 -23198086.86349  19885665.424    19885664.8114   19885668.7194
        -0.000          -0.000
 -21116231.625 9 -16205275.99848  21140969.628    21140968.7324   21140973.7094
        -0.000          -0.000
 97  3  8  1 50 59.9980000  0  7  4  9 24 30  6  5 10               -0.001206533
 -10370068.170 9  -8045068.14146  23352072.011    23352072.2474   23352076.1854
        -0.000          -0.000
 -11034625.387 9  -8318739.44846  23563658.500    23563658.2394   23563664.1564
        -0.000          -0.000
 -22864499.766 9 -17797161.37648  20699859.422    20699859.1364   20699863.5824
        -0.000          -0.000
 -24023082.146 9 -18441866.76748  20841566.475    20841566.5344   20841569.9814
        -0.000          -0.000
 -12299407.129 9  -9378247.46546  23090080.168    23090079.9014   23090084.3504
        -0.000          -0.000
 -30356644.376 9 -23207740.85349  19883307.806    19883307.2034   19883311.0814
        -0.000          -0.000
 -21181879.911 9 -16256430.47848  21128477.204    21128476.2904   21128481.2124
        -0.000          -0.000
 97  3  8  1 51 29.9980000  0  7  4  9 24 30  6  5 10               -0.001212747
 -10285623.693 9  -7979267.23846  23368141.328    23368141.5024   23368145.4514
        -0.000          -0.000
 -10957733.246 9  -8258823.54246  23578290.583    23578290.2594   23578296.1614
        -0.000          -0.000
 -22820083.611 9 -17762551.37948  20708311.554    20708311.2744   20708315.7534
        -0.000          -0.000
 -24095260.988 9 -18498110.00348  20827831.274    20827831.3124   20827834.6854
        -0.000          -0.000
 -12376188.380 9  -9438076.94246  23075469.084    23075468.7764   23075473.3854
        -0.000          -0.000
 -30368508.140 9 -23216985.34149  19881050.271    19881049.6464   19881053.5124
        -0.000          -0.000
 -21247080.188 9 -16307235.86248  21116070.127    21116069.1694   21116074.0034
        -0.000          -0.000
 97  3  8  1 51 59.9980000  0  7  4  9 24 30  6  5 10               -0.001218966
 -10201172.718 9  -7913461.26946  23384211.892    23384211.9974   23384216.0154
        -0.000          -0.000
 -10880795.955 9  -8198872.41946  23592931.314    23592931.0534   23592936.7964
        -0.000          -0.000
 -22775393.043 9 -17727727.55148  20716815.870    20716815.5874   20716820.0494
        -0.000          -0.000
 -24167019.161 9 -18554025.45248  20814176.153    20814176.1864   20814179.5554
        -0.000          -0.000
 -12452963.678 9  -9497901.78546  23060859.079    23060858.9494   23060863.4864
        -0.000          -0.000
 -30379829.929 9 -23225807.51149  19878895.782    19878895.1474   19878899.0174
        -0.000          -0.000
 -21311834.076 9 -16357693.40948  21103747.838    21103746.8904   21103751.6924
        -0.000          -0.000
 97  3  8  1 52 29.9980000  0  7  4  9 24 30  6  5 10               -0.001225187
 -10116710.485 9  -7847646.52046  23400284.614    23400284.7694   23400288.6034
        -0.000          -0.000
 -10803803.697 9  -8138878.46946  23607582.678    23607582.3314   23607587.7674
        -0.000          -0.000
 -22730425.576 9 -17692687.95048  20725372.850    20725372.5934   20725377.0014
        -0.000          -0.000
 -24238367.787 9 -18609621.76948  20800598.938    20800598.9754   20800602.3874
        -0.000          -0.000
 -12529754.496 9  -9557738.75546  23046246.403    23046246.1464   23046250.6194
        -0.000          -0.000
 -30390602.449 9 -23234201.67649  19876845.801    19876845.1964   19876849.0954
        -0.000          -0.000
 -21376139.911 9 -16407801.81848  21091510.845    21091509.8624   21091514.6534
        -0.000          -0.000
 97  3  8  1 52 59.9980000  0  7  4  9 24 30  6  5 10               -0.001231406
 -10032241.316 9  -7781826.40146  23416358.662    23416358.7424   23416362.6554
        -0.000          -0.000
 -10726748.050 9  -8078835.14546  23622246.013    23622245.6904   23622250.9794
        -0.000          -0.000
 -22685190.297 9 -17657439.66848  20733980.852    20733980.6044   20733984.9624
        -0.000          -0.000
 -24309300.685 9 -18664894.13948  20787100.749    20787100.8404   20787104.2914
        -0.000          -0.000
 -12606551.809 9  -9617580.79546  23031632.267    23031631.9534   23031636.4344
        -0.000          -0.000
 -30400817.855 9 -23242161.72549  19874901.901    19874901.2624   19874905.1804
        -0.000          -0.000
 -21439988.443 9 -16457553.89348  21079360.788    21079359.8534   21079364.6524
        -0.000          -0.000
 97  3  8  1 53 29.9980000  0  7  4  9 24 30  6  5 10               -0.001237629
  -9947779.071 9  -7716011.63446  23432431.520    23432431.3854   23432435.2574
        -0.000          -0.000
 -10649656.745 9  -8018764.04146  23636916.004    23636915.6744   23636921.1154
        -0.000          -0.000
 -22639713.657 9 -17622003.31948  20742634.771    20742634.5234   20742638.9254
        -0.000          -0.000
 -24379829.661 9 -18719851.77548  20773679.581    20773679.6714   20773683.0564
        -0.000          -0.000
 -12683353.807 9  -9677426.47846  23017017.207    23017016.9014   23017021.4284
        -0.000          -0.000
 -30410491.387 9 -23249699.53649  19873061.078    19873060.4574   19873064.3704
        -0.000          -0.000
 -21503379.281 9 -16506949.32748  21067297.865    21067296.9144   21067301.6944
        -0.000          -0.000
 97  3  8  1 53 59.9980000  0  7  4  9 24 30  6  5 10               -0.001243862
  -9863324.623 9  -7650202.98146  23448502.569    23448502.4304   23448506.4344
        -0.000          -0.000
 -10572556.490 9  -7958685.93946  23651587.700    23651587.4674   23651592.9044
        -0.000          -0.000
 -22594013.592 9 -17586392.87448  20751331.226    20751330.9434   20751335.3734
        -0.000          -0.000
 -24449968.323 9 -18774505.26448  20760332.637    20760332.6814   20760336.0544
        -0.000          -0.000
 -12760164.259 9  -9737278.72946  23002400.532    23002400.2904   23002404.8574
        -0.000          -0.000
 -30419624.532 9 -23256816.27149  19871323.095    19871322.4604   19871326.3704
        -0.000          -0.000
 -21566294.419 9 -16555974.08448  21055325.437    21055324.5524   21055329.2844
        -0.000          -0.000
 97  3  8  1 54 29.9980000  0  7  4  9 24 30  6  5 10               -0.001250116
  -9778900.545 9  -7584417.98646  23464567.803    23464567.8374   23464571.6954
        -0.000          -0.000
 -10495472.259 9  -7898620.30646  23666256.463    23666256.1624   23666261.5494
        -0.000          -0.000
 -22548095.595 9 -17550612.60748  20760069.092    20760068.8334   20760073.2504
        -0.000          -0.000
 -24519708.953 9 -18828848.60448  20747061.380    20747061.4784   20747064.8764
        -0.000          -0.000
 -12836972.904 9  -9797129.58046  22987784.502    22987784.1394   22987788.6924
        -0.000          -0.000
 -30428225.905 9 -23263518.63849  19869686.310    19869685.6734   19869689.6524
        -0.000          -0.000
 -21628719.718 9 -16604617.13848  21043446.279    21043445.3664   21043450.1454
        -0.000          -0.000
 97  3  8  1 54 59.9980000  0  7  4  9 24 30  6  5 10               -0.001256386
  -9694503.399 9  -7518653.96346  23480627.987    23480628.0004   23480631.7744
        -0.000          -0.000
 -10418423.583 9  -7838582.40546  23680918.404    23680918.0624   23680923.4364
        -0.000          -0.000
 -22501932.682 9 -17514641.49548  20768853.612    20768853.3424   20768857.7004
        -0.000          -0.000
 -24589025.442 9 -18882861.43848  20733870.926    20733871.0004   20733874.3984
        -0.000          -0.000
 -12913740.428 9  -9856948.39346  22973176.137    22973175.8314   22973180.3454
        -0.000          -0.000
 -30436308.717 9 -23269816.92949  19868148.194    19868147.5784   19868151.5844
        -0.000          -0.000
 -21690647.421 9 -16652872.46748  21031661.807    21031660.8844   21031665.7304
        -0.000          -0.000
 97  3  8  1 55 29.9980000  0  7  4  9 24 30  6  5 10               -0.001262676
  -9610121.934 9  -7452902.15246  23496685.166    23496685.2734   23496688.9154
        -0.000          -0.000
 -10341427.057 9  -7778585.16746  23695570.235    23695569.9694   23695575.4254
        -0.000          -0.000
 -22455516.275 9 -17478472.85648  20777686.396    20777686.0974   20777690.4564
        -0.000          -0.000
 -24657921.087 9 -18936546.33948  20720760.558    20720760.6364   20720764.0314
        -0.000          -0.000
 -12990483.375 9  -9916748.05346  22958572.430    22958572.2214   22958576.6704
        -0.000          -0.000
 -30443883.332 9 -23275719.22349  19866706.770    19866706.1564   19866710.1854
        -0.000          -0.000
 -21752088.812 9 -16700748.84848  21019969.913    21019968.9884   21019973.8374
        -0.000          -0.000
 97  3  8  1 55 59.9980000  0  7  4  9 24 30  6  5 10               -0.001268979
  -9525731.154 9  -7387143.09846  23512744.243    23512744.3964   23512747.9154
        -0.000          -0.000
 -10264481.225 9  -7718627.40246  23710212.660    23710212.3114   23710217.8954
        -0.000          -0.000
 -22408831.679 9 -17442095.25148  20786570.157    20786569.8374   20786574.2434
        -0.000          -0.000
 -24726385.845 9 -18989895.49548  20707732.187    20707732.2254   20707735.5624
        -0.000          -0.000
 -13067220.204 9  -9976542.95246  22943969.860    22943969.6214   22943974.0134
        -0.000          -0.000
 -30450943.304 9 -23281220.49349  19865363.288    19865362.6764   19865366.7044
        -0.000          -0.000
 -21813039.868 9 -16748243.15048  21008371.292    21008370.3484   21008375.1844
        -0.000          -0.000
 97  3  8  1 56 29.9980000  0  7  4  9 24 30  6  5 10               -0.001275284
  -9441314.389 9  -7321363.77646  23528808.347    23528808.3754   23528811.8434
        -0.000          -0.000
 -10187576.507 9  -7658701.68046  23724847.231    23724846.8304   23724852.3534
        -0.000          -0.000
 -22361883.663 9 -17405512.37848  20795504.020    20795503.7524   20795508.2294
        -0.000          -0.000
 -24794423.157 9 -19042911.56748  20694785.082    20694785.1294   20694788.5104
        -0.000          -0.000
 -13143971.644 9 -10036349.21946  22929364.421    22929364.2614   22929368.6454
        -0.000          -0.000
 -30457507.234 9 -23286335.24249  19864114.206    19864113.6104   19864117.6014
        -0.000          -0.000
 -21873515.966 9 -16795367.36148  20996863.081    20996862.1354   20996866.8654
        -0.000          -0.000
 97  3  8  1 56 59.9980000  0  7  4  9 24 30  6  5 10               -0.001281576
  -9356844.827 9  -7255543.31246  23544882.428    23544882.4384   23544885.8534
        -0.000          -0.000
 -10110703.493 9  -7598800.65846  23739475.497    23739475.1544   23739480.7824
        -0.000          -0.000
 -22314685.710 9 -17368734.74048  20804485.488    20804485.2054   20804489.6694
        -0.000          -0.000
 -24862036.612 9 -19095597.36648  20681918.608    20681918.6764   20681922.1124
        -0.000          -0.000
 -13220751.005 9 -10096177.27446  22914753.808    22914753.6664   22914757.9564
        -0.000          -0.000
 -30463578.337 9 -23291065.96649  19862958.942    19862958.3204   19862962.2914
        -0.000          -0.000
 -21933508.355 9 -16842114.64848  20985446.901    20985445.9584   20985450.6594
        -0.000          -0.000
 97  3  8  1 57 29.9980000  0  7  4  9 24 30  6  5 10               -0.001287849
  -9272311.343 9  -7189673.09046  23560968.626    23560968.5214   23560972.0654
        -0.000          -0.000
 -10033848.179 9  -7538913.42946  23754100.615    23754100.2994   23754106.0494
        -0.000          -0.000
 -22267253.034 9 -17331774.20948  20813511.701    20813511.3364   20813515.7464
        -0.000          -0.000
 -24929204.052 9 -19147935.61748  20669137.057    20669137.1244   20669140.5704
        -0.000          -0.000
 -13297551.625 9 -10156021.87746  22900139.149    22900139.0044   22900143.3164
        -0.000          -0.000
 -30469122.708 9 -23295386.25249  19861903.909    19861903.2904   19861907.2314
        -0.000          -0.000
 -21992987.354 9 -16888461.89248  20974128.380    20974127.4744   20974132.1484
        -0.000          -0.000
 97  3  8  1 57 59.9980000  0  7  4  9 24 30  6  5 10               -0.001294104
  -9187730.039 9  -7123765.56346  23577063.830    23577063.7494   23577067.3764
        -0.000          -0.000
  -9957003.882 9  -7479034.76546  23768723.722    23768723.2854   23768728.9584
        -0.000          -0.000
 -22219595.130 9 -17294638.16848  20822580.708    20822580.3484   20822584.7434
        -0.000          -0.000
 -24995906.591 9 -19199911.61148  20656443.994    20656444.0414   20656447.4124
        -0.000          -0.000
 -13374343.297 9 -10215859.48946  22885526.100    22885525.9514   22885530.4484
        -0.000          -0.000
 -30474134.000 9 -23299291.15149  19860950.308    19860949.6614   19860953.5994
        -0.000          -0.000
 -22051935.101 9 -16934395.17148  20962910.989    20962910.0304   20962914.7274
        -0.000          -0.000
 97  3  8  1 58 29.9980000  0  7  4  9 24 30  6  5 10               -0.001300354
  -9103136.484 9  -7057848.49846  23593161.323    23593161.4344   23593164.9744
        -0.000          -0.000
  -9880181.382 9  -7419173.11146  23783342.523    23783342.1754   23783347.8584
        -0.000          -0.000
 -22171737.712 9 -17257346.67248  20831687.623    20831687.3034   20831691.7354
        -0.000          -0.000
 -25062142.227 9 -19251523.78448  20643839.813    20643839.8074   20643843.1314
        -0.000          -0.000
 -13451121.960 9 -10275686.98246  22870915.459    22870915.3654   22870919.9064
        -0.000          -0.000
 -30478612.621 9 -23302780.98349  19860098.087    19860097.4604   19860101.3494
        -0.000          -0.000
 -22110363.762 9 -16979923.97348  20951792.306    20951791.3674   20951796.0664
        -0.000          -0.000
 97  3  8  1 58 59.9980000  0  7  4  9 24 30  6  5 10               -0.001306619
  -9018555.590 9  -6991941.32746  23609256.504    23609256.6124   23609260.2614
        -0.000          -0.000
  -9803395.723 9  -7359340.16646  23797954.268    23797953.9994   23797959.7314
        -0.000          -0.000
 -22123682.887 9 -17219901.35248  20840832.164    20840831.8324   20840836.2504
        -0.000          -0.000
 -25127889.486 9 -19302755.40548  20631328.458    20631328.5184   20631331.7264
        -0.000          -0.000
 -13527877.490 9 -10335496.45746  22856309.326    22856309.1974   22856313.6874
        -0.000          -0.000
 -30482534.819 9 -23305837.23649  19859351.703    19859351.0474   19859354.9764
        -0.000          -0.000
 -22168270.999 9 -17025046.47748  20940772.847    20940771.9254   20940776.5994
        -0.000          -0.000
 97  3  8  1 59 29.9980000  0  7  4  9 24 30  6  5 10               -0.001312911
  -8934014.532 9  -6926065.15346  23625344.283    23625344.2554   23625347.8584
        -0.000          -0.000
  -9726651.349 8  -7299539.39746  23812558.363    23812557.9094   23812563.7754
        -0.000          -0.000
 -22075423.297 9 -17182296.47648  20850015.640    20850015.3454   20850019.7544
        -0.000          -0.000
 -25193165.245 9 -19353619.62448  20618906.977    20618906.9784   20618910.0884
        -0.000          -0.000
 -13604616.967 9 -10395293.41446  22841706.315    22841706.0864   22841710.6574
        -0.000          -0.000
 -30485896.486 9 -23308456.71449  19858711.935    19858711.3304   19858715.2624
        -0.000          -0.000
 -22225683.692 9 -17069783.61348  20929847.572    20929846.6594   20929851.3644
        -0.000          -0.000
 97  3  8  1 59 59.9980000  0  7  4  9 24 30  6  5 10               -0.001319237
  -8849533.781 9  -6860236.00346  23641420.162    23641420.3454   23641423.9894
        -0.000          -0.000
  -9649949.174 9  -7239771.52446  23827154.262    23827153.8944   23827159.7904
        -0.000          -0.000
 -22026946.255 9 -17144522.15048  20859240.505    20859240.2084   20859244.5904
        -0.000          -0.000
 -25258002.142 9 -19404141.86548  20606568.883    20606568.8994   20606572.0604
        -0.000          -0.000
 -13681370.592 9 -10455101.38146  22827100.585    22827100.2974   22827104.9764
        -0.000          -0.000
 -30488717.681 9 -23310655.04749  19858175.131    19858174.4824   19858178.4314
        -0.000          -0.000
 -22282631.247 9 -17114158.30448  20919010.857    20919009.9314   20919014.6244
        -0.000          -0.000
 97  3  8  2  0 29.9980000  0  7  4  9 24 30  6  5 10               -0.001325596
  -8765105.834 9  -6794447.96946  23657486.140    23657486.4224   23657489.9824
        -0.000          -0.000
  -9573289.909 8  -7180037.05145  23841742.051    23841741.6664   23841747.6774
        -0.000          -0.000
 -21978234.146 9 -17106564.65748  20868510.158    20868509.8414   20868514.2034
        -0.000          -0.000
 -25322405.361 9 -19454326.17748  20594313.326    20594313.3344   20594316.4784
        -0.000          -0.000
 -13758152.264 9 -10514931.19246  22812489.291    22812489.1224   22812493.9334
        -0.000          -0.000
 -30490996.082 9 -23312430.42649  19857741.560    19857740.9024   19857744.8484
        -0.000          -0.000
 -22339118.395 9 -17158174.23648  20908261.749    20908260.7924   20908265.4724
        -0.000          -0.000
 97  3  8  2  0 59.9980000  0  7  4  9 24 30  6  5 10               -0.001331979
  -8680727.089 9  -6728698.29646  23673542.824    23673543.1574   23673546.8214
        -0.000          -0.000
  -9496667.443 8  -7120331.27945  23856322.525    23856322.4524   23856328.4024
        -0.000          -0.000
 -21929272.105 9 -17068412.41148  20877827.322    20877827.0114   20877831.4024
        -0.000          -0.000
 -25386386.383 9 -19504181.51548  20582138.163    20582138.1924   20582141.2914
        -0.000          -0.000
 -13834962.428 9 -10574783.23646  22797872.782    22797872.6814   22797877.4274
        -0.000          -0.000
 -30492742.725 9 -23313791.44549  19857409.190    19857408.5424   19857412.4774
        -0.000          -0.000
 -22395142.157 9 -17201829.09548  20897600.813    20897599.8534   20897604.4524
        -0.000          -0.000
 97  3  8  2  1 29.9980000  0  7  4  9 24 30  6  5 10               -0.001338368
  -8596385.207 9  -6662977.33646  23689592.695    23689592.7874   23689596.7174
        -0.000          -0.000
  -9420068.611 9  -7060643.89845  23870899.038    23870898.7814   23870904.6174
        -0.000          -0.000
 -21880054.555 9 -17030061.06948  20887193.120    20887192.7774   20887197.1444
        -0.000          -0.000
 -25449953.729 9 -19553714.49148  20570041.684    20570041.6974   20570044.8954
        -0.000          -0.000
 -13911791.213 9 -10634649.78446  22783252.744    22783252.6034   22783257.2234
        -0.000          -0.000
 -30493965.073 9 -23314743.92449  19857176.588    19857175.9134   19857179.8814
        -0.000          -0.000
 -22450690.394 9 -17245113.40748  20887030.323    20887029.3604   20887033.9484
        -0.000          -0.000
 97  3  8  2  1 59.9980000  0  7  4  9 24 30  6  5 10               -0.001344751
  -8512055.685 9  -6597266.00346  23705640.312    23705640.1664   23705643.9754
        -0.000          -0.000
  -9343486.908 9  -7000969.88345  23885472.145    23885471.7724   23885477.6784
        -0.000          -0.000
 -21830596.188 9 -16991522.07348  20896604.712    20896604.3624   20896608.7334
        -0.000          -0.000
 -25513079.174 9 -19602903.13548  20558029.219    20558029.2634   20558032.5284
        -0.000          -0.000
 -13988626.170 9 -10694521.12246  22768631.536    22768631.3844   22768636.0164
        -0.000          -0.000
 -30494654.804 9 -23315281.37449  19857045.342    19857044.6844   19857048.6234
        -0.000          -0.000
 -22505734.444 9 -17288004.85948  20876555.802    20876554.8124   20876559.3974
        -0.000          -0.000
 97  3  8  2  2 29.9980000  0  7  4  9 24 30  6  5 10               -0.001351126
  -8427723.117 9  -6531552.29346  23721688.337    23721688.1974   23721691.9764
        -0.000          -0.000
  -9266937.691 9  -6941321.15945  23900038.807    23900038.7074   23900044.6334
        -0.000          -0.000
 -21780921.661 9 -16952814.64448  20906057.399    20906057.0884   20906061.4284
        -0.000          -0.000
 -25575747.464 9 -19651735.55848  20546103.798    20546103.8384   20546107.1064
        -0.000          -0.000
 -14065451.998 9 -10754385.35547  22754011.977    22754011.8264   22754016.5914
        -0.000          -0.000
 -30494805.644 9 -23315398.91349  19857016.676    19857016.0144   19857019.9524
        -0.000          -0.000
 -22560266.430 9 -17330497.28848  20866178.675    20866177.6864   20866182.3304
        -0.000          -0.000
 97  3  8  2  2 59.9980000  0  7  4  9 24 30  6  5 10               -0.001357487
  -8343379.129 8  -6465829.71945  23737738.191    23737738.0674   23737742.1014
        -0.000          -0.000
  -9190423.691 9  -6881699.89345  23914599.025    23914598.8874   23914604.7934
        -0.000          -0.000
 -21731048.952 9 -16913952.78048  20915547.922    20915547.5784   20915551.8704
        -0.000          -0.000
 -25637948.540 9 -19700203.92548  20534267.215    20534267.3134   20534270.5614
        -0.000          -0.000
 -14142263.501 9 -10814238.42447  22739395.250    22739395.0844   22739399.8974
        -0.000          -0.000
 -30494416.724 9 -23315095.86449  19857090.674    19857090.0134   19857093.9674
        -0.000          -0.000
 -22614270.912 9 -17372578.68148  20855901.908    20855900.9204   20855905.5924
        -0.000          -0.000
 97  3  8  2  3 29.9980000  0  7  4  9 24 30  6  5 10               -0.001363831
  -8259009.928 9  -6400087.45845  23753792.869    23753792.8824   23753796.9564
        -0.000          -0.000
  -9113951.175 9  -6822110.95045  23929151.483    23929151.1734   23929156.9864
        -0.000          -0.000
 -21680983.373 9 -16874940.63548  20925075.123    20925074.7424   20925079.0224
        -0.000          -0.000
 -25699657.612 9 -19748288.90248  20522524.396    20522524.4324   20522527.7284
        -0.000          -0.000
 -14219042.615 9 -10874066.27447  22724784.685    22724784.5294   22724789.2524
        -0.000          -0.000
 -30493475.446 9 -23314362.40349  19857269.742    19857269.1094   19857273.0794
        -0.000          -0.000
 -22667722.419 9 -17414229.17948  20845730.335    20845729.3924   20845734.1194
        -0.000          -0.000
 97  3  8  2  3 59.9980000  0  7  4  9 24 30  6  5 10               -0.001370173
  -8174640.467 9  -6334345.02445  23769848.043    23769847.8374   23769851.9204
        -0.000          -0.000
  -9037543.742 9  -6762572.69245  23943691.540    23943691.0384   23943696.8134
        -0.000          -0.000
 -21630735.701 9 -16835786.59548  20934636.898    20934636.5334   20934640.8624
        -0.000          -0.000
 -25760873.753 9 -19795989.78248  20510875.350    20510875.4164   20510878.6964
        -0.000          -0.000
 -14295792.110 9 -10933871.04547  22710179.808    22710179.6404   22710184.1544
        -0.000          -0.000
 -30491987.030 9 -23313202.59749  19857552.982    19857552.3334   19857556.3024
        -0.000          -0.000
 -22720624.619 9 -17455451.64548  20835663.325    20835662.3614   20835667.1364
        -0.000          -0.000
 97  3  8  2  4 29.9980000  0  7  4  9 24 30  6  5 10               -0.001376532
  -8090299.940 9  -6268625.16545  23785897.683    23785897.3654   23785901.4614
        -0.000          -0.000
  -8961224.229 9  -6703102.98645  23958214.596    23958214.1044   23958219.8324
        -0.000          -0.000
 -21580299.802 9 -16796485.89148  20944234.447    20944234.1384   20944238.4974
        -0.000          -0.000
 -25821605.205 9 -19843312.98148  20499318.573    20499318.6074   20499321.8854
        -0.000          -0.000
 -14372517.816 9 -10993657.26047  22695579.530    22695579.2374   22695583.6234
        -0.000          -0.000
 -30489964.889 9 -23311626.90049  19857937.792    19857937.1364   19857941.0984
        -0.000          -0.000
 -22772982.229 9 -17496249.76248  20825700.047    20825699.1084   20825703.8254
        -0.000          -0.000
 97  3  8  2  4 59.9980000  0  7  4  9 24 30  6  5 10               -0.001382917
  -8006016.953 9  -6202950.07146  23801936.167    23801936.0624   23801939.9284
        -0.000          -0.000
  -8884997.160 9  -6643705.28945  23972720.095    23972719.7214   23972725.3674
        -0.000          -0.000
 -21529678.665 9 -16757040.85148  20953867.282    20953866.9604   20953871.3244
        -0.000          -0.000
 -25881863.260 9 -19890267.30148  20487851.873    20487851.9254   20487855.1374
        -0.000          -0.000
 -14449228.490 9 -11053431.77547  22680982.072    22680981.7234   22680985.9754
        -0.000          -0.000
 -30487419.475 9 -23309643.45749  19858422.099    19858421.4714   19858425.4704
        -0.000          -0.000
 -22824802.534 9 -17536629.19048  20815839.019    20815837.9854   20815842.6814
        -0.000          -0.000
 97  3  8  2  5 29.9980000  0  7  4  9 24 30  6  5 10               -0.001389327
  -7921799.371 9  -6137325.94646  23817962.186    23817962.1774   23817965.9874
        -0.000          -0.000
  -8808855.643 9  -6584374.26046  23987209.430    23987209.0614   23987214.6144
        -0.000          -0.000
 -21478859.514 9 -16717441.50548  20963537.837    20963537.5554   20963541.8934
        -0.000          -0.000
 -25941656.013 9 -19936859.04948  20476473.769    20476473.7824   20476476.9364
        -0.000          -0.000
 -14525923.012 9 -11113193.69447  22666387.476    22666387.1874   22666391.4214
        -0.000          -0.000
 -30484346.159 9 -23307248.66649  19859006.962    19859006.3164   19859010.2844
        -0.000          -0.000
 -22876097.023 9 -17576598.89748  20806077.972    20806076.9534   20806081.6184
        -0.000          -0.000
 97  3  8  2  5 59.9980000  0  7  4  9 24 30  6  5 10               -0.001395764
  -7837654.626 9  -6071758.62446  23833974.503    23833974.4234   23833978.2974
        -0.000          -0.000
  -8732801.556 9  -6525111.36245  24001681.910    24001681.5814   24001687.1634
        -0.000          -0.000
 -21427844.200 9 -16677689.30948  20973245.732    20973245.4344   20973249.8234
        -0.000          -0.000
 -26001002.401 9 -19983102.97548  20465180.507    20465180.5604   20465183.7404
        -0.000          -0.000
 -14602625.330 9 -11172961.69247  22651791.387    22651791.2124   22651795.4264
        -0.000          -0.000
 -30480756.429 9 -23304451.48149  19859690.057    19859689.4234   19859693.3974
        -0.000          -0.000
 -22926891.624 9 -17616179.08248  20796412.033    20796411.0244   20796415.7134
        -0.000          -0.000
 97  3  8  2  6 29.9980000  0  7  4  9 24 30  6  5 10               -0.001402208
  -7753547.651 9  -6006220.73046  23849979.516    23849979.4124   23849983.2894
        -0.000          -0.000
  -8656810.479 9  -6465897.58145  24016142.491    24016142.1514   24016147.8244
        -0.000          -0.000
 -21376618.584 9 -16637773.24248  20982993.655    20982993.3564   20982997.8254
        -0.000          -0.000
 -26059889.606 9 -20028989.10248  20453974.668    20453974.6884   20453977.8774
        -0.000          -0.000
 -14679343.731 9 -11232742.22647  22637192.367    22637192.1284   22637196.3064
        -0.000          -0.000
 -30476645.744 9 -23301248.35849  19860472.286    19860471.6624   19860475.6214
        -0.000          -0.000
 -22977173.361 9 -17655359.63348  20786843.714    20786842.7084   20786847.3564
        -0.000          -0.000
 97  3  8  2  6 59.9980000  0  7  4  9 24 30  6  5 10               -0.001408657
  -7669474.027 9  -5940708.77945  23865978.264    23865978.0574   23865981.9064
        -0.000          -0.000
  -8580882.466 9  -6406732.92246  24030591.289    24030590.8884   24030596.4944
        -0.000          -0.000
 -21325193.374 9 -16597701.64848  20992779.491    20992779.2214   20992783.7154
        -0.000          -0.000
 -26118323.052 9 -20074521.65048  20442855.164    20442855.1764   20442858.3814
        -0.000          -0.000
 -14756090.094 9 -11292544.53847  22622587.989    22622587.6984   22622591.9794
        -0.000          -0.000
 -30472015.179 9 -23297640.12949  19861353.481    19861352.8414   19861356.8104
        -0.000          -0.000
 -23026947.927 9 -17694144.98348  20777371.888    20777370.9054   20777375.5384
        -0.000          -0.000
 97  3  8  2  7 29.9980000  0  7  4  9 24 30  6  5 10               -0.001415118
  -7585431.365 9  -5875220.98145  23881970.912    23881970.7954   23881974.5284
        -0.000          -0.000
  -8505036.701 9  -6347632.36446  24045024.317    24045024.0564   24045029.5964
        -0.000          -0.000
 -21273572.962 9 -16557477.95248  21002602.539    21002602.2114   21002606.6684
        -0.000          -0.000
 -26176297.329 9 -20119696.40548  20431822.985    20431823.0334   20431826.2904
        -0.000          -0.000
 -14832876.885 9 -11352378.37147  22607975.990    22607975.6444   22607979.8904
        -0.000          -0.000
 -30466859.161 9 -23293622.45149  19862334.636    19862333.9724   19862337.9684
        -0.000          -0.000
 -23076212.512 9 -17732532.94848  20767997.134    20767996.1554   20768000.7924
        -0.000          -0.000
 97  3  8  2  7 59.9980000  0  7  4  9 24 30  6  5 10               -0.001421596
  -7501418.115 9  -5809756.11345  23897958.339    23897958.2574   23897961.6484
        -0.000          -0.000
  -8429279.883 9  -6288601.11746  24059440.341    24059440.0174   24059445.7894
        -0.000          -0.000
 -21221757.578 9 -16517102.30848  21012462.580    21012462.3154   21012466.7154
        -0.000          -0.000
 -26233796.185 9 -20164500.70148  20420881.364    20420881.3884   20420884.6404
        -0.000          -0.000
 -14909703.481 9 -11412243.22047  22593356.298    22593355.9854   22593360.1474
        -0.000          -0.000
 -30461169.723 9 -23289189.11349  19863417.305    19863416.6534   19863420.6204
        -0.000          -0.000
 -23124949.260 9 -17770509.61148  20758722.779    20758721.8264   20758726.4734
        -0.000          -0.000
 97  3  8  2  8 29.9980000  0  7  4  9 24 30  6  5 10               -0.001428092
  -7417437.452 8  -5744316.61545  23913939.445    23913939.2944   23913942.4914
        -0.000          -0.000
  -8353612.165 9  -6229639.28346  24073839.511    24073839.1084   24073844.9454
        -0.000          -0.000
 -21169748.301 9 -16476575.59148  21022359.660    21022359.3734   21022363.7094
        -0.000          -0.000
 -26290793.093 9 -20208913.87248  20410035.242    20410035.2474   20410038.5314
        -0.000          -0.000
 -14986551.752 9 -11472124.95847  22578732.469    22578732.1394   22578736.2524
        -0.000          -0.000
 -30454925.266 9 -23284323.30349  19864605.622    19864604.9504   19864608.8934
        -0.000          -0.000
 -23173150.458 9 -17808068.95748  20749550.407    20749549.4264   20749554.1144
        -0.000          -0.000
 97  3  8  2  8 59.9980000  0  7  4  9 24 30  6  5 10               -0.001434610
  -7333503.406 9  -5678913.44645  23929911.371    23929911.2974   23929914.5684
        -0.000          -0.000
  -8278038.626 9  -6170750.85546  24088220.519    24088220.2324   24088226.2504
        -0.000          -0.000
 -21117552.352 9 -16435903.41748  21032292.287    21032291.9674   21032296.3334
        -0.000          -0.000
 -26347294.159 9 -20252940.66348  20399283.380    20399283.3604   20399286.6834
        -0.000          -0.000
 -15063399.045 9 -11532005.94147  22564108.934    22564108.5034   22564112.6614
        -0.000          -0.000
 -30448112.834 9 -23279014.91149  19865901.980    19865901.3134   19865905.2334
        -0.000          -0.000
 -23220818.907 9 -17845213.18148  20740479.429    20740478.4164   20740483.0624
        -0.000          -0.000
 97  3  8  2  9 29.9980000  0  7  4  9 24 30  6  5 10               -0.001441132
  -7249608.162 9  -5613540.50245  23945876.041    23945875.8954   23945879.3304
        -0.000          -0.000
  -8202535.853 9  -6111917.55146  24102588.322    24102587.8764   24102594.0304
        -0.000          -0.000
 -21065161.430 9 -16395079.31648  21042261.967    21042261.6554   21042266.0134
        -0.000          -0.000
 -26403285.534 9 -20296570.29948  20388628.587    20388628.5964   20388631.9224
        -0.000          -0.000
 -15140224.310 9 -11591869.74647  22549489.491    22549489.1044   22549493.3154
        -0.000          -0.000
 -30440733.332 9 -23273264.65149  19867306.223    19867305.5514   19867309.4314
        -0.000          -0.000
 -23267953.622 9 -17881941.50848  20731509.951    20731508.9454   20731513.5824
        -0.000          -0.000
 97  3  8  2  9 59.9980000  0  7  4  9 24 30  6  5 10               -0.001447657
  -7165770.467 9  -5548212.41245  23961829.878    23961829.7004   23961833.1384
        -0.000          -0.000
  -8127106.830 8  -6053141.71746  24116942.052    24116941.4694   24116947.6494
        -0.000          -0.000
 -21012601.624 9 -16354123.62048  21052263.903    21052263.4914   21052267.7804
        -0.000          -0.000
 -26458782.919 9 -20339815.01248  20378067.747    20378067.7774   20378071.0604
        -0.000          -0.000
 -15217029.215 9 -11651717.69247  22534874.057    22534873.6324   22534877.8404
        -0.000          -0.000
 -30432817.219 9 -23267096.25149  19868812.579    19868811.9184   19868815.8064
        -0.000          -0.000
 -23314580.673 9 -17918274.25348  20722637.111    20722636.1184   20722640.7134
        -0.000          -0.000
 97  3  8  2 10 29.9980000  0  7  4  9 24 30  6  5 10               -0.001454173
  -7081976.090 9  -5482918.10745  23977775.292    23977775.1224   23977778.5624
        -0.000          -0.000
  -8051741.765 8  -5994415.74645  24131283.579    24131283.0304   24131288.9994
        -0.000          -0.000
 -20959880.919 9 -16313042.54148  21062296.197    21062295.8564   21062300.1184
        -0.000          -0.000
 -26513783.538 9 -20382672.62648  20367601.443    20367601.4534   20367604.7774
        -0.000          -0.000
 -15293800.885 9 -11711539.74247  22520264.869    22520264.4054   22520268.5684
        -0.000          -0.000
 -30424362.152 9 -23260507.88749  19870421.530    19870420.8644   19870424.7484
        -0.000          -0.000
 -23360695.620 9 -17954207.95048  20713861.636    20713860.6634   20713865.3564
        -0.000          -0.000
 97  3  8  2 10 59.9980000  0  7  4  9 24 30  6  5 10               -0.001460681
  -6998225.538 9  -5417657.94745  23993712.504    23993712.2384   23993715.7514
        -0.000          -0.000
  -7976451.433 8  -5935747.99345  24145610.936    24145610.4414   24145616.2794
        -0.000          -0.000
 -20907008.782 9 -16271843.46348  21072357.464    21072357.0814   21072361.3584
        -0.000          -0.000
 -26568309.450 9 -20425160.34148  20357225.494    20357225.5264   20357228.8404
        -0.000          -0.000
 -15370550.994 9 -11771344.98247  22505659.859    22505659.4364   22505663.4954
        -0.000          -0.000
 -30415383.194 9 -23253511.29149  19872130.233    19872129.5414   19872133.3664
        -0.000          -0.000
 -23406289.623 9 -17989735.72248  20705185.338    20705184.3694   20705189.0604
        -0.000          -0.000
 97  3  8  2 11 29.9980000  0  7  4  9 24 30  6  5 10               -0.001467180
  -6914501.587 9  -5352418.49245  24009644.487    24009644.4194   24009647.8994
        -0.000          -0.000
  -7901244.846 8  -5877145.51545  24159922.146    24159921.7554   24159927.8514
        -0.000          -0.000
 -20853976.826 9 -16230519.85648  21082449.088    21082448.7354   21082453.0594
        -0.000          -0.000
 -26622345.488 9 -20467266.33548  20346942.834    20346942.8344   20346946.0944
        -0.000          -0.000
 -15447278.838 9 -11831132.89347  22491059.021    22491058.6444   22491062.6384
        -0.000          -0.000
 -30405877.273 9 -23246104.08449  19873939.135    19873938.4594   19873942.2654
        -0.000          -0.000
 -23451352.232 9 -18024849.41848  20696610.197    20696609.2364   20696613.8994
        -0.000          -0.000
 97  3  8  2 11 59.9980000  0  7  4  9 24 30  6  5 10               -0.001473675
  -6830790.065 8  -5287188.70545  24025574.216    24025574.2014   24025577.6094
        -0.000          -0.000
  -7826139.607 8  -5818621.97845  24174214.096    24174213.8204   24174219.8574
        -0.000          -0.000
 -20800778.310 9 -16189066.45948  21092572.357    21092572.0464   21092576.4314
        -0.000          -0.000
 -26675887.780 9 -20508987.58948  20336754.025    20336754.0584   20336757.2904
        -0.000          -0.000
 -15523978.515 9 -11890898.82847  22476463.452    22476463.1094   22476467.0714
        -0.000          -0.000
 -30395816.946 9 -23238264.87449  19875853.578    19875852.9034   19875856.7094
        -0.000          -0.000
 -23495848.643 9 -18059521.92648  20688142.869    20688141.8774   20688146.4374
        -0.000          -0.000
 97  3  8  2 12 29.9980000  0  7  4  9 24 30  6  5 10               -0.001480174
  -6747100.982 9  -5221976.45245  24041499.573    24041499.7164   24041503.1674
        -0.000          -0.000
  -7751154.096 8  -5760191.77345  24188483.722    24188483.5714   24188489.0804
        -0.000          -0.000
 -20747416.683 9 -16147485.96648  21102726.720    21102726.3774   21102730.8174
        -0.000          -0.000
 -26728957.736 9 -20550340.79549  20326655.190    20326655.2294   20326658.4374
        -0.000          -0.000
 -15600672.051 9 -11950660.00047  22461869.103    22461868.7424   22461872.7804
        -0.000          -0.000
 -30385213.218 9 -23230002.23349  19877871.395    19877870.7264   19877874.5514
        -0.000          -0.000
 -23539770.939 9 -18093747.06748  20679784.739    20679783.7244   20679788.2644
        -0.000          -0.000
 97  3  8  2 12 59.9980000  0  7  4  9 24 30  6  5 10               -0.001486695
  -6663465.439 9  -5156805.91045  24057415.037    24057415.0184   24057418.5474
        -0.000          -0.000
  -7676307.735 8  -5701870.01745  24202726.472    24202726.2324   24202731.9294
        -0.000          -0.000
 -20693881.106 9 -16105769.92848  21112914.195    21112913.8044   21112918.2344
        -0.000          -0.000
 -26781556.972 9 -20591327.20349  20316645.929    20316645.8994   20316649.0884
        -0.000          -0.000
 -15677367.386 9 -12010422.55147  22447274.342    22447273.9864   22447278.1344
        -0.000          -0.000
 -30374080.142 9 -23221327.11049  19879989.963    19879989.2904   19879993.1244
        -0.000          -0.000
 -23583129.695 9 -18127533.09148  20671533.773    20671532.7664   20671537.3204
        -0.000          -0.000
 97  3  8  2 13 29.9980000  0  7  4  9 24 30  6  5 10               -0.001493240
  -6579897.080 9  -5091687.69245  24073317.820    24073317.6094   24073321.1164
        -0.000          -0.000
  -7601600.181 8  -5643656.38445  24216942.776    24216942.5994   24216948.2524
        -0.000          -0.000
 -20640172.166 9 -16063918.79648  21123134.679    21123134.3084   21123138.6544
        -0.000          -0.000
 -26833675.593 9 -20631939.10948  20306727.982    20306727.9854   20306731.2334
        -0.000          -0.000
 -15754069.586 9 -12070190.46847  22432678.332    22432678.0404   22432682.1524
        -0.000          -0.000
 -30362427.666 9 -23212247.26149  19882207.326    19882206.6654   19882210.5254
        -0.000          -0.000
 -23625936.128 9 -18160888.73648  20663387.986    20663386.9454   20663391.4974
        -0.000          -0.000
 97  3  8  2 13 59.9980000  0  7  4  9 24 30  6  5 10               -0.001499810
  -6496415.701 9  -5026637.26445  24089203.973    24089203.6014   24089207.2044
        -0.000          -0.000
  -7527020.099 9  -5585542.05345  24231135.128    24231134.8344   24231140.4024
        -0.000          -0.000
 -20586290.332 9 -16021932.94148  21133388.081    21133387.7104   21133391.9874
        -0.000          -0.000
 -26885313.999 9 -20672176.82548  20296901.491    20296901.5084   20296904.7324
        -0.000          -0.000
 -15830778.689 9 -12129963.76947  22418081.201    22418080.8154   22418084.8064
        -0.000          -0.000
 -30350260.302 9 -23202766.20549  19884522.707    19884522.0324   19884525.8684
        -0.000          -0.000
 -23668191.152 9 -18193814.70348  20655347.119    20655346.0614   20655350.6154
        -0.000          -0.000
 97  3  8  2 14 29.9980000  0  7  4  9 24 30  6  5 10               -0.001506393
  -6413017.228 8  -4961651.41645  24105074.064    24105073.8354   24105077.2904
        -0.000          -0.000
  -7452545.179 8  -5527509.69745  24245307.319    24245306.8544   24245312.5384
        -0.000          -0.000
 -20532214.430 9 -15979795.87448  21143678.402    21143678.0364   21143682.3094
        -0.000          -0.000
 -26936441.350 9 -20712016.30649  20287172.188    20287172.2434   20287175.5284
        -0.000          -0.000
 -15907480.281 9 -12189731.18947  22403485.301    22403484.9304   22403489.0404
        -0.000          -0.000
 -30337578.126 9 -23192883.99249  19886936.023    19886935.3414   19886939.1874
        -0.000          -0.000
 -23709900.852 9 -18226315.75148  20647410.041    20647408.9864   20647413.5274
        -0.000          -0.000
 97  3  8  2 14 59.9980000  0  7  4  9 24 30  6  5 10               -0.001512998
  -6329708.617 8  -4896735.61645  24120927.045    24120926.9804   24120930.2724
        -0.000          -0.000
  -7378192.723 8  -5469572.76845  24259455.718    24259455.5184   24259461.5374
        -0.000          -0.000
 -20477957.767 9 -15937517.95548  21154003.056    21154002.7094   21154007.0304
        -0.000          -0.000
 -26987046.983 9 -20751449.26149  20277542.330    20277542.3204   20277545.6004
        -0.000          -0.000
 -15984178.499 9 -12249496.02347  22388890.168    22388889.7844   22388893.7804
        -0.000          -0.000
 -30324382.077 9 -23182601.36349  19889447.146    19889446.4634   19889450.3034
        -0.000          -0.000
 -23751088.269 9 -18258409.81548  20639572.315    20639571.2424   20639575.8054
        -0.000          -0.000
 97  3  8  2 15 29.9980000  0  7  4  9 24 30  6  5 10               -0.001519612
  -6246473.904 8  -4831877.38945  24136766.069    24136765.9544   24136769.4034
        -0.000          -0.000
  -7303960.382 9  -5411729.39845  24273581.943    24273581.6084   24273587.4264
        -0.000          -0.000
 -20423541.104 9 -15895115.36348  21164358.236    21164357.8904   21164362.2304
        -0.000          -0.000
 -27037133.273 9 -20790477.53649  20268011.188    20268011.1984   20268014.4444
        -0.000          -0.000
 -16060868.621 9 -12309254.51447  22374296.355    22374296.0184   22374300.1924
        -0.000          -0.000
 -30310669.865 9 -23171916.53049  19892056.515    19892055.8164   19892059.6804
        -0.000          -0.000
 -23791749.380 9 -18290093.77748  20631834.735    20631833.6694   20631838.2504
        -0.000          -0.000
 97  3  8  2 15 59.9980000  0  7  4  9 24 30  6  5 10               -0.001526233
  -6163303.499 8  -4767069.27745  24152593.037    24152592.7984   24152596.1264
        -0.000          -0.000
  -7229846.485 9  -5353978.29645  24287685.425    24287685.1564   24287690.8644
        -0.000          -0.000
 -20368960.168 9 -15852584.75748  21174744.692    21174744.2904   21174748.6064
        -0.000          -0.000
 -27086689.924 9 -20829093.10849  20258580.813    20258580.8264   20258584.0614
        -0.000          -0.000
 -16137533.284 9 -12368993.18247  22359707.467    22359707.2074   22359711.4054
        -0.000          -0.000
 -30296429.999 9 -23160820.53449  19894766.249    19894765.5704   19894769.4414
        -0.000          -0.000
 -23831868.760 9 -18321355.60648  20624200.171    20624199.1444   20624203.7384
        -0.000          -0.000
 97  3  8  2 16 29.9980000  0  7  4  9 24 30  6  5 10               -0.001532870
  -6080204.548 8  -4702316.82945  24168406.061    24168405.8714   24168409.3854
        -0.000          -0.000
  -7155865.270 9  -5296330.59245  24301763.614    24301763.3204   24301768.8964
        -0.000          -0.000
 -20314229.154 9 -15809937.20548  21185159.695    21185159.2604   21185163.5274
        -0.000          -0.000
 -27135711.219 9 -20867291.50549  20249252.393    20249252.3844   20249255.6554
        -0.000          -0.000
 -16214189.069 9 -12428724.94247  22345120.472    22345120.1854   22345124.3224
        -0.000          -0.000
 -30281660.203 9 -23149311.60949  19897576.834    19897576.1654   19897580.0524
        -0.000          -0.000
 -23871447.348 9 -18352196.04348  20616668.637    20616667.6184   20616672.1554
        -0.000          -0.000
 97  3  8  2 16 59.9980000  0  7  4  9 24 30  6  5 10               -0.001539532
  -5997184.509 8  -4637625.86245  24184204.086    24184204.1434   24184207.2804
        -0.000          -0.000
  -7082025.999 9  -5238793.53545  24315814.688    24315814.2624   24315820.1674
        -0.000          -0.000
 -20259367.002 9 -15767187.47448  21195599.571    21195599.1524   21195603.4394
        -0.000          -0.000
 -27184211.585 9 -20905083.99549  20240023.050    20240023.0844   20240026.3324
        -0.000          -0.000
 -16290840.575 9 -12488453.35247  22330534.282    22330533.9434   22330538.1234
        -0.000          -0.000
 -30266353.850 9 -23137384.58249  19900489.524    19900488.8384   19900492.7494
        -0.000          -0.000
 -23910482.319 9 -18382612.88048  20609240.525    20609239.5404   20609244.0644
        -0.000          -0.000
 97  3  8  2 17 29.9980000  0  7  4  9 24 30  6  5 10               -0.001546211
  -5914250.397 8  -4573001.86745  24199985.664    24199985.9694   24199989.1164
        -0.000          -0.000
  -7008321.695 9  -5181361.64745  24329840.195    24329839.8024   24329845.7394
        -0.000          -0.000
 -20204375.315 9 -15724336.80748  21206064.039    21206063.6684   21206068.0264
        -0.000          -0.000
 -27232203.542 9 -20942480.32049  20230890.544    20230890.5364   20230893.7814
        -0.000          -0.000
 -16367490.589 9 -12548180.58947  22315948.295    22315947.9414   22315952.1974
        -0.000          -0.000
 -30250511.858 9 -23125040.17749  19903504.150    19903503.5114   19903507.3814
        -0.000          -0.000
 -23948960.385 9 -18412595.76948  20601918.394    20601917.3694   20601921.8814
        -0.000          -0.000
 97  3  8  2 17 59.9980000  0  7  4  9 24 30  6  5 10               -0.001552911
  -5831405.430 8  -4508447.33845  24215750.569    24215750.8444   24215754.1304
        -0.000          -0.000
  -6934750.036 9  -5124033.11245  24343840.642    24343840.0704   24343846.0154
        -0.000          -0.000
 -20149251.233 9 -15681382.98048  21216553.858    21216553.4664   21216557.8124
        -0.000          -0.000
 -27279691.772 9 -20979484.13749  20221853.842    20221853.8324   20221857.0894
        -0.000          -0.000
 -16444154.755 9 -12607918.87547  22301359.449    22301359.1904   22301363.4074
        -0.000          -0.000
 -30234125.551 9 -23112271.63549  19906622.404    19906621.7324   19906625.5994
        -0.000          -0.000
 -23986880.608 9 -18442143.97248  20594702.367    20594701.3554   20594705.8954
        -0.000          -0.000
 97  3  8  2 18 29.9980000  0  7  4  9 24 30  6  5 10               -0.001559618
  -5748622.777 9  -4443941.37145  24231503.538    24231503.9984   24231507.0604
        -0.000          -0.000
  -6861292.521 9  -5066793.46845  24357819.140    24357818.4824   24357824.1084
        -0.000          -0.000
 -20093980.927 9 -15638315.20048  21227071.491    21227071.0844   21227075.3624
        -0.000          -0.000
 -27326672.762 9 -21016092.70249  20212913.643    20212913.6714   20212916.8904
        -0.000          -0.000
 -16520820.461 9 -12667658.37647  22286770.504    22286770.2004   22286774.3334
        -0.000          -0.000
 -30217174.872 9 -23099063.31949  19909848.080    19909847.3704   19909851.1744
        -0.000          -0.000
 -24024234.657 9 -18471251.01148  20587594.056    20587593.0964   20587597.5944
        -0.000          -0.000
 97  3  8  2 18 59.9980000  0  7  4  9 24 30  6  5 10               -0.001566319
  -5665885.276 8  -4379470.57145  24247248.012    24247248.4304   24247251.3124
        -0.000          -0.000
  -6787950.668 9  -5009643.99145  24371775.575    24371775.0914   24371780.3884
        -0.000          -0.000
 -20038568.040 9 -15595136.32548  21237616.252    21237615.8354   21237620.0874
        -0.000          -0.000
 -27373161.023 9 -21052317.32149  20204067.260    20204067.2654   20204070.4314
        -0.000          -0.000
 -16597470.510 9 -12727385.64147  22272184.287    22272183.9984   22272188.4014
        -0.000          -0.000
 -30199676.920 9 -23085428.55449  19913177.795    19913177.0944   19913180.9354
        -0.000          -0.000
 -24061022.540 9 -18499916.86648  20580593.578    20580592.5424   20580597.0674
        -0.000          -0.000
 97  3  8  2 19 29.9980000  0  6  4 24 30  6  5 10                  -0.001572953
  -5583189.490 9  -4315032.26545  24262984.295    24262984.7854   24262987.8594
        -0.000          -0.000
 -19983014.249 9 -15551847.65748  21248187.790    21248187.3564   21248191.6054
        -0.000          -0.000
 -27419162.622 9 -21088162.71849  20195313.398    20195313.4254   20195316.5914
        -0.000          -0.000
 -16674112.069 9 -12787106.30247  22257599.851    22257599.5354   22257604.0814
        -0.000          -0.000
 -30181653.517 9 -23071384.35049  19916607.539    19916606.8504   19916610.6674
        -0.000          -0.000
 -24097242.716 9 -18528140.36748  20573701.102    20573700.0844   20573704.5454
        -0.000          -0.000
 97  3  8  2 19 59.9980000  0  6  4 24 30  6  5 10                  -0.001579610
  -5500534.770 9  -4250625.96945  24278713.040    24278713.3074   24278716.6474
        -0.000          -0.000
 -19927316.913 9 -15508447.12748  21258786.616    21258786.1994   21258790.4764
        -0.000          -0.000
 -27464660.400 9 -21123615.53249  20186655.461    20186655.4894   20186658.6444
        -0.000          -0.000
 -16750745.734 9 -12846820.81947  22243017.205    22243016.7104   22243021.1514
        -0.000          -0.000
 -30163108.907 9 -23056934.00949  19920136.437    19920135.7474   19920139.6074
        -0.000          -0.000
 -24132904.464 9 -18555928.71948  20566914.857    20566913.8724   20566918.3884
        -0.000          -0.000
 97  3  8  2 20 29.9980000  0  6  4 24 30  6  5 10                  -0.001586262
  -5417926.785 8  -4186256.12645  24294432.947    24294433.1834   24294436.5874
        -0.000          -0.000
 -19871474.639 9 -15464933.66048  21269413.066    21269412.6524   21269416.9364
        -0.000          -0.000
 -27509626.517 9 -21158654.06049  20178098.701    20178098.7234   20178101.8644
        -0.000          -0.000
 -16827356.758 9 -12906517.68347  22228438.478    22228438.0034   22228442.5034
        -0.000          -0.000
 -30144056.277 9 -23042087.81249  19923761.987    19923761.2974   19923765.1904
        -0.000          -0.000
 -24167992.506 9 -18583270.02848  20560237.828    20560236.7944   20560241.2904
        -0.000          -0.000
 97  3  8  2 20 59.9980000  0  6  4 24 30  6  5 10                  -0.001592926
  -5335382.242 8  -4121935.70445  24310141.014    24310140.9894   24310144.4024
        -0.000          -0.000
 -19815494.519 9 -15421312.78148  21280065.641    21280065.2374   21280069.6134
        -0.000          -0.000
 -27554041.845 9 -21193263.39849  20169646.833    20169646.7944   20169649.8894
        -0.000          -0.000
 -16903953.545 9 -12966203.47147  22213862.553    22213862.1234   22213866.5394
        -0.000          -0.000
 -30124504.821 9 -23026852.92049  19927482.514    19927481.8324   19927485.7354
        -0.000          -0.000
 -24202499.297 9 -18610158.42048  20553671.422    20553670.4004   20553674.8454
        -0.000          -0.000
 97  3  8  2 21 29.9980000  0  6  4 24 30  6  5 10                  -0.001599632
  -5252922.270 9  -4057681.18345  24325832.706    24325832.5374   24325835.8474
        -0.000          -0.000
 -19759373.939 9 -15377582.45648  21290744.924    21290744.6344   21290749.0644
        -0.000          -0.000
 -27597886.225 9 -21227427.84849  20161303.553    20161303.5104   20161306.5754
        -0.000          -0.000
 -16980541.218 9 -13025882.15447  22199288.399    22199287.9834   22199292.3364
        -0.000          -0.000
 -30104438.205 9 -23011216.60449  19931301.062    19931300.3884   19931304.2634
        -0.000          -0.000
 -24236425.118 9 -18636594.10248  20547215.545    20547214.5494   20547218.9964
        -0.000          -0.000
 97  3  8  2 21 59.9980000  0  5 24 30  6  5 10                     -0.001606022
 -19703112.894 9 -15333742.67548  21301451.120    21301450.7924   21301455.1434
        -0.000          -0.000
 -27641144.712 9 -21261135.75349  20153071.708    20153071.6894   20153074.7874
        -0.000          -0.000
 -17057104.780 9 -13085542.03647  22184718.816    22184718.3594   22184722.6404
        -0.000          -0.000
 -30083835.922 9 -22995162.88349  19935221.575    19935220.9044   19935224.7794
        -0.000          -0.000
 -24269778.619 9 -18662583.82448  20540868.544    20540867.5334   20540872.0324
        -0.000          -0.000
 97  3  8  2 22 29.9980000  0  5 24 30  6  5 10                     -0.001612802
 -19646746.718 9 -15289820.96948  21312177.264    21312176.9174   21312181.2464
        -0.000          -0.000
 -27683854.727 9 -21294416.28549  20144944.277    20144944.2754   20144947.3334
        -0.000          -0.000
 -17133656.427 9 -13145192.64747  22170151.441    22170151.0244   22170155.1964
        -0.000          -0.000
 -30062716.082 9 -22978705.87049  19939240.589    19939239.8914   19939243.7534
        -0.000          -0.000
 -24302575.413 9 -18688139.75248  20534627.546    20534626.5444   20534631.0494
        -0.000          -0.000
 97  3  8  2 22 59.9980000  0  5 24 30  6  5 10                     -0.001619611
 -19590261.411 9 -15245806.43848  21322926.062    21322925.7264   21322930.0144
        -0.000          -0.000
 -27726036.383 9 -21327285.10049  20136917.406    20136917.3624   20136920.4224
        -0.000          -0.000
 -17210188.744 9 -13204828.20847  22155587.801    22155587.4464   22155591.4234
        -0.000          -0.000
 -30041060.793 9 -22961831.61849  19943361.459    19943360.7694   19943364.6434
        -0.000          -0.000
 -24334828.777 9 -18713272.21948  20528489.885    20528488.9034   20528493.3854
        -0.000          -0.000
 97  3  8  2 23 29.9980000  0  5 24 30  6  5 10                     -0.001626431
 -19533651.135 9 -15201694.52948  21333698.675    21333698.3384   21333702.6084
        -0.000          -0.000
 -27767711.830 9 -21359759.47049  20128986.818    20128986.8024   20128989.8554
        -0.000          -0.000
 -17286704.874 9 -13264451.14147  22141027.149    22141026.7774   22141030.7584
        -0.000          -0.000
 -30018882.281 9 -22944549.66549  19947581.928    19947581.2574   19947585.1304
        -0.000          -0.000
 -24366550.330 9 -18737990.29148  20522453.513    20522452.5124   20522456.9384
        -0.000          -0.000
 97  3  8  2 23 59.9980000  0  6 17 24 30  6  5 10                  -0.001633636
  -5072570.85318  -2535681.77455  24467340.590    24467339.5535   24467346.4715
        -0.000          -0.000
 -19476908.706 9 -15157479.65048  21344496.400    21344496.0434   21344500.3334
        -0.000          -0.000
 -27808881.915 9 -21391840.05249  20121152.450    20121152.4364   20121155.4684
        -0.000          -0.000
 -17363202.064 9 -13324059.31347  22126469.965    22126469.7044   22126473.7624
        -0.000          -0.000
 -29996177.910 9 -22926857.95349  19951902.444    19951901.7664   19951905.5974
        -0.000          -0.000
 -24397731.146 9 -18762287.01648  20516519.950    20516518.9504   20516523.4004
        -0.000          -0.000
 97  3  8  2 24 29.9980000  0  6 17 24 30  6  5 10                  -0.001640395
  -5173223.961 9  -2614112.62945  24448186.716    24448185.8734   24448192.4654
        -0.000          -0.000
 -19420035.445 9 -15113162.82248  21355318.985    21355318.6414   21355322.9454
        -0.000          -0.000
 -27849551.631 9 -21423530.74049  20113413.220    20113413.2144   20113416.3184
        -0.000          -0.000
 -17439686.264 9 -13383657.35947  22111915.495    22111915.2394   22111919.2754
        -0.000          -0.000
 -29972969.345 9 -22908773.36749  19956318.910    19956318.2184   19956322.0664
        -0.000          -0.000
 -24428349.850 9 -18786145.72748  20510693.365    20510692.3834   20510696.8264
        -0.000          -0.000
 97  3  8  2 24 59.9980000  0  6 17 24 30  6  5 10                  -0.001647152
  -5273772.340 9  -2692461.89045  24429052.812    24429052.0984   24429058.5544
        -0.000          -0.000
 -19363030.417 9 -15068743.30948  21366166.757    21366166.3614   21366170.6534
        -0.000          -0.000
 -27889714.652 9 -21454826.59349  20105770.437    20105770.4054   20105773.5704
        -0.000          -0.000
 -17516168.636 9 -13443253.98047  22097361.414    22097361.1054   22097365.1094
        -0.000          -0.000
 -29949269.407 9 -22890305.88949  19960828.868    19960828.1464   19960832.0154
        -0.000          -0.000
 -24458403.640 9 -18809564.24448  20504974.339    20504973.3424   20504977.7204
        -0.000          -0.000
 97  3  8  2 25 29.9980000  0  6 17 24 30  6  5 10                  -0.001653916
  -5374204.989 8  -2770720.95945  24409941.119    24409940.3404   24409946.8864
        -0.000          -0.000
 -19305899.100 9 -15024225.39848  21377038.406    21377038.0544   21377042.3144
        -0.000          -0.000
 -27929330.025 9 -21485695.71249  20098231.811    20098231.7944   20098234.9684
        -0.000          -0.000
 -17592636.514 9 -13502839.30547  22082810.088    22082809.7394   22082813.7104
        -0.000          -0.000
 -29925066.523 9 -22871446.50649  19965434.474    19965433.7784   19965437.6874
        -0.000          -0.000
 -24487861.667 9 -18832518.53248  20499368.671    20499367.6434   20499371.9834
        -0.000          -0.000
 97  3  8  2 25 59.9980000  0  6 17 24 30  6  5 10                  -0.001660698
  -5474511.844 8  -2848882.04545  24390853.232    24390852.3464   24390858.9664
        -0.000          -0.000
 -19248655.449 9 -14979619.95748  21387931.464    21387931.1134   21387935.3624
        -0.000          -0.000
 -27968382.295 9 -21516126.05449  20090800.389    20090800.3984   20090803.5964
        -0.000          -0.000
 -17669080.283 9 -13562405.84747  22068263.260    22068262.9394   22068266.9624
        -0.000          -0.000
 -29900346.783 9 -22852184.38149  19970138.512    19970137.7814   19970141.7374
        -0.000          -0.000
 -24516716.783 9 -18855003.02348  20493877.703    20493876.6944   20493881.0254
        -0.000          -0.000
 97  3  8  2 26 29.9980000  0  6 17 24 30  6  5 10                  -0.001667494
  -5574690.269 8  -2926943.02745  24371789.836    24371789.0914   24371795.3654
        -0.000          -0.000
 -19191299.786 9 -14934927.23048  21398845.828    21398845.4784   21398849.7584
        -0.000          -0.000
 -28006870.074 9 -21546116.53149  20083476.375    20083476.3794   20083479.6474
        -0.000          -0.000
 -17745499.306 9 -13621953.11247  22053721.242    22053720.9674   22053724.9734
        -0.000          -0.000
 -29875115.510 9 -22832523.65549  19974939.845    19974939.1374   19974943.1234
        -0.000          -0.000
 -24544973.848 9 -18877021.49348  20488500.646    20488499.5674   20488503.8554
        -0.000          -0.000
 97  3  8  2 26 59.9980000  0  6 17 24 30  6  5 10                  -0.001674318
  -5674735.230 8  -3004900.03645  24352751.900    24352751.1114   24352757.4264
        -0.000          -0.000
 -19133833.951 9 -14890148.65648  21409781.155    21409780.8174   21409785.1684
        -0.000          -0.000
 -28044791.260 9 -21575665.49749  20076260.218    20076260.1944   20076263.4944
        -0.000          -0.000
 -17821896.453 9 -13681483.33047  22039183.144    22039182.9414   22039186.9124
        -0.000          -0.000
 -29849355.591 9 -22812450.99949  19979841.779    19979841.0944   19979845.0444
        -0.000          -0.000
 -24572661.463 9 -18898596.24448  20483231.872    20483230.8144   20483235.0304
        -0.000          -0.000
 97  3  8  2 27 29.9980000  0  6 17 24 30  6  5 10                  -0.001681171
  -5774640.248 8  -3082748.00145  24333740.171    24333739.6724   24333746.4874
        -0.000          -0.000
 -19076266.352 9 -14845290.79448  21420735.965    21420735.6134   21420739.9304
        -0.000          -0.000
 -28082151.554 9 -21604777.41349  20069150.763    20069150.7864   20069154.0274
        -0.000          -0.000
 -17898271.892 9 -13740996.63547  22024649.458    22024649.2624   22024653.1054
        -0.000          -0.000
 -29823067.182 9 -22791966.52849  19984844.302    19984843.5814   19984847.5374
        -0.000          -0.000
 -24599801.795 9 -18919744.53248  20478067.202    20478066.1704   20478070.4034
        -0.000          -0.000
 97  3  8  2 27 59.9980000  0  6 17 24 30  6  5 10                  -0.001688031
  -5874392.010 8  -3160476.58645  24314758.352    24314757.5534   24314764.0634
        -0.000          -0.000
 -19018573.550 9 -14800335.36148  21431714.560    21431714.1934   21431718.5184
        -0.000          -0.000
 -28118961.975 9 -21633460.85249  20062146.010    20062146.0154   20062149.2264
        -0.000          -0.000
 -17974614.396 9 -13800484.27947  22010122.027    22010121.7904   22010125.6554
        -0.000          -0.000
 -29796230.291 9 -22771054.67449  19989951.207    19989950.4954   19989954.4544
        -0.000          -0.000
 -24626384.236 9 -18940458.10448  20473008.694    20473007.6524   20473011.9454
        -0.000          -0.000
 97  3  8  2 28 29.9980000  0  6 17 24 30  6  5 10                  -0.001694912
  -5974014.466 8  -3238104.41345  24295800.812    24295800.0084   24295806.4284
        -0.000          -0.000
 -18960767.323 9 -14755291.55048  21442714.856    21442714.4184   21442718.7284
        -0.000          -0.000
 -28155234.795 9 -21661725.38349  20055243.599    20055243.5844   20055246.7894
        -0.000          -0.000
 -18050935.624 9 -13859955.34247  21995598.621    21995598.3644   21995602.2804
        -0.000          -0.000
 -29768860.321 9 -22749727.43549  19995159.544    19995158.8404   19995162.7864
        -0.000          -0.000
 -24652419.755 9 -18960745.50348  20468054.258    20468053.2324   20468057.5174
        -0.000          -0.000
 97  3  8  2 28 59.9980000  0  6 17 24 30  6  5 10                  -0.001701831
  -6073527.105 8  -3315646.66945  24276864.152    24276863.4274   24276869.6344
        -0.000          -0.000
 -18902867.562 9 -14710174.85448  21453732.710    21453732.3404   21453736.6594
        -0.000          -0.000
 -28190975.611 9 -21689575.36349  20048442.318    20048442.2924   20048445.5244
        -0.000          -0.000
 -18127246.550 9 -13919418.37647  21981077.122    21981076.8384   21981080.8084
        -0.000          -0.000
 -29740959.023 9 -22727986.17449  20000469.006    20000468.2744   20000472.2504
        -0.000          -0.000
 -24677902.611 9 -18980602.25348  20463204.952    20463203.9494   20463208.2524
        -0.000          -0.000
 97  3  8  2 29 29.9980000  0  6 17 24 30  6  5 10                  -0.001708775
  -6172921.035 8  -3393096.37945  24257950.191    24257949.6204   24257955.3884
        -0.000          -0.000
 -18844878.262 9 -14664988.39448  21464767.702    21464767.3114   21464771.6254
        -0.000          -0.000
 -28226179.940 9 -21717007.30849  20041743.192    20041743.1604   20041746.4114
        -0.000          -0.000
 -18203551.270 9 -13978876.58047  21966556.739    21966556.5004   21966560.4734
        -0.000          -0.000
 -29712534.475 9 -22705837.17949  20005877.980    20005877.2794   20005881.2304
        -0.000          -0.000
 -24702806.216 9 -19000007.64448  20458465.941    20458464.9194   20458469.2504
        -0.000          -0.000
 97  3  8  2 29 59.9980000  0  6 17 24 30  6  5 10                  -0.001715740
  -6272201.254 8  -3470457.46545  24239057.599    24239057.2004   24239062.6204
        -0.000          -0.000
 -18786797.968 9 -14619731.01648  21475819.980    21475819.5904   21475823.9084
        -0.000          -0.000
 -28260848.523 9 -21744021.78949  20035145.975    20035145.9474   20035149.1814
        -0.000          -0.000
 -18279854.718 9 -14038333.78747  21952036.668    21952036.3524   21952040.3954
        -0.000          -0.000
 -29683597.111 9 -22683288.59649  20011384.620    20011383.9074   20011387.8154
        -0.000          -0.000
 -24727113.940 9 -19018948.70948  20453840.305    20453839.2924   20453843.6184
        -0.000          -0.000
 97  3  8  2 30 29.9980000  0  6 17 24 30  6  5 10                  -0.001722730
  -6371372.605 8  -3547733.80245  24220185.924    24220185.2244   24220191.4064
        -0.000          -0.000
 -18728623.762 9 -14574400.46748  21486890.096    21486889.7764   21486894.0964
        -0.000          -0.000
 -28294964.392 9 -21770605.58349  20028653.918    20028653.8724   20028657.1294
        -0.000          -0.000
 -18356156.928 9 -14097790.03647  21937516.691    21937516.3944   21937520.4654
        -0.000          -0.000
 -29654158.291 9 -22660349.26749  20016986.632    20016985.8994   20016989.8224
        -0.000          -0.000
 -24750822.694 9 -19037423.04748  20449328.678    20449327.6554   20449331.9754
        -0.000          -0.000
 97  3  8  2 30 59.9980000  0  6 17 24 30  6  5 10                  -0.001729721
  -6470402.214 8  -3624899.64645  24201340.971    24201340.3104   24201346.8294
        -0.000          -0.000
 -18670337.817 9 -14528982.84548  21497981.623    21497981.2574   21497985.5574
        -0.000          -0.000
 -28328512.714 9 -21796747.13149  20022269.818    20022269.8114   20022273.0844
        -0.000          -0.000
 -18432445.180 9 -14157235.40547  21922999.465    21922999.1944   21923003.2704
        -0.000          -0.000
 -29624215.277 9 -22637017.06049  20022684.611    20022683.8944   20022687.7954
        -0.000          -0.000
 -24773923.859 9 -19055423.93948  20444932.724    20444931.6884   20444935.9584
        -0.000          -0.000
 97  3  8  2 31 29.9980000  0  6 17 24 30  6  5 10                  -0.001736692
  -6569275.037 8  -3701943.28244  24182526.457    24182525.4844   24182532.0944
        -0.000          -0.000
 -18611922.882 9 -14483464.71548  21509097.701    21509097.2724   21509101.5824
        -0.000          -0.000
 -28361494.631 9 -21822447.32849  20015993.587    20015993.6164   20015996.7704
        -0.000          -0.000
 -18508703.887 9 -14216657.75247  21908488.065    21908487.6604   21908491.8214
        -0.000          -0.000
 -29593778.352 9 -22613299.99049  20028476.615    20028475.8754   20028479.7634
        -0.000          -0.000
 -24796427.780 9 -19072959.45148  20440650.357    20440649.2834   20440653.5424
        -0.000          -0.000
 97  3  8  2 31 59.9980000  0  6 17 24 30  6  5 10                  -0.001743652
  -6667998.450 8  -3778870.51944  24163739.944    24163738.8234   24163745.9164
        -0.000          -0.000
 -18553373.739 9 -14437842.00648  21520239.214    21520238.8194   21520243.1544
        -0.000          -0.000
 -28393912.871 9 -21847708.29249  20009824.709    20009824.6774   20009827.7474
        -0.000          -0.000
 -18584918.773 9 -14276045.95147  21893984.876    21893984.4604   21893988.6524
        -0.000          -0.000
 -29562842.277 9 -22589193.96149  20034363.544    20034362.8194   20034366.6994
        -0.000          -0.000
 -24818344.573 9 -19090037.45748  20436479.659    20436478.6404   20436482.9004
        -0.000          -0.000
 97  3  8  2 32 29.9980000  0  6 17 24 30  6  5 10                  -0.001750607
  -6766565.215 8  -3855675.75144  24144983.231    24144982.1274   24144988.8284
        -0.000          -0.000
 -18494696.651 9 -14392119.59948  21531405.105    21531404.7184   21531409.0114
        -0.000          -0.000
 -28425756.737 9 -21872521.69449  20003764.993    20003764.9524   20003768.0124
        -0.000          -0.000
 -18661079.683 9 -14335392.10147  21879491.998    21879491.5734   21879495.6564
        -0.000          -0.000
 -29531392.278 9 -22564687.47549  20040348.316    20040347.5764   20040351.4384
        -0.000          -0.000
 -24839685.233 9 -19106666.52648  20432418.673    20432417.6524   20432421.9694
        -0.000          -0.000
 97  3  8  2 32 59.9980000  0  6 17 24 30  6  5 10                  -0.001757589
  -6865016.009 8  -3932390.62944  24126248.487    24126247.6374   24126254.0304
        -0.000          -0.000
 -18435950.466 9 -14346343.35948  21542584.227    21542583.7394   21542588.0174
        -0.000          -0.000
 -28457071.602 9 -21896922.89649  19997805.941    19997805.9174   19997809.0054
        -0.000          -0.000
 -18737223.409 9 -14394724.86247  21865002.299    21865001.8744   21865005.9664
        -0.000          -0.000
 -29499475.091 9 -22539816.95949  20046421.949    20046421.2214   20046425.0754
        -0.000          -0.000
 -24860499.473 9 -19122885.40748  20428457.863    20428456.8044   20428461.1424
        -0.000          -0.000
 97  3  8  2 33 29.9980000  0  6 17 24 30  6  5 10                  -0.001764536
  -6963241.227 8  -4008929.74844  24107556.906    24107555.7004   24107562.0684
        -0.000          -0.000
 -18377025.519 9 -14300427.82248  21553797.264    21553796.7774   21553800.9634
        -0.000          -0.000
 -28487741.559 9 -21920821.57549  19991969.635    19991969.6074   19991972.6604
        -0.000          -0.000
 -18813229.425 9 -14453950.32047  21850538.763    21850538.4274   21850542.4804
        -0.000          -0.000
 -29466953.552 9 -22514475.52749  20052610.619    20052609.8774   20052613.7304
        -0.000          -0.000
 -24880660.949 9 -19138595.65048  20424621.257    20424620.2004   20424624.5664
        -0.000          -0.000
 97  3  8  2 33 59.9980000  0  6 17 24 30  6  5 10                  -0.001771519
  -7061327.635 8  -4085360.67144  24088891.068    24088890.1474   24088896.5424
        -0.000          -0.000
 -18318027.295 9 -14254455.18948  21565024.341    21565023.7944   21565027.9754
        -0.000          -0.000
 -28517838.493 9 -21944273.74249  19986242.438    19986242.3624   19986245.4104
        -0.000          -0.000
 -18889196.627 9 -14513145.53647  21836082.763    21836082.4054   21836086.3484
        -0.000          -0.000
 -29433907.358 9 -22488725.26249  20058899.114    20058898.3644   20058902.2684
        -0.000          -0.000
 -24900251.832 9 -19153861.27248  20420893.240    20420892.1614   20420896.5494
        -0.000          -0.000
 97  3  8  2 34 29.9980000  0  6 17 24 30  6  5 10                  -0.001778532
  -7159267.232 8  -4161677.17445  24070253.889    24070253.0704   24070259.6064
        -0.000          -0.000
 -18258972.345 9 -14208438.34848  21576262.064    21576261.5854   21576265.8194
        -0.000          -0.000
 -28547367.281 9 -21967283.19449  19980623.210    19980623.1834   19980626.3154
        -0.000          -0.000
 -18965140.379 9 -14572322.47147  21821631.134    21821630.7894   21821634.7584
        -0.000          -0.000
 -29400351.177 9 -22462577.60849  20065284.601    20065283.8634   20065287.7984
        -0.000          -0.000
 -24919268.462 9 -19168679.41348  20417274.393    20417273.3764   20417277.7394
        -0.000          -0.000
 97  3  8  2 34 59.9980000  0  6 17 24 30  6  5 10                  -0.001785555
  -7257053.450 8  -4237874.16345  24051645.910    24051645.5714   24051651.6234
        -0.000          -0.000
 -18199857.038 9 -14162374.47548  21587511.337    21587510.8674   21587515.1534
        -0.000          -0.000
 -28576339.593 9 -21989859.02349  19975109.974    19975109.9394   19975113.0654
        -0.000          -0.000
 -19041062.758 9 -14631482.75247  21807183.671    21807183.2514   21807187.1894
        -0.000          -0.000
 -29366290.273 9 -22436036.66549  20071766.191    20071765.4264   20071769.3874
        -0.000          -0.000
 -24937681.595 9 -19183027.29348  20413770.511    20413769.4614   20413773.8484
        -0.000          -0.000
 97  3  8  2 35 29.9980000  0  6 17 24 30  6  5 10                  -0.001792568
  -7354661.598 8  -4313932.39445  24033071.670    24033071.2114   24033077.4284
        -0.000          -0.000
 -18140660.170 9 -14116247.06147  21598776.047    21598775.5694   21598779.9924
        -0.000          -0.000
 -28604747.115 9 -22011994.75749  19969704.234    19969704.1914   19969707.2984
        -0.000          -0.000
 -19116953.874 9 -14690618.67947  21792742.078    21792741.6694   21792745.4964
        -0.000          -0.000
 -29331713.441 9 -22409093.70349  20078345.933    20078345.1714   20078349.1704
        -0.000          -0.000
 -24955478.295 9 -19196894.84348  20410383.893    20410382.8564   20410387.2404
        -0.000          -0.000
 97  3  8  2 35 59.9980000  0  6 17 24 30  6  5 10                  -0.001799563
  -7452090.895 8  -4389851.23645  24014531.275    24014530.7574   24014536.9454
        -0.000          -0.000
 -18081378.025 9 -14070053.18747  21610056.988    21610056.5594   21610060.9294
        -0.000          -0.000
 -28632586.624 9 -22033687.88549  19964406.536    19964406.4694   19964409.5604
        -0.000          -0.000
 -19192809.756 9 -14749727.14547  21778307.120    21778306.6634   21778310.4894
        -0.000          -0.000
 -29296641.383 9 -22381764.84149  20085019.929    20085019.1714   20085023.1384
        -0.000          -0.000
 -24972656.905 9 -19210280.76748  20407114.861    20407113.8394   20407118.2414
        -0.000          -0.000
 97  3  8  2 36 29.9980000  0  6 17 24 30  6  5 10                  -0.001806535
  -7549349.734 8  -4465637.27345  23996023.419    23996023.0394   23996028.9674
        -0.000          -0.000
 -18022001.148 9 -14023785.49347  21621355.988    21621355.5774   21621359.9034
        -0.000          -0.000
 -28659867.690 9 -22054945.86249  19959215.097    19959215.0834   19959218.1274
        -0.000          -0.000
 -19268612.450 9 -14808794.16547  21763882.122    21763881.7584   21763885.5904
        -0.000          -0.000
 -29261078.586 9 -22354053.58749  20091787.272    20091786.5464   20091790.5394
        -0.000          -0.000
 -24989213.999 9 -19223182.39048  20403964.090    20403963.0804   20403967.4914
        -0.000          -0.000
 97  3  8  2 36 59.9980000  0  6 17 24 30  6  5 10                  -0.001813500
  -7646446.299 8  -4541296.83845  23977546.510    23977545.7314   23977551.8134
        -0.000          -0.000
 -17962529.218 9 -13977443.72747  21632673.009    21632672.6924   21632677.0384
        -0.000          -0.000
 -28686578.585 9 -22075759.55249  19954132.215    19954132.1724   19954135.2314
        -0.000          -0.000
 -19344354.694 9 -14867814.08747  21749468.757    21749468.4364   21749472.1974
        -0.000          -0.000
 -29225018.089 9 -22325954.51649  20098649.400    20098648.6854   20098652.6314
        -0.000          -0.000
 -25005166.481 9 -19235612.88048  20400928.466    20400927.4324   20400931.8544
        -0.000          -0.000
 97  3  8  2 37 29.9980000  0  6 17 24 30  6  5 10                  -0.001820476
  -7743385.724 9  -4616833.96545  23959099.341    23959098.7614   23959104.7694
        -0.000          -0.000
 -17902962.104 9 -13931027.79747  21644008.363    21644007.9554   21644012.2214
        -0.000          -0.000
 -28712700.721 9 -22096114.46749  19949161.370    19949161.3134   19949164.3584
        -0.000          -0.000
 -19420028.216 9 -14926780.45447  21735068.500    21735068.2154   21735071.8924
        -0.000          -0.000
 -29188456.639 9 -22297465.08949  20105606.921    20105606.1394   20105610.0834
        -0.000          -0.000
 -25020541.778 9 -19247593.62848  20398002.616    20398001.5974   20398005.9604
        -0.000          -0.000
 97  3  8  2 37 59.9980000  0  6 17 24 30  6  5 10                  -0.001827513
  -7840241.218 9  -4692305.68845  23940668.238    23940667.6314   23940673.7244
        -0.000          -0.000
 -17843363.489 9 -13884587.31447  21655349.610    21655349.2134   21655353.4424
        -0.000          -0.000
 -28738292.635 9 -22116056.22049  19944291.331    19944291.2654   19944294.3404
        -0.000          -0.000
 -19495693.095 9 -14985740.07347  21720669.983    21720669.6834   21720673.3324
        -0.000          -0.000
 -29151441.915 9 -22268622.45149  20112650.532    20112649.7624   20112653.7324
        -0.000          -0.000
 -25035396.225 9 -19259168.50148  20395175.920    20395174.8544   20395179.1814
        -0.000          -0.000
 97  3  8  2 38 29.9980000  0  6 17 24 30  6  5 10                  -0.001834758
  -7937231.470 9  -4767882.38845  23922211.510    23922210.9084   23922217.1614
        -0.000          -0.000
 -17783967.870 9 -13838305.00347  21666652.238    21666651.8594   21666656.0894
        -0.000          -0.000
 -28763580.166 9 -22135760.78949  19939479.193    19939479.1364   19939482.2434
        -0.000          -0.000
 -19571583.501 9 -15044875.44047  21706228.723    21706228.2614   21706231.9114
        -0.000          -0.000
 -29114183.582 9 -22239589.99049  20119740.520    20119739.7744   20119743.8104
        -0.000          -0.000
 -25049955.204 9 -19270513.14648  20392405.426    20392404.3824   20392408.6774
        -0.000          -0.000
 97  3  8  2 38 59.9980000  0  6 17 24 30  6  5 10                  -0.001842057
  -8034127.456 9  -4843385.64745  23903772.757    23903772.2434   23903778.3534
        -0.000          -0.000
 -17724555.724 9 -13792009.82347  21677958.116    21677957.6124   21677961.8544
        -0.000          -0.000
 -28788353.567 9 -22155064.73349  19934764.924    19934764.8894   19934768.0404
        -0.000          -0.000
 -19647489.896 9 -15104023.26047  21691784.204    21691783.7514   21691787.3774
        -0.000          -0.000
 -29076469.359 9 -22210202.29549  20126917.366    20126916.6264   20126920.5954
        -0.000          -0.000
 -25064001.740 9 -19281458.48648  20389732.439    20389731.4034   20389735.7604
        -0.000          -0.000
 97  3  8  2 39 29.9980000  0  6 17 24 30  6  5 10                  -0.001849337
  -8130835.066 9  -4918742.13245  23885370.126    23885369.4834   23885375.4984
        -0.000          -0.000
 -17665025.747 9 -13745622.82847  21689286.262    21689285.7404   21689289.9554
        -0.000          -0.000
 -28812529.641 9 -22173903.23149  19930164.356    19930164.3344   19930167.4654
        -0.000          -0.000
 -19723318.149 9 -15163110.19047  21677354.716    21677354.2004   21677357.8394
        -0.000          -0.000
 -29038217.977 9 -22180396.03849  20134196.368    20134195.6464   20134199.6164
        -0.000          -0.000
 -25077433.889 9 -19291925.08248  20387176.341    20387175.3324   20387179.7224
        -0.000          -0.000
 97  3  8  2 39 59.9980000  0  6 17 24 30  6  5 10                  -0.001856583
  -8227341.560 9  -4993941.90245  23867005.368    23867004.6974   23867010.7124
        -0.000          -0.000
 -17605374.005 9 -13699140.95347  21700637.563    21700637.0714   21700641.2084
        -0.000          -0.000
 -28836106.512 9 -22192274.81449  19925677.895    19925677.8504   19925680.9454
        -0.000          -0.000
 -19799079.790 9 -15222145.20847  21662937.777    21662937.2804   21662941.0004
        -0.000          -0.000
 -28999438.868 9 -22150178.56749  20141575.759    20141575.0584   20141579.0304
        -0.000          -0.000
 -25090226.698 9 -19301893.48648  20384741.942    20384740.9084   20384745.3034
        -0.000          -0.000
 97  3  8  2 40 29.9980000  0  6 17 24 30  6  5 10                  -0.001863780
  -8323632.639 9  -5068973.83545  23848681.850    23848681.0924   23848687.0034
        -0.000          -0.000
 -17545601.074 9 -13652564.63047  21712012.009    21712011.4874   21712015.6334
        -0.000          -0.000
 -28859081.308 9 -22210177.25349  19921305.937    19921305.9074   19921308.9854
        -0.000          -0.000
 -19874773.751 9 -15281127.49647  21648533.739    21648533.2324   21648536.9564
        -0.000          -0.000
 -28960149.995 9 -22119563.87849  20149052.169    20149051.4724   20149055.4544
        -0.000          -0.000
 -25102382.231 9 -19311365.31548  20382428.841    20382427.8094   20382432.1364
        -0.000          -0.000
 97  3  8  2 40 59.9980000  0  6 17 24 30  6  5 10                  -0.001870866
  -8419598.527 8  -5143752.33845  23830419.792    23830419.1454   23830425.2504
        -0.000          -0.000
 -17485595.339 9 -13605806.91047  21723430.685    21723430.2324   21723434.3944
        -0.000          -0.000
 -28881336.173 9 -22227518.70349  19917071.016    19917070.9794   19917074.0304
        -0.000          -0.000
 -19950291.097 9 -15339972.16147  21634163.303    21634162.7714   21634166.4634
        -0.000          -0.000
 -28920247.760 9 -22088471.23649  20156645.392    20156644.6454   20156648.6884
        -0.000          -0.000
 -25113801.828 9 -19320263.68248  20380255.798    20380254.7634   20380259.0324
        -0.000          -0.000
 97  3  8  2 41 29.9980000  0  6 17 24 30  6  5 10                  -0.001877611
  -8514861.880 8  -5217983.44645  23812291.716    23812291.0134   23812297.0874
        -0.000          -0.000
 -17424993.381 9 -13558584.60247  21734962.769    21734962.3594   21734966.5224
        -0.000          -0.000
 -28902482.329 9 -22243996.22549  19913047.099    19913047.0344   19913050.0804
        -0.000          -0.000
 -20025268.409 9 -15398396.01047  21619895.426    21619895.0284   21619898.7404
        -0.000          -0.000
 -28879340.365 9 -22056595.34849  20164429.785    20164429.0664   20164433.1404
        -0.000          -0.000
 -25124111.584 9 -19328297.23948  20378293.884    20378292.8414   20378297.1424
        -0.000          -0.000
 97  3  8  2 41 59.9980000  0  6 17 24 30  6  5 10                  -0.001884402
  -8610020.153 8  -5292132.64445  23794183.890    23794183.0904   23794189.2894
        -0.000          -0.000
 -17364407.689 9 -13511374.96847  21746491.615    21746491.3384   21746495.5794
        -0.000          -0.000
 -28923116.435 9 -22260074.74949  19909120.510    19909120.4734   19909123.5514
        -0.000          -0.000
 -20100309.350 9 -15456869.44847  21605615.550    21605615.1744   21605618.8554
        -0.000          -0.000
 -28838019.255 9 -22024397.08949  20172292.939    20172292.1934   20172296.3154
        -0.000          -0.000
 -25133909.384 9 -19335931.87248  20376429.423    20376428.4124   20376432.6864
        -0.000          -0.000
 97  3  8  2 42 29.9980000  0  6 17 24 30  6  5 10                  -0.001891222
  -8705031.831 8  -5366167.59945  23776103.582    23776102.6474   23776109.0494
        -0.000          -0.000
 -17303789.611 9 -13464140.10247  21758026.732    21758026.5224   21758030.8434
        -0.000          -0.000
 -28943187.030 9 -22275714.17649  19905301.144    19905301.1174   19905304.2104
        -0.000          -0.000
 -20175343.025 9 -15515337.22147  21591336.983    21591336.6694   21591340.2684
        -0.000          -0.000
 -28796215.618 9 -21991822.82849  20180247.822    20180247.1064   20180251.2154
        -0.000          -0.000
 -25143153.984 9 -19343135.43848  20374670.234    20374669.1804   20374673.4404
        -0.000          -0.000
 97  3  8  2 42 59.9980000  0  6 17 24 30  6  5 10                  -0.001898106
  -8799956.825 8  -5440135.10345  23758040.146    23758039.1114   23758045.2274
        -0.000          -0.000
 -17243183.082 9 -13416914.22747  21769559.936    21769559.6374   21769563.9124
        -0.000          -0.000
 -28962736.569 9 -22290947.58749  19901581.031    19901580.9924   19901584.0534
        -0.000          -0.000
 -20250412.006 9 -15573832.51347  21577051.791    21577051.4684   21577055.0974
        -0.000          -0.000
 -28753966.290 9 -21958901.28349  20188287.595    20188286.8704   20188290.9644
        -0.000          -0.000
 -25151881.028 9 -19349935.71848  20373009.524    20373008.4804   20373012.7104
        -0.000          -0.000
 97  3  8  2 43 29.9980000  0  6 17 24 30  6  5 10                  -0.001905067
  -8894818.636 8  -5514053.30245  23739988.357    23739987.4794   23739993.5124
        -0.000          -0.000
 -17182592.592 9 -13369700.84947  21781089.929    21781089.6654   21781093.9014
        -0.000          -0.000
 -28981774.042 9 -22305781.98349  19897958.314    19897958.2504   19897961.3274
        -0.000          -0.000
 -20325506.290 9 -15632347.51948  21562761.907    21562761.5514   21562765.1594
        -0.000          -0.000
 -28711297.256 9 -21925652.69249  20196407.265    20196406.5194   20196410.5954
        -0.000          -0.000
 -25160087.808 9 -19356330.59348  20371447.765    20371446.7414   20371450.9894
        -0.000          -0.000
 97  3  8  2 43 59.9980000  0  6 17 24 30  6  5 10                  -0.001912119
  -8989646.379 8  -5587944.95045  23721942.929    23721942.0804   23721948.4194
        -0.000          -0.000
 -17122022.949 9 -13322503.71647  21792616.071    21792615.7364   21792619.8674
        -0.000          -0.000
 -29000312.253 9 -22320227.33949  19894430.597    19894430.5724   19894433.6784
        -0.000          -0.000
 -20400616.844 9 -15690875.19348  21548468.846    21548468.4364   21548472.0204
        -0.000          -0.000
 -28668240.339 9 -21892101.85049  20204600.729    20204600.0064   20204604.0734
        -0.000          -0.000
 -25167791.544 9 -19362333.48548  20369981.726    20369980.7064   20369984.9804
        -0.000          -0.000
 97  3  8  2 44 29.9980000  0  6 17 24 30  6  5 10                  -0.001919227
  -9084391.092 8  -5661771.96845  23703913.904    23703912.9734   23703919.1194
        -0.000          -0.000
 -17061420.617 9 -13275281.10747  21804148.261    21804147.9724   21804152.1164
        -0.000          -0.000
 -29018302.126 9 -22334245.41949  19891007.217    19891007.2024   19891010.3374
        -0.000          -0.000
 -20475684.369 9 -15749369.34248  21534183.809    21534183.4654   21534187.2054
        -0.000          -0.000
 -28624753.249 9 -21858215.80849  20212876.053    20212875.2984   20212879.3874
        -0.000          -0.000
 -25174946.990 9 -19367909.14148  20368620.140    20368619.0784   20368623.3334
        -0.000          -0.000
 97  3  8  2 44 59.9980000  0  6 17 24 30  6  5 10                  -0.001926399
  -9179059.557 8  -5735539.53545  23685899.172    23685897.9444   23685904.0774
        -0.000          -0.000
 -17000793.896 9 -13228039.50947  21815685.036    21815684.8254   21815688.9414
        -0.000          -0.000
 -29035750.230 9 -22347841.34349  19887686.982    19887686.9514   19887690.1104
        -0.000          -0.000
 -20550724.327 9 -15807842.01748  21519904.110    21519903.8014   21519907.5994
        -0.000          -0.000
 -28580868.933 9 -21824020.24749  20221226.850    20221226.1664   20221230.3384
        -0.000          -0.000
 -25181569.323 9 -19373069.38748  20367359.937    20367358.9014   20367363.1794
        -0.000          -0.000
 97  3  8  2 45 29.9980000  0  6 17 24 30  6  5 10                  -0.001933635
  -9273651.693 8  -5809247.67545  23667898.826    23667897.7854   23667903.8674
        -0.000          -0.000
 -16940148.074 9 -13180783.02247  21827225.610    21827225.3574   21827229.4704
        -0.000          -0.000
 -29052660.214 9 -22361017.94849  19884469.108    19884469.0694   19884472.2684
        -0.000          -0.000
 -20625733.894 9 -15866291.01248  21505630.245    21505629.9024   21505633.6864
        -0.000          -0.000
 -28536589.545 9 -21789516.83849  20229652.977    20229652.2234   20229656.4024
        -0.000          -0.000
 -25187672.798 9 -19377825.32148  20366198.523    20366197.4154   20366201.7794
        -0.000          -0.000
 97  3  8  2 45 59.9980000  0  6 17 24 30  6  5 10                  -0.001940937
  -9368177.221 8  -5882903.85345  23649910.999    23649910.0894   23649916.2584
        -0.000          -0.000
 -16879519.185 9 -13133539.72747  21838762.872    21838762.6194   21838766.8004
        -0.000          -0.000
 -29069076.345 9 -22373809.73549  19881345.195    19881345.1614   19881348.4084
        -0.000          -0.000
 -20700765.516 9 -15924757.19148  21491352.209    21491351.8674   21491355.6734
        -0.000          -0.000
 -28491928.216 9 -21754715.81449  20238151.734    20238151.0204   20238155.2034
        -0.000          -0.000
 -25193288.195 9 -19382200.94448  20365129.897    20365128.7954   20365133.1384
        -0.000          -0.000
 97  3  8  2 46 29.9980000  0  6 17 24 30  6  5 10                  -0.001948236
  -9462526.486 8  -5956422.71945  23631957.033    23631955.9874   23631962.0524
        -0.000          -0.000
 -16818821.045 9 -13086242.48247  21850313.439    21850313.1434   21850317.3194
        -0.000          -0.000
 -29084898.339 9 -22386138.56249  19878334.357    19878334.3254   19878337.5814
        -0.000          -0.000
 -20775737.359 9 -15983176.79148  21477085.475    21477085.1244   21477088.9784
        -0.000          -0.000
 -28446789.817 9 -21719543.04949  20246741.298    20246740.5734   20246744.7394
        -0.000          -0.000
 -25198317.174 9 -19386119.61548  20364172.895    20364171.8074   20364176.1484
        -0.000          -0.000
 97  3  8  2 46 59.9980000  0  6 17 24 30  6  5 10                  -0.001955569
  -9556750.754 8  -6029844.22445  23614026.687    23614025.9404   23614031.8044
        -0.000          -0.000
 -16758114.215 9 -13038938.44847  21861865.720    21861865.3064   21861869.4304
        -0.000          -0.000
 -29100180.172 9 -22398046.48649  19875426.341    19875426.2794   19875429.5474
        -0.000          -0.000
 -20850702.346 9 -16041591.04848  21462820.118    21462819.7294   21462823.5354
        -0.000          -0.000
 -28401216.861 9 -21684031.67149  20255413.522    20255412.8194   20255417.0174
        -0.000          -0.000
 -25202800.808 9 -19389613.35048  20363319.686    20363318.5884   20363322.8514
        -0.000          -0.000
 97  3  8  2 47 29.9980000  0  6 17 24 30  6  5 10                  -0.001962938
  -9650849.851 8  -6103168.12445  23596119.874    23596118.9784   23596125.0714
        -0.000          -0.000
 -16697424.452 9 -12991647.71847  21873414.605    21873414.1914   21873418.3294
        -0.000          -0.000
 -29114941.260 9 -22409548.63249  19872617.340    19872617.2934   19872620.5644
        -0.000          -0.000
 -20925678.323 9 -16100013.87548  21448552.646    21448552.2364   21448556.0644
        -0.000          -0.000
 -28355211.347 9 -21648183.23749  20264168.084    20264167.3694   20264171.5834
        -0.000          -0.000
 -25206750.084 9 -19392690.69448  20362568.158    20362567.0584   20362571.3144
        -0.000          -0.000
 97  3  8  2 47 59.9980000  0  6 17 24 30  6  5 10                  -0.001970294
  -9744744.602 8  -6176332.81945  23578251.869    23578251.1764   23578257.6304
        -0.000          -0.000
 -16636707.176 9 -12944335.56247  21884968.662    21884968.2824   21884972.4424
        -0.000          -0.000
 -29129124.190 9 -22420600.27149  19869918.467    19869918.4024   19869921.6034
        -0.000          -0.000
 -21000612.874 9 -16158404.42848  21434293.064    21434292.7284   21434296.4444
        -0.000          -0.000
 -28308728.908 9 -21611963.16848  20273013.442    20273012.6854   20273016.9074
        -0.000          -0.000
 -25210110.528 9 -19395309.21448  20361928.729    20361927.6114   20361931.8794
        -0.000          -0.000
 97  3  8  2 48 29.9980000  0  6 17 24 30  6  5 10                  -0.001977687
  -9838496.970 8  -6249386.58845  23560411.443    23560410.7074   23560416.9834
        -0.000          -0.000
 -16576018.984 9 -12897046.06147  21896517.427    21896516.9164   21896520.9784
        -0.000          -0.000
 -29142767.713 9 -22431231.58749  19867322.168    19867322.0894   19867325.2734
        -0.000          -0.000
 -21075538.201 9 -16216787.78548  21420035.330    21420034.9384   21420038.6194
        -0.000          -0.000
 -28261832.611 9 -21575420.61348  20281937.490    20281936.7674   20281941.0444
        -0.000          -0.000
 -25212938.776 9 -19397513.03248  20361390.514    20361389.4044   20361393.6564
        -0.000          -0.000
 97  3  8  2 48 59.9980000  0  6 17 24 30  6  5 10                  -0.001985096
  -9932090.549 8  -6322316.59045  23542601.302    23542600.4674   23542606.5264
        -0.000          -0.000
 -16515340.851 9 -12849764.39847  21908063.952    21908063.5734   21908067.5594
        -0.000          -0.000
 -29155875.023 9 -22441445.07849  19864827.949    19864827.8664   19864831.0254
        -0.000          -0.000
 -21150438.495 9 -16275151.63648  21405782.256    21405781.8954   21405785.5664
        -0.000          -0.000
 -28214506.188 9 -21538542.89848  20290943.416    20290942.6934   20290946.9734
        -0.000          -0.000
 -25215222.239 9 -19399292.34148  20360955.926    20360954.8644   20360959.0784
        -0.000          -0.000
 97  3  8  2 49 29.9980000  0  6 17 24 30  6  5 10                  -0.001992505
 -10025515.241 8  -6395115.03545  23524823.442    23524822.4244   23524828.1264
        -0.000          -0.000
 -16454654.828 9 -12802476.58247  21919612.027    21919611.7294   21919615.7114
        -0.000          -0.000
 -29168447.190 9 -22451241.58049  19862435.566    19862435.5224   19862438.6464
        -0.000          -0.000
 -21225314.216 9 -16333496.34348  21391533.935    21391533.5694   21391537.1834
        -0.000          -0.000
 -28166757.973 9 -21501336.50848  20300029.625    20300028.8624   20300033.1884
        -0.000          -0.000
 -25216972.376 9 -19400656.07148  20360622.920    20360621.8254   20360625.9964
        -0.000          -0.000
 97  3  8  2 49 59.9980000  0  6 17 24 30  6  5 10                  -0.001999870
 -10118707.765 8  -6467732.54845  23507089.138    23507088.0534   23507093.9944
        -0.000          -0.000
 -16393869.424 9 -12755111.33247  21931179.223    21931178.8214   21931182.7504
        -0.000          -0.000
 -29180403.225 9 -22460557.98149  19860160.425    19860160.3674   19860163.5124
        -0.000          -0.000
 -21300071.636 9 -16391748.86048  21377308.061    21377307.6784   21377311.3364
        -0.000          -0.000
 -28118512.913 9 -21463742.96848  20309210.356    20309209.6174   20309213.9454
        -0.000          -0.000
 -25218104.179 9 -19401537.98748  20360407.516    20360406.4344   20360410.6484
        -0.000          -0.000
 97  3  8  2 50 29.9980000  0  6 17 24 30  6  5 10                  -0.002007256
 -10211778.885 8  -6540255.45845  23489377.921    23489377.0234   23489383.0544
        -0.000          -0.000
 -16333059.773 9 -12707727.18547  21942750.857    21942750.4504   21942754.4554
        -0.000          -0.000
 -29191827.023 9 -22469459.64949  19857986.551    19857986.4724   19857989.6584
        -0.000          -0.000
 -21374796.253 9 -16449975.82148  21363088.385    21363088.0224   21363091.6624
        -0.000          -0.000
 -28069857.211 9 -21425829.43048  20318469.320    20318468.5774   20318472.8154
        -0.000          -0.000
 -25218687.926 9 -19401992.84548  20360296.363    20360295.2914   20360299.5254
        -0.000          -0.000
 97  3  8  2 50 59.9970000  0  6 17 24 30  6  5 10                  -0.002014623
 -10304673.879 9  -6612641.12945  23471700.715    23471699.8094   23471705.6874
        -0.000          -0.000
 -16272179.074 9 -12660287.68147  21954335.917    21954335.6304   21954339.7264
        -0.000          -0.000
 -29202674.663 9 -22477912.36349  19855922.363    19855922.2814   19855925.4844
        -0.000          -0.000
 -21449450.900 9 -16508148.26048  21348882.092    21348881.6874   21348885.3734
        -0.000          -0.000
 -28020740.574 9 -21387556.72948  20327815.955    20327815.2064   20327819.4484
        -0.000          -0.000
 -25218671.108 9 -19401979.72748  20360299.539    20360298.4694   20360302.7124
        -0.000          -0.000
 97  3  8  2 51 29.9970000  0  6 17 24 30  6  5 10                  -0.002021996
 -10397409.590 9  -6684902.67345  23454054.037    23454053.0774   23454058.8014
        -0.000          -0.000
 -16211233.566 9 -12612797.67447  21965933.469    21965933.1714   21965937.3354
        -0.000          -0.000
 -29212920.210 9 -22485895.91849  19853972.679    19853972.6314   19853975.8344
        -0.000          -0.000
 -21524034.480 9 -16566265.31248  21334689.198    21334688.8434   21334692.6714
        -0.000          -0.000
 -27971162.196 9 -21348924.22648  20337250.432    20337249.6654   20337253.8794
        -0.000          -0.000
 -25218049.102 9 -19401495.03748  20360417.900    20360416.8374   20360421.0824
        -0.000          -0.000
 97  3  8  2 51 59.9970000  0  6 17 24 30  6  5 10                  -0.002029404
 -10490002.694 9  -6757053.07245  23436434.226    23436433.2154   23436439.1254
        -0.000          -0.000
 -16150242.495 9 -12565272.16847  21977539.719    21977539.3664   21977543.5674
        -0.000          -0.000
 -29222554.067 9 -22493402.82649  19852139.381    19852139.3304   19852142.5904
        -0.000          -0.000
 -21598554.971 9 -16624333.20848  21320508.356    21320508.0004   21320511.8934
        -0.000          -0.000
 -27921125.014 9 -21309934.22548  20346772.202    20346771.4434   20346775.6464
        -0.000          -0.000
 -25216809.792 9 -19400529.33448  20360653.695    20360652.6434   20360656.8844
        -0.000          -0.000
 97  3  8  2 52 29.9970000  0  6 17 24 30  6  5 10                  -0.002036859
 -10582472.571 9  -6829107.49145  23418837.693    23418836.7674   23418842.5974
        -0.000          -0.000
 -16089229.022 9 -12517729.20047  21989150.098    21989149.8584   21989154.0914
        -0.000          -0.000
 -29231589.997 9 -22500443.81549  19850419.904    19850419.8504   19850423.1124
        -0.000          -0.000
 -21673050.778 9 -16682381.88748  21306332.250    21306331.9134   21306335.6994
        -0.000          -0.000
 -27870642.030 9 -21270596.85948  20356378.881    20356378.1034   20356382.2674
        -0.000          -0.000
 -25214978.880 9 -19399102.64148  20361002.159    20361001.0824   20361005.2984
        -0.000          -0.000
 97  3  8  2 52 59.9970000  0  6 17 24 30  6  5 10                  -0.002044357
 -10674798.955 9  -6901050.10345  23401268.546    23401267.5304   23401273.4714
        -0.000          -0.000
 -16028192.062 9 -12470167.93147  22000765.228    22000764.8474   22000769.1494
        -0.000          -0.000
 -29240012.082 9 -22507006.47949  19848817.269    19848817.2004   19848820.4724
        -0.000          -0.000
 -21747502.843 9 -16740396.46348  21292164.478    21292164.1424   21292167.8964
        -0.000          -0.000
 -27819691.368 9 -21230895.06348  20366074.510    20366073.7204   20366077.8414
        -0.000          -0.000
 -25212569.955 9 -19397225.54548  20361460.491    20361459.4554   20361463.6864
        -0.000          -0.000
 97  3  8  2 53 29.9970000  0  6 17 24 30  6  5 10                  -0.002051940
 -10767042.309 9  -6972927.99846  23383715.250    23383714.3314   23383720.0854
        -0.000          -0.000
 -15967179.202 9 -12422625.44347  22012375.600    22012375.1804   22012379.5614
        -0.000          -0.000
 -29247864.809 9 -22513125.49449  19847322.971    19847322.8944   19847326.1274
        -0.000          -0.000
 -21821946.827 9 -16798404.74448  21277998.305    21277997.9094   21278001.6094
        -0.000          -0.000
 -27768326.731 9 -21190870.68848  20375848.931    20375848.1244   20375852.2274
        -0.000          -0.000
 -25209640.356 9 -19394942.72948  20362018.010    20362016.9594   20362021.1734
        -0.000          -0.000
 97  3  8  2 53 59.9970000  0  6 17 24 30  6  5 10                  -0.002059547
 -10859124.530 9  -7044680.35046  23366192.767    23366191.8224   23366197.3504
        -0.000          -0.000
 -15906117.015 9 -12375044.52447  22023995.376    22023994.9454   22023999.3634
        -0.000          -0.000
 -29255099.259 9 -22518762.73049  19845946.307    19845946.2174   19845949.4814
        -0.000          -0.000
 -21896302.413 9 -16856344.15248  21263848.947    21263848.5244   21263852.1874
        -0.000          -0.000
 -27716484.087 9 -21150473.83748  20385714.209    20385713.4144   20385717.5344
        -0.000          -0.000
 -25206131.133 9 -19392208.26048  20362685.795    20362684.7474   20362688.9274
        -0.000          -0.000
 97  3  8  2 54 29.9970000  0  6 17 24 30  6  5 10                  -0.002067166
 -10951024.695 9  -7116290.84946  23348704.695    23348703.7194   23348709.2324
        -0.000          -0.000
 -15845017.557 9 -12327434.55047  22035622.311    22035621.8564   22035626.1844
        -0.000          -0.000
 -29261734.632 9 -22523933.14649  19844683.597    19844683.5314   19844686.8184
        -0.000          -0.000
 -21970553.718 9 -16914202.29748  21249719.322    21249718.9264   21249722.6114
        -0.000          -0.000
 -27664174.528 9 -21109713.15448  20395668.345    20395667.5834   20395671.6704
        -0.000          -0.000
 -25202067.635 9 -19389041.88948  20363459.007    20363457.9624   20363462.1954
        -0.000          -0.000
 97  3  8  2 54 59.9970000  0  6 17 24 30  6  5 10                  -0.002074787
 -11042732.145 9  -7187751.14946  23331253.184    23331252.3214   23331257.9964
        -0.000          -0.000
 -15783893.336 9 -12279805.29047  22047253.930    22047253.4844   22047257.7454
        -0.000          -0.000
 -29267790.609 9 -22528652.08949  19843531.152    19843531.0894   19843534.3864
        -0.000          -0.000
 -22044680.992 9 -16971963.79448  21235613.339    21235612.9514   21235616.5734
        -0.000          -0.000
 -27611413.935 9 -21068601.02148  20405708.382    20405707.5934   20405711.7094
        -0.000          -0.000
 -25197446.771 9 -19385441.20948  20364338.309    20364337.2434   20364341.5354
        -0.000          -0.000
 97  3  8  2 55 29.9970000  0  6 17 24 30  6  5 10                  -0.002082402
 -11134245.046 9  -7259059.86846  23313838.748    23313837.8264   23313843.7654
        -0.000          -0.000
 -15722746.087 9 -12232158.08447  22058889.789    22058889.4394   22058893.7004
        -0.000          -0.000
 -29273280.760 9 -22532930.13049  19842486.448    19842486.3434   19842489.6294
        -0.000          -0.000
 -22118692.991 9 -17029635.47248  21221529.255    21221528.8814   21221532.4834
        -0.000          -0.000
 -27558214.646 9 -21027147.03848  20415831.825    20415831.0544   20415835.2344
        -0.000          -0.000
 -25192246.545 9 -19381389.07848  20365327.856    20365326.8284   20365331.1384
        -0.000          -0.000
 97  3  8  2 55 59.9970000  0  6 17 24 30  6  5 10                  -0.002089970
 -11225506.334 9  -7330172.52946  23296472.036    23296471.3084   23296477.2044
        -0.000          -0.000
 -15661548.433 9 -12184471.59547  22070535.326    22070534.9374   22070539.1794
        -0.000          -0.000
 -29278175.760 9 -22536744.42249  19841554.924    19841554.8274   19841558.1164
        -0.000          -0.000
 -22192570.435 9 -17087202.30148  21207470.827    21207470.4734   21207474.1024
        -0.000          -0.000
 -27504546.405 9 -20985327.64348  20426044.492    20426043.6944   20426047.9504
        -0.000          -0.000
 -25186422.694 9 -19376851.00148  20366436.167    20366435.1104   20366439.3534
        -0.000          -0.000
